[[{"header":{"parameterUnit":"m.s-1","parameterCategory":1,"la1":30.6,"la2":28.766,"lo1":-90.7593,"lo2":-88.6598,"dy":0.0162,"dx":0.0183,"nx":116,"ny":114,"refTime":"2023-07-31T00:00:00:Z","depth":0,"parameterNumber":2,"parameterNumberName":"U-component_of_WINDS"},"data":[0.0,0.0,0.0,0.0,0.0,0.0,0.0,0.0,0.0,0.0,0.0,0.0,0.0,0.0,0.0,0.0,0.0,0.0,0.0,0.0,0.0,0.0,0.0,0.0,0.0,0.0,0.0,0.0,0.0,0.0,0.0,0.0,0.0,0.0,0.0,0.0,0.0,0.0,0.0,0.0,0.0,0.0,0.0,0.0,0.0,0.0,0.0,0.0,0.0,0.0,0.0,0.0,0.0,0.0,0.0,0.0,0.0,0.0,0.0,0.0,0.0,0.0,0.0,0.0,0.0,0.0,0.0,0.0,0.0,0.0,0.0,0.0,0.0,0.0,0.0,0.0,0.0,0.0,0.0,0.0,0.0,0.0,0.0,0.0,0.0,0.0,0.0,0.0,0.0,0.0,0.0,0.0,0.0,0.0,0.0,0.0,0.0,0.0,0.0,0.0,0.0,0.0,0.0,0.0,0.0,0.0,0.0,0.0,0.0,0.0,0.0,0.0,0.0,0.0,0.0,0.0,0.0,0.0,0.0,0.0,0.0,0.0,0.0,0.0,0.0,0.0,0.0,0.0,0.0,0.0,0.0,0.0,0.0,0.0,0.0,0.0,0.0,0.0,0.0,0.0,0.0,0.0,0.0,0.0,0.0,0.0,0.0,0.0,0.0,0.0,0.0,0.0,0.0,0.0,0.0,0.0,0.0,0.0,0.0,0.0,0.0,0.0,0.0,0.0,0.0,0.0,0.0,0.0,0.0,0.0,0.0,0.0,0.0,0.0,0.0,0.0,0.0,0.0,0.0,0.0,0.0,0.0,0.0,0.0,0.0,0.0,0.0,0.0,0.0,0.0,0.0,0.0,0.0,0.0,0.0,0.0,0.0,0.0,0.0,0.0,0.0,0.0,0.0,0.0,0.0,0.0,0.0,0.0,0.0,0.0,0.0,0.0,0.0,0.0,0.0,0.0,0.0,0.0,0.0,0.0,0.0,0.0,0.0,0.0,0.0,0.0,0.0,0.0,0.0,0.0,0.0,0.0,0.0,0.0,0.0,0.0,0.0,0.0,0.0,0.0,0.0,0.0,0.0,0.0,0.0,0.0,0.0,0.0,0.0,0.0,0.0,0.0,0.0,0.0,0.0,0.0,0.0,0.0,0.0,0.0,0.0,0.0,0.0,0.0,0.0,0.0,0.0,0.0,0.0,0.0,0.0,0.0,0.0,0.0,0.0,0.0,0.0,0.0,0.0,0.0,0.0,0.0,0.0,0.0,0.0,0.0,0.0,0.0,0.0,0.0,0.0,0.0,0.0,0.0,0.0,0.0,0.0,0.0,0.0,0.0,0.0,0.0,0.0,0.0,0.0,0.0,0.0,0.0,0.0,0.0,0.0,0.0,0.0,0.0,0.0,0.0,0.0,0.0,0.0,0.0,0.0,0.0,0.0,0.0,0.0,0.0,0.0,0.0,0.0,0.0,0.0,0.0,0.0,0.0,0.0,0.0,0.0,0.0,0.0,0.0,0.0,0.0,0.0,0.0,0.0,0.0,0.0,0.0,0.0,0.0,0.0,0.0,0.0,0.0,0.0,0.0,0.0,0.0,0.0,0.0,0.0,0.0,0.0,0.0,0.0,0.0,0.0,0.0,0.0,0.0,0.0,0.0,0.0,0.0,0.0,0.0,0.0,0.0,0.0,0.0,0.0,0.0,0.0,0.0,0.0,0.0,0.0,0.0,0.0,0.0,0.0,0.0,0.0,0.0,0.0,0.0,0.0,0.0,0.0,0.0,0.0,0.0,0.0,0.0,0.0,0.0,0.0,0.0,0.0,0.0,0.0,0.0,0.0,0.0,0.0,0.0,0.0,0.0,0.0,0.0,0.0,0.0,0.0,0.0,0.0,0.0,0.0,0.0,0.0,0.0,0.0,0.0,0.0,0.0,0.0,0.0,0.0,0.0,0.0,0.0,0.0,0.0,0.0,0.0,0.0,0.0,0.0,0.0,0.0,0.0,0.0,0.0,0.0,0.0,0.0,0.0,0.0,0.0,0.0,0.0,0.0,0.0,0.0,0.0,0.0,0.0,0.0,0.0,0.0,0.0,0.0,0.0,0.0,0.0,0.0,0.0,0.0,0.0,0.0,0.0,0.0,0.0,0.0,0.0,0.0,0.0,0.0,0.0,0.0,0.0,0.0,0.0,0.0,0.0,0.0,0.0,0.0,0.0,0.0,0.0,0.0,0.0,0.0,0.0,0.0,0.0,0.0,0.0,0.0,0.0,0.0,0.0,0.0,0.0,0.0,0.0,0.0,0.0,0.0,0.0,0.0,0.0,0.0,0.0,0.0,0.0,0.0,0.0,0.0,0.0,0.0,0.0,0.0,0.0,0.0,0.0,0.0,0.0,0.0,0.0,0.0,0.0,0.0,0.0,0.0,0.0,0.0,0.0,0.0,0.0,0.0,0.0,0.0,0.0,0.0,0.0,0.0,0.0,0.0,0.0,0.0,0.0,0.0,0.0,0.0,0.0,0.0,0.0,0.0,0.0,0.0,0.0,0.0,0.0,0.0,0.0,0.0,0.0,0.0,0.0,0.0,0.0,0.0,0.0,0.0,0.0,0.0,0.0,0.0,0.0,0.0,0.0,0.0,0.0,0.0,0.0,0.0,0.0,0.0,0.0,0.0,0.0,0.0,0.0,0.0,0.0,0.0,0.0,0.0,0.0,0.0,0.0,0.0,0.0,0.0,0.0,0.0,0.0,0.0,0.0,0.0,0.0,0.0,0.0,0.0,0.0,0.0,0.0,0.0,0.0,0.0,0.0,0.0,0.0,0.0,0.0,0.0,0.0,0.0,0.0,0.0,0.0,0.0,0.0,0.0,0.0,0.0,0.0,0.0,0.0,0.0,0.0,0.0,0.0,0.0,0.0,0.0,0.0,0.0,0.0,0.0,0.0,0.0,0.0,0.0,0.0,0.0,0.0,0.0,0.0,0.0,0.0,0.0,0.0,0.0,0.0,0.0,0.0,0.0,0.0,0.0,0.0,0.0,0.0,0.0,0.0,0.0,0.0,0.0,0.0,0.0,0.0,0.0,0.0,0.0,0.0,0.0,0.0,0.0,0.0,0.0,0.0,0.0,0.0,0.0,0.0,0.0,0.0,0.0,0.0,0.0,0.0,0.0,0.0,0.0,0.0,0.0,0.0,0.0,0.0,0.0,0.0,0.0,0.0,0.0,0.0,0.0,0.0,0.0,0.0,0.0,0.0,0.0,0.0,0.0,0.0,0.0,0.0,0.0,0.0,0.0,0.0,0.0,0.0,0.0,0.0,0.0,0.0,0.0,0.0,0.0,0.0,0.0,0.0,0.0,0.0,0.0,0.0,0.0,0.0,0.0,0.0,0.0,0.0,0.0,0.0,0.0,0.0,0.0,0.0,0.0,0.0,0.0,0.0,0.0,0.0,0.0,0.0,0.0,0.0,0.0,0.0,0.0,0.0,0.0,0.0,0.0,0.0,0.0,0.0,0.0,0.0,0.0,0.0,0.0,0.0,0.0,0.0,0.0,0.0,0.0,0.0,0.0,0.0,0.0,0.0,0.0,0.0,0.0,0.0,0.0,0.0,0.0,0.0,0.0,0.0,0.0,0.0,0.0,0.0,0.0,0.0,0.0,0.0,0.0,0.0,0.0,0.0,0.0,0.0,0.0,0.0,0.0,0.0,0.0,0.0,0.0,0.0,0.0,0.0,0.0,0.0,0.0,0.0,0.0,0.0,0.0,0.0,0.0,0.0,0.0,0.0,0.0,0.0,0.0,0.0,0.0,0.0,0.0,0.0,0.0,0.0,0.0,0.0,0.0,0.0,0.0,0.0,0.0,0.0,0.0,0.0,0.0,0.0,0.0,0.0,0.0,0.0,0.0,0.0,0.0,0.0,0.0,0.0,0.0,0.0,0.0,0.0,0.0,0.0,0.0,0.0,0.0,0.0,0.0,0.0,0.0,0.0,0.0,0.0,0.0,0.0,0.0,0.0,0.0,0.0,0.0,0.0,0.0,0.0,0.0,0.0,0.0,0.0,0.0,0.0,0.0,0.0,0.0,0.0,0.0,0.0,0.0,0.0,0.0,0.0,0.0,0.0,0.0,0.0,0.0,0.0,0.0,0.0,0.0,0.0,0.0,0.0,0.0,0.0,0.0,0.0,0.0,0.0,0.0,0.0,0.0,0.0,0.0,0.0,0.0,0.0,0.0,0.0,0.0,0.0,0.0,0.0,0.0,0.0,0.0,0.0,0.0,0.0,0.0,0.0,0.0,0.0,0.0,0.0,0.0,0.0,0.0,0.0,0.0,0.0,0.0,0.0,0.0,0.0,0.0,0.0,0.0,0.0,0.0,0.0,0.0,0.0,0.0,0.0,0.0,0.0,0.0,0.0,0.0,0.0,0.0,0.0,0.0,0.0,0.0,0.0,0.0,0.0,0.0,0.0,0.0,0.0,0.0,0.0,0.0,0.0,0.0,0.0,0.0,0.0,0.0,0.0,0.0,0.0,0.0,0.0,0.0,0.0,0.0,0.0,0.0,0.0,0.0,0.0,0.0,0.0,0.0,0.0,0.0,0.0,0.0,0.0,0.0,0.0,0.0,0.0,0.0,0.0,0.0,0.0,0.0,0.0,0.0,0.0,0.0,0.0,0.0,0.0,0.0,0.0,0.0,0.0,0.0,0.0,0.0,0.0,0.0,0.0,0.0,0.0,0.0,0.0,0.0,0.0,0.0,0.0,0.0,0.0,0.0,0.0,0.0,0.0,0.0,0.0,0.0,0.0,0.0,0.0,0.0,0.0,0.0,0.0,0.0,0.0,0.0,0.0,0.0,0.0,0.0,0.0,0.0,0.0,0.0,0.0,0.0,0.0,0.0,0.0,0.0,0.0,0.0,0.0,0.0,0.0,0.0,0.0,0.0,0.0,0.0,0.0,0.0,0.0,0.0,0.0,0.0,0.0,0.0,0.0,0.0,0.0,0.0,0.0,0.0,0.0,0.0,0.0,0.0,0.0,0.0,0.0,0.0,0.0,0.0,0.0,0.0,0.0,0.0,0.0,0.0,0.0,0.0,0.0,0.0,0.0,0.0,0.0,0.0,0.0,0.0,0.0,0.0,0.0,0.0,0.0,0.0,0.0,0.0,0.0,0.0,0.0,0.0,0.0,0.0,0.0,0.0,0.0,0.0,0.0,0.0,0.0,0.0,0.0,0.0,0.0,0.0,0.0,0.0,0.0,0.0,0.0,0.0,0.0,0.0,0.0,0.0,0.0,0.0,0.0,0.0,0.0,0.0,0.0,0.0,0.0,0.0,0.0,0.0,0.0,0.0,0.0,0.0,0.0,0.0,0.0,0.0,0.0,0.0,0.0,0.0,0.0,0.0,0.0,0.0,0.0,0.0,0.0,0.0,0.0,0.0,0.0,0.0,0.0,0.0,0.0,0.0,0.0,0.0,0.0,0.0,0.0,0.0,0.0,0.0,0.0,0.0,0.0,0.0,0.0,0.0,0.0,0.0,0.0,0.0,0.0,0.0,0.0,0.0,0.0,0.0,0.0,0.0,0.0,0.0,0.0,0.0,0.0,0.0,0.0,0.0,0.0,0.0,0.0,0.0,0.0,0.0,0.0,0.0,0.0,0.0,0.0,0.0,0.0,0.0,0.0,0.0,0.0,0.0,0.0,0.0,0.0,0.0,0.0,0.0,0.0,0.0,0.0,0.0,0.0,0.0,0.0,0.0,0.0,0.0,0.0,0.0,0.0,0.0,0.0,0.0,0.0,0.0,0.0,0.0,0.0,0.0,0.0,0.0,0.0,0.0,0.0,0.0,0.0,0.0,0.0,0.0,0.0,0.0,0.0,0.0,0.0,0.0,0.0,0.0,0.0,0.0,0.0,0.0,0.0,0.0,0.0,0.0,0.0,0.0,0.0,0.0,0.0,0.0,0.0,0.0,0.0,0.0,0.0,0.0,0.0,0.0,0.0,0.0,0.0,0.0,0.0,0.0,0.0,0.0,0.0,0.0,0.0,0.0,0.0,0.0,0.0,0.0,0.0,0.0,0.0,0.0,0.0,0.0,0.0,0.0,0.0,0.0,0.0,0.0,0.0,1.5797,1.6491,0.0,0.0,0.0,0.0,0.0,0.0,0.0,0.0,0.0,0.0,0.0,0.0,0.0,0.0,0.0,0.0,0.0,0.0,0.0,0.0,0.0,0.0,0.0,0.0,0.0,0.0,0.0,0.0,0.0,0.0,0.0,0.0,0.0,0.0,0.0,0.0,0.0,0.0,0.0,0.0,0.0,0.0,0.0,0.0,0.0,0.0,0.0,0.0,0.0,0.0,0.0,0.0,0.0,0.0,0.0,0.0,0.0,0.0,0.0,0.0,0.0,0.0,0.0,0.0,0.0,0.0,0.0,0.0,0.0,0.0,0.0,0.0,0.0,0.0,0.0,0.0,0.0,0.0,0.0,0.0,0.0,0.0,0.0,0.0,0.0,0.0,0.0,0.0,0.0,0.0,0.0,0.0,0.0,0.0,0.0,0.0,0.0,0.0,0.0,0.0,0.0,0.0,0.0,0.0,0.0,0.0,0.0,0.0,0.0,0.0,0.0,0.0,0.0,0.0,1.6625,1.6691,0.0,0.0,0.0,0.0,0.0,0.0,0.0,0.0,0.0,0.0,0.0,0.0,0.0,0.0,0.0,0.0,0.0,0.0,0.0,0.0,0.0,0.0,0.0,0.0,0.0,0.0,0.0,0.0,0.0,0.0,0.0,0.0,0.0,0.0,0.0,0.0,0.0,0.0,0.0,0.0,0.0,0.0,0.0,0.0,0.0,0.0,0.0,0.0,0.0,0.0,0.0,0.0,0.0,0.0,0.0,0.0,0.0,0.0,0.0,0.0,0.0,0.0,0.0,0.0,0.0,0.0,0.0,0.0,0.0,0.0,0.0,0.0,0.0,0.0,0.0,0.0,0.0,0.0,0.0,0.0,0.0,0.0,0.0,0.0,0.0,0.0,0.0,0.0,0.0,0.0,0.0,0.0,0.0,0.0,0.0,0.0,0.0,0.0,0.0,0.0,0.0,0.0,0.0,0.0,0.0,0.0,0.0,0.0,1.691,1.7294,1.7718,1.8182,1.8586,1.8913,1.7702,1.7089,1.7023,1.7585,0.0,0.0,0.0,0.0,0.0,0.0,0.0,0.0,0.0,0.0,0.0,0.0,0.0,0.0,0.0,0.0,0.0,0.0,0.0,0.0,0.0,0.0,0.0,0.0,0.0,0.0,0.0,0.0,0.0,0.0,0.0,0.0,0.0,0.0,0.0,0.0,0.0,0.0,0.5496,0.5857,0.6081,0.6227,0.7059,0.0,0.0,0.0,0.0,0.0,0.0,0.0,0.0,0.0,0.0,0.0,0.0,0.0,0.0,0.0,0.0,0.0,0.0,0.0,0.0,0.0,0.0,0.0,0.0,0.0,0.0,0.0,0.0,0.0,0.0,0.0,0.0,0.0,0.0,0.0,0.0,0.0,0.0,0.0,0.0,0.0,0.0,0.0,1.5301,1.5124,0.0,0.0,0.0,0.0,0.0,0.0,0.0,0.0,0.0,0.0,0.0,0.0,0.0,1.6851,1.6818,1.6979,1.7252,1.768,1.774,1.8064,1.8558,1.863,1.8811,1.9175,1.9091,0.0,1.8126,1.7744,0.0,0.0,0.0,0.0,0.0,0.0,0.0,0.0,0.0,0.0,0.0,0.0,0.0,0.0,0.0,0.0,0.0,0.0,0.0,0.0,0.0,0.0,0.0,0.0,0.0,0.0,0.0,0.0,0.0,0.0,0.0,0.0,0.0,0.0,0.0,0.0,0.5887,0.5864,0.5879,0.6299,0.6526,0.6483,0.703,0.7246,0.73,0.7413,0.0,0.0,0.0,0.0,0.0,0.0,0.0,0.0,0.0,0.0,0.0,0.0,0.0,0.0,0.0,0.0,0.0,0.0,0.0,0.0,0.0,0.0,0.0,0.0,0.0,0.0,0.0,0.0,0.0,0.0,0.0,0.0,0.0,0.0,0.0,0.0,0.0,0.0,0.0,1.5087,1.5322,1.5367,1.5812,1.6207,0.0,0.0,0.0,0.0,0.0,0.0,0.0,0.0,0.0,1.6773,1.7231,1.7492,1.7588,1.7669,1.7798,1.8019,1.8298,1.8717,1.9159,1.9444,1.9797,2.0171,1.9878,1.9614,1.9404,1.8887,1.8613,1.8481,0.0,0.0,0.0,0.0,1.9063,1.9225,0.0,0.0,0.0,0.0,0.0,0.0,0.0,0.0,0.0,0.0,0.0,0.0,0.0,0.0,0.0,0.3139,0.0,0.0,0.0,0.0,0.0,0.0,0.0,0.0,0.0,0.0,0.0,0.0,0.6255,0.6474,0.6507,0.6979,0.7114,0.7029,0.7203,0.7253,0.7139,0.73,0.7359,0.0,0.0,0.0,0.0,0.0,0.0,0.0,0.0,0.0,0.0,0.0,0.0,0.0,0.0,0.0,0.0,0.0,0.0,0.0,0.0,0.0,0.0,0.0,0.0,0.0,0.0,0.0,0.0,0.0,0.0,0.0,0.0,0.0,0.0,0.0,0.0,0.0,0.0,1.5232,1.5198,1.5457,1.5546,1.58,0.0,0.0,0.0,0.0,0.0,0.0,1.6621,1.7119,1.746,1.7608,1.8125,1.848,1.8713,1.885,1.8977,1.9057,1.9493,1.9912,2.0335,2.0711,2.1045,2.1198,2.1003,2.0893,2.0832,2.0109,1.9597,1.926,1.9156,1.9193,1.9276,1.974,1.9894,1.9993,0.0,0.0,0.0,0.0,0.0,0.0,0.0,0.0,0.0,0.0,0.0,0.0,0.0,0.0,0.3296,0.3296,0.3859,0.426,0.0,0.0,0.0,0.0,0.0,0.0,0.0,0.0,0.0,0.6083,0.6795,0.72,0.7261,0.7524,0.7726,0.7852,0.7863,0.7572,0.7085,0.7139,0.7246,0.7521,0.0,0.0,0.0,0.0,0.0,0.0,0.0,0.0,0.0,0.0,0.0,0.0,0.0,0.0,0.0,0.0,0.0,0.0,0.0,0.0,0.0,0.0,0.0,0.0,0.0,0.0,0.0,0.0,0.0,0.0,0.0,0.0,0.0,0.0,0.0,0.0,0.0,0.0,0.0,1.5108,1.5424,0.0,0.0,0.0,0.0,1.6843,1.7345,1.7678,1.7784,1.8306,1.8677,1.8815,1.9356,1.9815,2.0297,2.0768,2.1261,2.1743,2.1766,2.2019,2.2557,2.258,2.2405,2.2173,2.3144,2.3107,2.2255,2.0939,2.0505,2.0806,2.0836,2.0966,2.1175,2.1203,2.1217,2.1302,0.0,0.0,0.0,0.0,0.0,0.0,0.0,0.0,0.0,0.0,0.0,0.0,0.0,0.3544,0.3632,0.3632,0.3816,0.3985,0.3985,0.0,0.0,0.0,0.0,0.0,0.0,0.0,0.6169,0.6121,0.7001,0.7404,0.7302,0.7728,0.8004,0.8195,0.8368,0.8423,0.8348,0.8085,0.7909,0.776,0.7926,0.8039,0.0,0.0,0.0,0.0,0.0,0.0,0.0,0.0,0.0,0.0,0.0,0.0,0.0,0.0,0.0,0.0,0.0,0.0,0.0,0.0,0.0,0.0,0.0,0.0,0.0,0.0,0.0,0.0,0.0,0.0,0.0,0.0,0.0,0.0,0.0,0.0,0.0,1.559,1.5972,0.0,1.6622,1.6822,1.7142,1.7506,1.8123,1.8476,1.8553,1.9367,1.9945,2.0404,2.0859,2.1365,2.187,2.2053,2.2065,2.1927,2.226,2.2407,2.2414,2.2738,2.2931,2.2913,2.329,2.3305,2.3164,2.2996,2.2596,2.201,2.1438,2.1489,2.1949,2.2297,2.2451,2.2536,0.0,0.0,0.0,0.0,0.0,0.0,0.0,0.0,0.0,0.0,0.0,0.3641,0.3767,0.383,0.391,0.3914,0.387,0.3839,0.3792,0.0,0.0,0.0,0.0,0.0,0.0,0.5684,0.6198,0.6356,0.7265,0.7674,0.767,0.8196,0.8522,0.8714,0.8982,0.9239,0.952,0.9237,0.8774,0.8253,0.8344,0.8371,0.83,0.0,0.0,0.0,0.0,0.0,0.0,0.0,0.0,0.0,0.0,0.0,0.0,0.0,0.0,0.0,0.0,0.0,0.0,0.0,0.0,0.0,0.0,0.0,0.0,0.0,0.0,0.0,0.0,0.0,0.0,0.0,0.0,0.0,0.0,0.0,1.6244,1.6589,1.6933,1.7329,1.8002,1.7966,1.8132,1.8698,1.9448,1.9998,2.0159,2.1135,2.1916,2.2409,2.2754,2.3098,2.3431,2.3431,2.319,2.2764,2.3098,2.3237,2.3235,2.3572,2.3781,2.3767,2.4013,2.405,2.3959,2.4316,2.4124,2.3622,2.2764,2.2864,2.3483,2.3885,2.4016,2.4109,0.0,0.0,0.0,0.0,0.0,0.0,0.0,0.0,0.0,0.0,0.3585,0.3809,0.4144,0.4084,0.4058,0.4218,0.4086,0.3943,0.3846,0.4198,0.0,0.0,0.0,0.0,0.537,0.5861,0.6378,0.6888,0.7576,0.8003,0.8327,0.8777,0.9232,0.9532,0.979,1.006,1.0381,1.0381,0.9795,0.8939,0.8663,0.8946,0.9453,0.0,0.0,0.0,0.0,0.0,0.0,0.0,0.0,0.0,0.0,0.0,0.0,0.0,0.0,0.0,0.0,0.0,0.0,0.0,0.0,0.0,0.0,0.0,0.0,0.0,0.0,0.0,0.0,0.0,0.0,0.0,0.0,0.0,1.587,1.6344,1.7043,1.8038,1.8176,1.8632,1.9643,1.9298,1.9424,2.04,2.1433,2.2237,2.2719,2.3695,2.4453,2.4923,2.4935,2.4935,2.4935,2.4935,2.4768,2.4513,2.438,2.4634,2.5222,2.5331,2.5148,2.4837,2.5477,2.538,2.4701,2.4609,2.4954,2.5545,2.4961,2.5176,2.581,2.5855,2.5892,2.595,0.0,0.0,0.0,0.0,0.0,0.0,0.0,0.0,0.0,0.0,0.3584,0.3803,0.4012,0.409,0.4271,0.4532,0.43,0.4157,0.4248,0.0,0.0,0.0,0.0,0.0,0.4387,0.565,0.6388,0.6561,0.7341,0.7832,0.8001,0.7865,0.8429,0.9487,0.9807,1.0456,1.1486,1.1486,1.1169,1.0731,0.9886,0.9373,0.9161,0.0,0.0,0.0,0.0,0.0,0.0,0.0,0.0,0.0,0.0,0.0,0.0,0.0,0.0,0.0,0.0,0.0,0.0,0.0,0.0,0.0,0.0,0.0,0.0,0.0,0.0,0.0,0.0,0.0,0.0,0.0,0.0,1.5529,1.5563,1.7434,1.885,1.8863,1.9738,2.0446,2.0733,2.1296,2.1755,2.203,2.3316,2.4154,2.4292,2.4935,2.536,2.5486,2.5497,2.5562,2.5692,2.5692,2.5587,2.5318,2.5471,2.5604,2.5689,2.5918,2.6099,2.6256,2.6067,2.5925,2.5703,2.5262,2.5208,2.5376,2.5473,2.5906,2.6538,2.7027,2.7281,2.7256,0.0,0.0,0.0,0.0,0.0,0.0,0.0,0.0,0.0,0.0,0.3691,0.3894,0.4152,0.4164,0.4288,0.4547,0.4359,0.4219,0.4215,0.0,0.0,0.0,0.0,0.4403,0.4562,0.5525,0.6262,0.6606,0.7234,0.7573,0.7728,0.7787,0.8232,0.9114,0.9438,1.0259,1.1514,1.1514,1.1653,1.1968,1.1347,1.0574,0.9753,0.9316,0.926,0.9284,0.9042,0.9223,0.9576,0.9133,0.0,0.0,0.0,0.0,0.0,0.0,0.0,0.0,0.0,0.0,0.0,0.0,0.0,0.0,0.0,0.0,0.0,0.0,0.0,0.0,0.0,0.0,0.0,0.0,1.5938,1.6545,1.6782,1.8733,2.0366,2.0864,2.1856,2.2604,2.3029,2.3397,2.3707,2.3936,2.4958,2.5566,2.5566,2.6127,2.6482,2.6482,2.6584,2.6558,2.6457,2.6457,2.6276,2.5997,2.6077,2.6259,2.6491,2.6723,2.6866,2.7095,2.6848,2.6526,2.6069,2.5769,2.5504,2.531,0.0,0.0,0.0,0.0,2.7829,2.7903,0.0,0.0,0.0,0.0,0.0,0.0,0.0,0.0,0.0,0.0,0.0,0.3988,0.4338,0.4221,0.4237,0.4447,0.4355,0.4213,0.0,0.0,0.0,0.3887,0.4117,0.4552,0.5195,0.553,0.6092,0.6863,0.7145,0.7306,0.7467,0.7991,0.8358,0.8535,0.8896,0.9683,1.0842,1.0927,1.164,1.2617,1.2759,1.1986,1.0797,1.0272,0.9844,0.9574,0.9232,0.9213,0.9302,0.9243,0.0,0.0,0.0,0.0,0.0,0.0,0.0,0.0,0.0,0.0,0.0,0.0,0.0,0.0,0.0,0.0,0.0,0.0,0.0,0.0,0.0,0.0,0.0,0.0,1.7185,1.827,1.8907,2.0111,2.1522,2.3153,2.3868,2.4631,2.5624,2.5337,2.5291,2.5761,2.6267,2.6622,2.6622,2.7209,0.0,0.0,0.0,2.7646,2.7242,2.7231,2.7084,2.6788,2.6635,2.6872,2.7489,2.7489,2.7477,2.7555,2.7663,2.7176,2.6274,2.6154,2.5853,2.5382,2.5441,2.5931,2.6693,2.7554,2.7884,2.8009,0.0,0.0,0.0,0.0,0.0,0.0,0.0,0.0,0.0,0.3327,0.3605,0.3853,0.4206,0.4314,0.4423,0.4689,0.4498,0.4311,0.0,0.0,0.4097,0.4295,0.4378,0.4546,0.4812,0.5763,0.6342,0.6477,0.6817,0.7077,0.7322,0.69,0.7388,0.8508,0.8578,0.9323,1.0562,1.1377,1.1855,1.2147,1.3021,1.2655,1.163,1.1093,1.0719,1.0405,0.9652,0.974,1.0013,0.9585,0.9913,1.0461,1.0053,0.0,0.0,0.0,0.0,0.0,0.0,0.0,0.0,0.0,0.0,0.0,0.0,0.0,0.0,0.0,0.0,0.0,0.0,0.0,0.0,1.6917,1.7989,1.9041,2.0397,2.1538,2.2372,2.3066,2.3816,2.467,2.5615,2.5991,2.6209,2.6313,2.6932,2.7302,2.7302,2.7649,2.78,2.78,2.7881,2.7903,2.8024,2.8024,2.8056,2.8119,2.7961,0.0,2.8275,2.8104,2.8104,2.8251,2.7909,2.7609,2.7344,2.6614,2.6092,2.5828,2.6277,2.6947,2.7683,2.7906,2.7996,2.7996,0.0,0.0,0.0,0.0,0.0,0.0,0.0,0.0,0.0,0.0,0.3433,0.3776,0.4044,0.4187,0.4313,0.4443,0.4325,0.0,0.0,0.43,0.4356,0.4547,0.4811,0.4958,0.504,0.5887,0.6316,0.6398,0.6744,0.6972,0.7227,0.6998,0.7373,0.8204,0.829,0.9063,1.0345,1.081,1.1442,1.2005,1.3095,1.3105,1.2486,1.2325,1.1973,1.164,1.1234,1.091,1.066,1.0523,1.0676,1.0821,1.0607,1.0661,1.0795,0.0,0.0,0.0,0.0,0.0,0.0,0.0,0.0,0.0,0.0,0.0,0.0,0.0,0.0,1.468,0.0,0.0,1.7073,1.8485,1.9298,2.0223,2.1455,2.2102,2.2722,2.3515,2.4154,2.4794,2.5396,2.6105,2.6495,2.6495,2.7233,2.7708,2.7708,2.795,2.803,2.803,2.8111,2.8271,2.8339,2.8339,2.8431,2.851,2.8431,2.8419,2.851,2.8431,2.8419,2.8498,2.83,2.8113,2.7799,2.72,2.693,2.6816,2.6872,2.6873,2.6973,2.743,2.7734,2.8037,0.0,0.0,0.0,0.0,0.0,0.0,0.0,0.0,0.0,0.0,0.3282,0.3669,0.3877,0.406,0.4152,0.0,0.0,0.0,0.0,0.4536,0.4607,0.4756,0.5154,0.5404,0.5404,0.5922,0.632,0.6376,0.6738,0.6999,0.717,0.7498,0.7755,0.7957,0.8124,0.8828,0.9979,1.0171,1.0844,1.178,1.2984,1.3446,1.3327,1.3586,1.3323,1.283,1.2555,1.1883,1.1153,1.132,1.1224,1.1051,1.1109,1.1261,1.1279,1.0892,1.0799,0.0,0.0,0.0,0.0,0.0,0.0,0.0,0.0,0.0,1.4203,1.4937,1.5661,1.6386,1.7189,1.8,1.892,2.0062,2.0755,2.1418,2.2092,2.2264,2.2737,2.3729,2.426,2.4754,2.52,2.5863,2.6279,2.6279,2.7115,2.7708,2.7708,2.8018,2.8259,2.8259,2.8431,2.851,2.851,2.851,2.851,2.851,2.851,2.851,2.851,2.851,2.8578,2.8578,2.8803,2.8578,2.8118,2.7815,2.7804,2.7827,2.7379,2.6872,2.6416,2.6972,2.7541,2.8143,0.0,0.0,0.0,0.0,0.0,0.0,0.0,0.0,0.0,0.0,0.0,0.0,0.0,0.0,0.0,0.0,0.0,0.0,0.4568,0.4504,0.455,0.486,0.5214,0.5404,0.5404,0.6026,0.6358,0.6376,0.6853,0.7174,0.7345,0.7673,0.799,0.8292,0.846,0.8728,0.8992,0.9981,1.0489,1.0788,1.2707,1.359,1.3897,1.4546,1.4298,1.35,1.2247,1.1732,1.1611,1.1376,1.1274,1.1293,1.1621,1.1697,1.1624,1.1203,0.0,1.066,1.0438,1.0701,1.1272,1.2293,1.298,1.3934,0.0,0.0,1.6624,1.7064,1.7532,1.8064,1.8732,1.9496,2.0417,2.1457,2.1947,2.2249,2.2334,2.2353,2.2511,2.2902,2.3521,2.4231,2.5115,2.5285,2.5369,2.5369,2.634,2.6905,2.6905,2.7914,2.851,2.851,2.851,2.851,2.851,2.851,2.851,2.851,2.851,2.851,2.851,2.8645,2.8803,2.8803,2.8961,2.8889,2.8523,2.8461,2.8301,2.8097,2.8034,2.7898,2.7786,2.744,2.7603,2.8069,0.0,0.0,0.0,0.0,0.0,0.0,0.0,0.0,0.0,0.0,0.0,0.0,0.0,0.0,0.0,0.0,0.0,0.0,0.4685,0.466,0.4762,0.5113,0.5362,0.56,0.5703,0.6289,0.6639,0.6738,0.7356,0.7698,0.7781,0.8135,0.8485,0.8816,0.8891,0.9072,0.9327,0.9723,1.0306,1.0979,1.2432,1.3328,1.3878,1.4287,1.4077,1.3339,1.2811,1.2087,0.0,0.0,1.165,1.1703,1.1991,1.1965,1.1715,1.1036,1.0711,0.0,1.096,1.1314,1.1958,0.0,1.4453,1.5412,1.6714,1.7478,1.8016,1.8648,1.9375,2.0042,2.0545,2.11,2.1693,0.0,2.2416,2.2618,2.2618,2.2706,2.2785,2.263,2.285,2.3282,2.3887,2.4509,2.5009,2.5505,2.6505,2.7244,2.7742,2.8259,2.851,2.851,2.851,2.851,2.851,2.851,2.851,2.851,2.8657,2.8657,2.8645,2.8882,2.904,2.9184,2.9275,2.9307,2.9274,2.9274,2.9213,2.9051,2.8712,2.8787,2.8976,2.8084,2.8109,2.8586,0.0,0.0,0.0,0.0,0.0,0.0,0.0,0.0,0.0,0.0,0.0,0.0,0.0,0.0,0.0,0.0,0.0,0.0,0.0,0.4735,0.4897,0.5209,0.5445,0.5649,0.5884,0.6367,0.6729,0.7023,0.7565,0.7918,0.802,0.8394,0.8731,0.9023,0.9076,0.9238,0.9482,0.9482,0.9959,1.072,1.1672,1.235,1.2825,1.3101,1.2879,1.247,1.255,1.1937,0.0,0.0,1.1451,1.1587,1.1965,1.1999,1.1736,1.0918,1.0512,1.0411,1.1131,0.0,0.0,1.399,1.538,1.6581,1.7596,1.8583,1.9608,2.0435,2.1202,2.1797,2.2197,2.2406,2.253,2.2618,2.2794,2.2882,2.2882,2.2872,2.2852,2.2549,2.2412,2.2461,2.2764,2.373,2.4523,2.5062,2.6423,2.7348,2.7753,2.8259,2.851,2.851,2.859,2.8578,2.8578,2.8669,2.8669,2.8669,2.8803,2.8882,2.8882,2.9118,2.9275,2.9509,2.9509,2.9611,2.9792,2.9792,2.9792,2.9754,2.934,2.9428,2.9691,2.8875,2.8825,2.9164,0.0,0.0,0.0,0.0,0.0,0.0,0.0,0.0,0.0,0.0,0.0,0.0,0.0,0.0,0.0,0.0,0.0,0.0,0.0,0.4509,0.4666,0.5076,0.5209,0.547,0.588,0.6241,0.6599,0.7023,0.7317,0.7675,0.802,0.8394,0.8662,0.8836,0.9015,0.9104,0.9116,0.9116,0.9112,0.9295,1.0301,1.0505,1.026,1.0898,1.0819,1.0534,1.0955,0.0,0.0,0.0,1.0404,1.0629,1.1245,1.1639,0.0,1.117,1.0303,0.9694,0.0,0.0,1.1755,1.3181,1.5042,1.6916,1.8258,2.0076,2.1742,2.2781,2.2991,2.31,2.329,2.3063,2.2882,2.3047,2.3057,2.3057,2.3057,2.2793,2.2529,2.251,2.2158,2.1904,0.0,2.3091,2.3676,2.3193,2.5663,2.6835,2.5913,2.7592,2.851,2.851,2.8724,2.8803,2.8803,2.8961,2.9052,2.9052,2.9052,2.9052,2.9131,2.9275,2.9521,2.9792,2.9792,2.9792,2.9792,2.9792,2.9792,2.9792,2.9779,2.9779,2.9792,2.9754,2.9754,2.9767,0.0,0.0,0.0,0.0,0.0,0.0,0.0,0.0,0.0,0.0,0.0,0.0,0.0,0.0,0.0,0.0,0.0,0.0,0.0,0.4357,0.4602,0.4885,0.5072,0.5287,0.5474,0.5884,0.6241,0.6599,0.6956,0.7257,0.7496,0.7862,0.8122,0.8292,0.8479,0.8629,0.8747,0.8747,0.9328,1.0062,1.0107,1.0458,1.1022,1.0701,1.0329,0.9959,0.0,0.0,0.0,0.0,0.0,1.0058,1.0412,1.0474,1.0457,1.0384,1.0453,1.0779,1.1671,0.0,1.4102,1.5584,1.6969,1.8425,2.044,2.1578,2.236,2.3114,2.2765,2.2272,2.1981,2.1646,2.1452,2.1744,2.2353,2.2822,2.3096,2.3018,2.2725,2.2168,2.1973,0.0,0.0,0.0,0.0,2.3527,2.4735,2.5495,2.583,2.6412,2.708,2.781,2.7891,2.8303,2.8961,2.9052,2.9131,2.9131,2.9275,2.9365,2.9546,2.9611,2.9702,2.9792,2.9792,2.9792,2.9792,2.9792,2.9792,2.9792,2.9934,3.0011,3.0011,3.0011,3.0075,3.0152,0.0,0.0,0.0,0.0,0.0,0.0,0.0,0.0,0.0,0.0,0.0,0.0,0.0,0.0,0.0,0.0,0.0,0.0,0.0,0.0,0.4342,0.4658,0.4828,0.5007,0.5197,0.5482,0.5834,0.6253,0.6494,0.6765,0.7086,0.738,0.7529,0.7642,0.789,0.8032,0.8089,0.8089,0.8593,0.9297,0.8914,0.9099,0.9535,0.9366,0.9092,0.0,0.0,0.0,0.0,0.0,0.0,0.9703,0.9847,0.998,1.0066,1.0379,1.0937,1.1751,1.2877,1.4145,1.5511,1.6869,1.7991,1.9202,2.1182,2.196,2.2452,2.3152,2.258,2.1709,2.1103,2.0508,2.0107,2.0088,2.0801,2.1562,2.2139,2.2217,2.2187,2.2119,2.1982,2.1885,0.0,0.0,0.0,2.3537,2.4492,2.5168,2.5411,2.583,2.6412,2.7151,2.7232,2.7557,2.8303,2.8712,2.904,2.9378,2.9443,2.9611,2.9792,2.9792,2.9792,2.9792,2.9792,2.9792,2.9792,2.9869,2.9934,2.9934,3.0152,3.0228,3.0228,3.0228,3.0292,3.0368,0.0,0.0,0.0,0.0,0.0,0.0,0.0,0.0,0.0,0.0,0.0,0.0,0.0,0.0,0.0,0.0,0.0,0.0,0.0,0.0,0.0,0.4431,0.4493,0.4706,0.5099,0.5116,0.5391,0.5967,0.5931,0.6203,0.6746,0.6919,0.6954,0.697,0.7323,0.7388,0.7171,0.7171,0.7159,0.7091,0.7066,0.6747,0.6291,0.6996,0.0,0.0,0.0,0.0,0.0,0.0,0.0,0.0,0.0,1.0133,1.0733,1.1092,1.1832,1.274,1.4223,1.5202,1.6082,1.7079,1.8101,1.9115,2.0462,2.1275,2.2022,2.2888,2.2353,2.1455,0.0,0.0,1.8945,1.8203,1.8809,1.9697,2.0576,2.0693,2.1152,0.0,0.0,0.0,0.0,0.0,0.0,2.3105,2.4914,2.5684,2.484,2.5757,2.6351,2.6445,2.6659,2.673,2.6812,2.7879,2.887,2.9624,2.9702,2.9714,2.9714,2.9792,2.9792,2.9792,2.9792,2.9792,2.9869,3.0011,3.0075,3.0152,3.0292,3.0444,3.0368,3.0444,3.0444,3.0368,0.0,0.0,0.0,0.0,0.0,0.0,0.0,0.0,0.0,0.0,0.0,0.0,0.0,0.0,0.0,0.0,0.0,0.0,0.0,0.0,0.0,0.0,0.0,0.0,0.0,0.0,0.0,0.0,0.0,0.5878,0.599,0.6316,0.6493,0.6506,0.6755,0.6854,0.7003,0.7003,0.7432,0.8112,0.0,0.7727,0.8113,0.0,0.0,0.0,0.0,0.0,0.0,0.0,0.0,0.0,0.0,1.1143,1.1823,1.2636,1.374,1.4787,1.5665,1.6945,1.8108,1.8357,1.8606,1.9336,2.1209,2.1053,2.0902,2.1968,2.084,1.9436,0.0,0.0,0.0,1.899,2.0036,0.0,2.2324,2.248,0.0,2.2774,0.0,2.27,2.2858,2.3042,0.0,0.0,2.409,2.4348,2.409,2.4337,2.484,2.5746,2.5819,2.6235,2.6987,2.7313,2.7557,2.781,2.8462,2.8791,2.887,2.9468,2.9792,2.9792,2.9792,2.9869,3.0011,3.0075,3.0075,3.0152,3.047,3.0533,3.0444,3.0533,3.0685,3.0836,0.0,0.0,0.0,0.0,0.0,0.0,0.0,0.0,0.0,0.0,0.0,0.0,0.0,0.0,0.0,0.0,0.0,0.0,0.0,0.0,0.0,0.0,0.0,0.0,0.0,0.0,0.0,0.0,0.0,0.0,0.0,0.5811,0.59,0.5967,0.621,0.6347,0.6432,0.6524,0.0,0.0,0.0,0.0,0.0,0.0,0.0,0.0,0.0,0.0,0.0,0.0,0.0,1.0909,1.1516,1.2153,1.2862,1.3843,0.0,1.5979,1.6616,1.7765,1.8752,1.8613,1.8686,1.9047,2.0112,1.9988,1.9782,2.0256,1.935,0.0,1.7272,0.0,0.0,0.0,0.0,0.0,2.1644,2.2217,2.2591,0.0,2.3232,0.0,2.3478,2.3564,2.376,0.0,2.4206,2.4317,2.4317,2.4405,2.4743,2.5326,2.52,2.5505,2.6483,2.6565,2.673,2.7069,2.7637,2.7891,2.7891,2.8791,2.9209,2.9287,2.9624,2.9624,2.9431,2.9509,2.9263,2.9015,2.9484,2.9793,3.0024,3.0292,3.0672,3.0911,0.0,0.0,0.0,0.0,0.0,0.0,0.0,0.0,0.0,0.0,0.0,0.0,0.0,0.0,0.0,0.0,0.0,0.0,0.0,0.0,0.0,0.0,0.0,0.0,0.0,0.0,0.0,0.0,0.0,0.0,0.0,0.0,0.0,0.0,0.0,0.0,0.0,0.0,0.0,0.0,0.0,0.0,0.0,0.0,0.0,0.0,0.0,0.0,0.0,0.0,1.1428,1.1443,1.246,1.3228,1.3945,1.4911,1.5848,1.6704,1.7347,1.8145,1.8708,1.8379,1.8515,1.8626,1.8352,1.8471,1.8629,1.8281,0.0,1.7299,1.6477,1.681,1.6972,1.6384,0.0,1.9292,2.0387,2.1212,2.2168,2.3441,2.3754,2.3841,2.3927,2.411,2.4206,2.4206,2.4625,2.4948,2.4886,2.4964,2.514,2.514,2.4747,2.4861,2.5579,2.5663,2.5997,2.6741,2.6905,2.6905,2.6987,2.7879,2.8291,2.8383,2.9131,2.904,2.8371,2.8621,2.8291,2.7626,2.8267,2.8821,2.9381,2.9716,3.0279,3.0672,0.0,0.0,0.0,0.0,0.0,0.0,0.0,0.0,0.0,0.0,0.0934,0.0,0.0,0.0,0.0,0.0,0.0,0.0,0.0,0.0,0.0,0.0,0.0,0.0,0.0,0.0,0.0,0.0,0.0,0.0,0.0,0.0,0.0,0.0,0.0,0.0,0.0,0.0,0.0,0.0,0.0,0.0,0.0,0.0,0.0,0.0,0.0,0.0,0.0,0.0,1.1875,1.2489,1.374,1.4575,1.5284,1.6243,1.7018,1.7706,1.8357,1.8657,1.8708,1.8379,1.8293,1.8303,1.8053,1.7617,0.0,0.0,1.685,1.6239,1.5711,1.5985,1.6605,1.7592,0.0,0.0,0.0,0.0,2.2764,0.0,0.0,0.0,0.0,0.0,0.0,0.0,2.4887,2.498,2.4598,2.4578,2.4664,2.4664,2.4495,2.4529,2.47,2.47,2.4775,2.4946,2.5673,2.6069,2.6069,2.6905,2.7313,2.7313,2.7476,2.7637,2.7718,2.8108,2.8096,2.8096,2.8755,2.8924,2.8937,2.9172,2.9316,2.9394,0.0,0.0,0.0,0.0,0.0,0.0,0.0,0.0,0.0,0.0,0.1062,0.1236,0.0,0.0,0.0,0.0,0.0,0.0,0.0,0.0,0.0,0.0,0.0,0.0,0.0,0.0,0.0,0.0,0.0,0.0,0.0,0.0,0.0,0.0,0.0,0.0,0.0,0.0,0.0,0.0,0.0,0.0,0.0,0.0,0.0,0.0,0.0,0.0,0.0,0.0,1.1875,1.2584,1.4399,1.5409,1.6074,1.6872,1.7443,1.7918,1.8401,1.8733,1.885,1.8521,1.8326,1.8038,1.6961,0.0,0.0,0.0,1.5976,1.5817,1.5601,0.0,0.0,0.0,0.0,0.0,0.0,0.0,0.0,0.0,0.0,0.0,0.0,0.0,2.454,2.454,2.4747,2.4881,2.4902,2.4902,2.4788,2.455,2.454,2.454,2.454,2.454,2.454,2.454,2.4935,2.5094,2.5179,2.5997,2.64,2.6483,2.6905,2.7069,2.6999,2.7151,2.7151,2.6999,2.7568,2.7891,2.8131,2.8542,2.8858,2.9081,0.0,0.0,0.0,0.0,0.0,0.0,0.0,0.083,0.084,0.0974,0.1088,0.1207,0.1316,0.1549,0.1654,0.0,0.0,0.0,0.0,0.0,0.0,0.0,0.0,0.0,0.0,0.0,0.0,0.4893,0.0,0.0,0.0,0.0,0.0,0.0,0.0,0.0,0.0,0.0,0.0,0.0,0.0,0.0,0.0,0.0,0.0,0.0,0.0,0.0,0.0,0.0,1.1567,1.2175,1.4256,1.5418,1.6089,1.6816,1.7483,1.8008,1.8572,1.889,1.9,1.8655,1.8337,1.7691,1.5965,1.5753,0.0,0.0,1.5142,1.539,1.539,0.0,0.0,0.0,0.0,0.0,0.0,0.0,0.0,0.0,0.0,0.0,0.0,0.0,0.0,2.454,2.454,2.4695,2.5068,2.5078,2.4923,2.4464,2.454,2.454,2.454,2.454,2.454,2.454,2.454,2.454,2.454,2.5179,2.5589,2.5746,2.6412,2.6588,2.6362,2.6445,2.629,2.6052,2.6456,2.6928,2.7487,2.7846,2.8315,2.8621,0.0,0.0,0.0,0.0,0.0,0.0,0.0,0.1503,0.0759,0.0883,0.1018,0.1217,0.1453,0.1707,0.1805,0.0,0.0,0.0,0.0,0.0,0.0,0.0,0.0,0.0,0.0,0.0,0.0,0.4618,0.4644,0.0,0.0,0.0,0.0,0.0,0.0,0.568,0.0,0.0,0.0,0.0,0.0,0.0,0.0,0.0,0.0,0.0,0.0,0.0,0.0,0.0,0.0,1.1409,1.2706,1.3859,1.4924,1.5974,0.0,0.0,1.9771,1.9681,1.9217,1.887,1.828,1.7329,1.5646,0.0,0.0,1.4573,1.4407,1.4438,1.4438,1.45,1.4687,0.0,0.0,1.6218,0.0,0.0,0.0,0.0,0.0,0.0,0.0,2.454,2.454,2.454,2.454,2.456,2.4516,2.4516,2.4495,2.454,2.454,2.454,2.454,2.454,2.454,2.454,2.454,2.454,2.454,2.4625,2.4861,2.5274,2.5359,2.5622,2.5979,2.6373,2.6445,2.6445,2.6962,2.7138,2.7219,2.7313,2.7313,2.7383,0.0,0.0,0.0,0.0,0.0,0.0,0.0,0.1643,0.1162,0.2099,0.2371,0.2547,0.2693,0.3091,0.294,0.0,0.0,0.0,0.0,0.0,0.0,0.0,0.0,0.0,0.0,0.0,0.0,0.4403,0.453,0.0,0.0,0.0,0.0,0.0,0.0,0.589,0.5723,0.0,0.0,0.0,0.0,0.0,0.0,0.0,0.0,0.0,0.0,0.0,0.0,0.0,0.0,0.0,1.1329,1.2312,0.0,0.0,1.6798,1.7632,1.8856,1.9225,1.9335,1.9175,1.8188,1.7125,1.6318,0.0,0.0,1.4738,1.45,1.4397,1.4676,1.449,1.4366,1.4552,0.0,0.0,0.0,0.0,0.0,0.0,0.0,0.0,0.0,0.0,2.454,2.454,2.454,2.454,2.454,2.454,2.454,2.454,2.454,2.454,2.454,2.454,2.454,2.454,2.454,2.454,2.454,2.4786,2.5031,2.52,2.5464,2.5874,2.629,2.6445,2.6704,2.6962,2.7138,2.7231,2.7231,2.7231,2.7231,2.7231,0.0,0.0,0.0,0.0,0.0,0.0,0.2992,0.2069,0.1934,0.2953,0.2895,0.2938,0.3417,0.362,0.3262,0.2197,0.0,0.0,0.0,0.0,0.0,0.0,0.0,0.0,0.0,0.0,0.4316,0.4316,0.4443,0.4622,0.0,0.0,0.5333,0.5507,0.0,0.0,0.0,0.0,0.0,0.0,0.0,0.0,0.0,0.0,0.0,0.0,0.0,0.0,0.0,0.0,0.0,0.0,0.0,0.0,0.0,0.0,1.6309,1.7388,1.8044,1.9039,1.9791,1.9414,1.8257,1.7102,0.0,0.0,0.0,1.4749,1.4592,1.4518,1.4738,1.4582,1.4414,1.4304,0.0,1.5059,0.0,0.0,0.0,0.0,0.0,0.0,0.0,2.4302,2.454,2.454,2.454,2.454,2.454,2.454,2.454,2.454,2.454,2.454,2.454,2.454,2.454,2.47,2.47,2.4796,2.4967,2.5295,2.5454,2.5611,2.5957,2.6302,2.6704,2.6704,2.688,2.7231,2.7231,2.7231,2.7231,2.7231,2.7231,2.7231,0.0,0.0,0.0,0.0,0.0,0.0,0.0,0.2995,0.3093,0.3102,0.1994,0.1772,0.3248,0.2759,0.2321,0.2297,0.0,0.0,0.0,0.0,0.0,0.0,0.0,0.0,0.0,0.0,0.4316,0.4316,0.4316,0.4316,0.432,0.4762,0.499,0.5033,0.0,0.0,0.0,0.0,0.0,0.0,0.0,0.0,0.0,0.0,0.0,0.0,0.0,0.0,0.0,0.0,0.0,0.0,0.0,0.0,0.0,0.0,1.5629,1.7875,1.7914,1.9443,2.0847,1.9678,1.8461,1.7268,0.0,0.0,1.4863,1.4407,1.4524,1.4623,1.4374,1.4524,1.4623,1.4364,1.4687,0.0,0.0,0.0,0.0,0.0,0.0,0.0,2.2428,2.3743,2.454,2.454,2.454,2.454,2.454,2.454,2.454,2.454,2.454,2.454,2.454,2.454,2.47,2.52,2.52,2.5464,2.5906,2.5906,2.6135,2.6528,2.6528,2.6787,2.7231,2.7231,2.7231,2.7231,2.7231,2.7231,2.7231,2.7231,2.7231,2.7231,0.0,0.0,0.0,0.0,0.0,0.0,0.0,0.4485,0.4909,0.591,0.5123,0.4655,0.512,0.452,0.3669,0.2657,0.0,0.0,0.0,0.0,0.0,0.0,0.0,0.0,0.0,0.0,0.4316,0.4316,0.4316,0.436,0.453,0.4849,0.5072,0.5246,0.6136,0.0,0.0,0.0,0.0,0.0,0.0,0.0,0.0,0.0,0.0,0.0,0.0,0.0,0.0,0.0,0.0,0.0,0.0,0.0,0.0,0.0,0.0,0.0,1.6062,1.6683,1.7225,1.7178,1.6158,1.528,1.5709,0.0,1.4624,1.4984,1.4835,1.4768,1.5014,1.5024,1.5017,1.5025,1.5468,0.0,0.0,0.0,0.0,0.0,0.0,0.0,0.0,0.0,2.454,2.454,2.454,2.454,2.454,2.4786,2.4871,2.454,2.454,2.454,2.454,2.454,2.47,2.52,2.52,2.5464,2.5895,2.6207,2.6362,2.6528,2.688,2.7056,2.7231,2.7231,2.7231,2.7231,2.7231,2.7231,2.7231,2.7231,2.7231,2.7231,0.0,0.0,0.0,0.0,0.0,0.0,0.0,0.4853,0.5586,0.6689,0.5888,0.5254,0.5353,0.4617,0.3727,0.2789,0.0,0.0,0.0,0.0,0.0,0.0,0.0,0.0,0.0,0.4316,0.4316,0.4316,0.4316,0.436,0.4491,0.4849,0.5111,0.5318,0.6301,0.0,0.0,0.0,0.0,0.0,0.0,0.0,0.8334,0.0,0.0,0.0,0.0,0.0,0.0,0.0,0.0,0.0,0.0,0.0,0.0,0.0,1.2532,0.0,0.0,1.5209,1.5979,1.5851,1.5268,0.0,0.0,0.0,1.4437,1.5033,1.4964,1.496,1.5307,1.5463,1.5531,1.5636,1.616,0.0,0.0,0.0,0.0,0.0,0.0,0.0,0.0,2.4418,2.454,2.4786,2.4786,2.4786,2.4786,2.5031,2.5031,2.4786,2.4786,2.4786,2.4786,2.4786,2.5041,2.5464,2.5622,2.5863,2.6135,2.6539,2.6787,2.6787,2.7056,2.7231,0.0,2.7231,2.7231,2.7231,2.7231,2.7231,2.7231,2.7231,2.7231,2.7231,0.0,0.0,0.0,0.0,0.0,0.0,0.0,0.0,0.0,0.0,0.4886,0.4148,0.4295,0.3423,0.2791,0.0,0.0,0.0,0.0,0.0,0.0,0.0,0.0,0.0,0.0,0.4316,0.4316,0.4316,0.4316,0.432,0.436,0.4806,0.5149,0.5389,0.6295,0.0,0.0,0.0,0.0,0.0,0.0,0.0,0.0,0.0,0.0,0.0,0.0,0.0,0.0,0.0,0.0,0.0,0.0,0.0,0.0,0.0,0.0,0.0,0.0,0.0,0.0,0.0,0.0,0.0,0.0,0.0,0.0,1.4673,1.4941,1.5191,1.5369,1.5888,1.6229,1.6138,1.6796,0.0,0.0,0.0,0.0,0.0,0.0,0.0,2.37,2.4221,2.47,2.52,2.52,2.52,2.5285,2.5285,2.5285,2.5285,2.5285,2.5285,2.52,2.52,2.538,2.5979,2.629,2.6528,2.6528,2.6962,2.7231,2.7231,2.7231,2.7231,2.7231,2.7231,2.7231,2.7231,2.7231,2.7231,2.7231,2.7231,2.7231,2.7231,0.0,0.0,0.0,0.0,0.0,0.0,0.0,0.0,0.0,0.0,0.0,0.5542,0.4618,0.3692,0.0,0.0,0.0,0.0,0.0,0.0,0.0,0.0,0.0,0.0,0.0,0.4316,0.4316,0.4316,0.4316,0.4491,0.4836,0.5096,0.5437,0.5862,0.6592,0.0,0.0,0.0,0.0,0.0,0.0,0.0,0.0,0.0,0.0,0.0,0.7712,0.7763,0.0,0.0,0.0,0.0,0.0,0.0,0.0,0.0,1.1069,1.1108,1.1267,0.0,1.2954,1.3389,1.3508,0.0,0.0,0.0,0.0,0.0,0.0,0.0,0.0,1.6472,1.6983,1.6525,0.0,1.8191,0.0,0.0,0.0,0.0,2.3659,2.4746,2.3438,2.4352,2.5211,2.5728,2.5369,2.5369,2.5728,2.6041,2.6041,2.5728,2.6041,2.5863,2.52,2.4871,2.52,2.6373,2.6135,2.6385,2.7056,2.7149,2.7231,2.7231,2.7231,2.7231,2.7231,2.7231,2.7231,2.7231,2.7231,2.7231,2.7231,2.7231,2.7231,2.7231,0.0,0.0,0.0,0.0,0.0,0.0,0.0,0.0,0.0,0.0,0.0,0.0,0.0,0.0,0.0,0.0,0.0,0.0,0.0,0.0,0.0,0.0,0.0,0.0,0.4316,0.4316,0.4403,0.4618,0.4618,0.4879,0.5308,0.5524,0.5819,0.6167,0.6852,0.0,0.0,0.0,0.0,0.0,0.7487,0.0,0.0,0.0,0.0,0.0,0.7712,0.7712,0.0,0.7712,0.7836,0.8167,0.0,0.0,0.0,0.0,1.0833,1.0974,1.1426,1.1716,1.2048,1.2503,1.2937,1.331,0.0,0.0,0.0,0.0,0.0,0.0,0.0,0.0,0.0,0.0,1.7778,0.0,0.0,0.0,0.0,0.0,2.3962,2.5007,0.0,2.5168,2.5717,2.6135,2.5957,2.5946,2.6135,2.6362,2.6362,2.6207,2.6207,2.6124,2.5779,2.5527,2.5779,2.6528,2.6467,2.6644,2.688,2.7056,2.7231,2.7231,2.7231,2.7231,2.7231,2.7231,2.7231,2.7231,2.7231,2.7231,2.7231,2.7231,2.7231,2.7231,0.0,0.0,0.0,0.0,0.0,0.0,0.0,0.0,0.0,0.0,0.0,0.0,0.0,0.0,0.0,0.0,0.0,0.0,0.0,0.0,0.0,0.0,0.0,0.4291,0.4316,0.436,0.4618,0.5009,0.5091,0.5351,0.5782,0.5996,0.6186,0.6445,0.7091,0.7308,0.0,0.0,0.7304,0.6887,0.7428,0.0,0.0,0.0,0.0,0.0,0.0,0.0,0.0,0.7795,0.8126,0.8578,0.9136,0.0,0.0,0.0,0.0,0.0,1.1851,1.2204,1.2339,1.2484,1.3051,1.3668,0.0,0.0,0.0,0.0,0.0,0.0,0.0,0.0,0.0,0.0,0.0,0.0,0.0,0.0,0.0,2.2867,2.408,0.0,2.6091,2.6086,2.6135,2.661,2.6528,2.6494,2.6509,2.6577,2.6577,2.6498,2.6268,2.6218,2.661,2.6445,2.6445,2.661,2.6962,2.688,2.661,2.7056,2.7231,2.7231,2.7231,2.7231,2.7231,2.7231,2.7231,2.7231,2.7231,2.7231,2.7231,2.7231,2.7231,2.7231,0.0,0.0,0.0,0.0,0.0,0.0,0.0,0.0,0.0,0.0,0.0,0.0,0.0,0.0,0.0,0.0,0.0,0.0,0.0,0.0,0.0,0.0,0.3955,0.4122,0.4316,0.4705,0.4923,0.5009,0.5394,0.5825,0.6204,0.6343,0.661,0.7006,0.7258,0.7312,0.7223,0.7262,0.7393,0.7541,0.7357,0.0,0.0,0.0,0.0,0.0,0.0,0.0,0.0,0.8291,0.8578,0.9016,0.9549,0.0,0.0,0.0,0.0,0.0,1.1095,1.1685,1.2494,1.3217,1.3507,1.361,0.0,0.0,0.0,0.0,0.0,0.0,0.0,0.0,0.0,0.0,0.0,0.0,0.0,0.0,2.3345,2.3593,0.0,2.6211,2.4912,2.58,2.6622,2.7056,2.6704,2.6513,2.652,2.6909,2.6943,2.6508,2.6839,2.7056,2.7056,2.6396,2.6396,2.7056,2.6787,2.6787,2.7056,2.7149,2.7231,2.7231,2.7231,2.7231,2.7231,2.7231,2.7231,2.7231,2.7231,2.7231,2.7231,2.7231,2.7231,2.7231,0.0,0.0,0.0,0.0,0.0,0.0,0.0,0.0,0.0,0.0,0.0,0.0,0.0,0.0,0.0,0.0,0.0,0.0,0.0,0.0,0.0,0.3448,0.3944,0.4237,0.4312,0.5009,0.5295,0.5173,0.5497,0.5881,0.6317,0.6565,0.6774,0.7008,0.715,0.7115,0.6928,0.6928,0.7015,0.7153,0.0,0.0,0.0,0.0,0.0,0.0,0.0,0.0,0.0,0.0,0.87,0.9212,0.9731,0.0,0.0,0.0,0.0,0.0,1.1582,1.1954,1.2463,1.3082,1.3236,1.3314,0.0,0.0,0.0,0.0,0.0,0.0,0.0,0.0,0.0,0.0,0.0,2.0374,2.2748,2.2927,2.3201,0.0,0.0,2.5947,2.5994,2.6564,2.6962,2.7149,2.6805,2.6542,2.6473,2.6691,2.6577,2.6071,2.6554,2.668,2.6416,2.6006,2.6278,2.7231,2.6962,2.6974,2.7231,2.7231,2.7231,2.7231,2.7231,2.7231,2.7149,2.661,2.6434,2.6434,2.5935,2.5779,2.5779,2.5779,2.5779,2.5735,0.0,0.0,0.0,0.0,0.0,0.0,0.0,0.0,0.0,0.0,0.0,0.0,0.0,0.0,0.0,0.0,0.0,0.0,0.0,0.0,0.3629,0.3496,0.413,0.4442,0.4308,0.5244,0.5625,0.5381,0.5557,0.5873,0.6313,0.6591,0.6733,0.6849,0.7012,0.6903,0.6593,0.6593,0.668,0.6833,0.0,0.0,0.0,0.0,0.0,0.0,0.0,0.0,0.0,0.0,0.0,0.0,0.0,0.0,0.0,1.2151,1.2058,1.1851,1.2214,1.2423,1.259,1.2934,0.0,0.0,1.3407,0.0,0.0,0.0,0.0,0.0,0.0,0.0,0.0,0.0,1.9735,2.0443,2.232,2.2695,2.3301,2.4898,2.5122,2.5509,2.6427,2.655,2.655,2.655,2.6436,2.62,2.5961,2.6314,2.6175,2.5543,2.6026,2.6016,2.5383,2.5383,2.5994,2.7047,2.7047,2.7047,2.7059,2.7174,2.7162,2.7047,2.6803,2.671,2.6617,2.5628,2.5243,2.5161,2.4504,2.4262,2.4188,2.4291,2.4176,2.4126,0.0,0.0,0.0,0.0,0.0,0.0,0.0,0.0,0.0,0.0,0.0,0.0,0.0,0.0,0.0,0.0,0.0,0.0,0.0,0.0,0.3889,0.4281,0.4541,0.4593,0.438,0.537,0.577,0.5589,0.5715,0.5998,0.641,0.6431,0.6488,0.6627,0.6958,0.6818,0.6334,0.6334,0.6643,0.7131,0.6848,0.0,0.0,0.0,0.0,0.0,0.0,0.0,0.0,0.0,0.0,0.0,0.0,0.0,1.2085,1.2244,1.2276,1.2266,1.2297,1.275,1.322,1.3252,0.0,0.0,1.3601,0.0,0.0,0.0,0.0,0.0,0.0,0.0,0.0,0.0,1.9858,2.0979,2.3697,0.0,2.5179,2.5694,2.5749,2.546,2.4744,2.4669,2.4669,2.4669,2.5378,2.5464,2.4486,2.578,2.6003,2.5004,2.5486,2.5417,2.4557,2.4557,2.5228,2.6519,2.6519,2.6519,2.6542,2.7013,2.6967,2.6519,2.5683,2.5337,2.5223,2.397,2.3468,2.3468,2.3387,2.3387,2.3429,2.3505,2.3309,2.3094,0.0,0.0,0.0,0.0,0.0,0.0,0.0,0.0,0.0,0.0,0.0,0.0,0.0,0.0,0.0,0.0,0.0,0.0,0.0,0.0,0.4066,0.4083,0.4532,0.4911,0.5274,0.5597,0.5449,0.4804,0.5372,0.5996,0.6584,0.6544,0.6449,0.6293,0.6514,0.6497,0.6304,0.6304,0.6636,0.7175,0.7059,0.727,0.0,0.0,0.0,0.0,0.0,0.0,0.0,0.0,0.9654,1.0084,1.1006,1.1711,1.2263,1.2596,1.2668,1.2668,1.2668,1.2713,1.2791,1.2983,0.0,0.0,0.0,0.0,0.0,0.0,0.0,0.0,0.0,0.0,0.0,1.8829,1.9316,2.0314,2.2625,2.3433,2.4199,2.5207,2.5155,2.485,2.4513,2.4493,2.426,2.3763,2.3958,2.3837,2.3203,2.3745,2.3697,2.3026,2.348,2.3434,2.2815,2.2815,2.3203,2.401,2.4858,2.5498,2.6003,2.6198,2.6175,2.6003,2.516,2.4752,2.465,2.3113,2.2401,2.2401,2.1826,2.1578,2.1515,2.1511,2.1389,2.1154,0.0,0.0,0.0,0.0,0.0,0.0,0.0,0.0,0.0,0.0,0.0,0.0,0.0,0.0,0.0,0.0,0.0,0.0,0.0,0.4402,0.4454,0.4418,0.4738,0.5162,0.5618,0.5484,0.5307,0.5132,0.5392,0.596,0.6826,0.6403,0.6284,0.6435,0.6433,0.6417,0.6417,0.6417,0.6731,0.719,0.719,0.7499,0.0,0.0,0.0,0.0,0.0,0.0,0.0,0.0,0.9931,1.0384,1.1361,1.2057,1.2555,1.301,1.3042,1.295,1.295,1.2719,1.2579,0.0,0.0,0.0,0.0,0.0,0.0,0.0,0.0,0.0,0.0,0.0,0.0,0.0,1.8882,1.9851,2.1514,2.2314,2.3081,2.4008,2.3877,2.3565,2.3244,2.3266,2.3052,2.2441,2.2635,2.2524,2.2076,2.2371,2.232,2.1776,2.2143,2.1999,2.1385,2.1375,2.1537,2.1842,2.2699,2.3798,2.5068,2.5226,2.5215,2.4991,2.4259,2.3688,2.3361,2.1718,2.1111,2.1029,2.0374,2.0053,1.9989,1.9958,1.9755,1.9546,0.0,0.0,0.0,0.0,0.0,0.0,0.0,0.0,0.0,0.0,0.0,0.0,0.0,0.0,0.0,0.0,0.0,0.0,0.4634,0.4736,0.5043,0.5578,0.5341,0.5248,0.5304,0.5003,0.5506,0.6887,0.5837,0.593,0.709,0.5876,0.5967,0.7111,0.6818,0.6702,0.6709,0.6709,0.6891,0.7197,0.719,0.7706,0.8332,0.0,0.0,0.0,0.0,0.0,0.0,0.0,1.1085,1.1734,1.317,1.3289,1.2975,1.3476,1.3314,1.3016,1.3016,1.2909,0.0,0.0,0.0,0.0,0.0,0.0,0.0,0.0,0.0,0.0,1.6423,0.0,0.0,1.7401,1.8722,1.9916,2.0614,2.1767,2.2381,2.1918,2.1918,2.1505,2.0587,2.0512,2.0512,2.0503,2.1339,2.1641,2.1102,2.1957,2.2232,2.1776,2.1756,2.1375,2.0459,2.0469,2.0459,2.045,2.0088,2.1226,2.3689,2.4237,2.4193,2.3591,2.2819,2.2036,2.1203,1.9846,1.9292,1.9292,1.9301,1.9152,1.9047,1.9181,1.8839,1.8414,0.0,0.0,0.0,0.0,0.0,0.0,0.0,0.0,0.0,0.0,0.0,0.0,0.0,0.0,0.0,0.0,0.0,0.0,0.4616,0.4679,0.4997,0.5566,0.5405,0.5648,0.6486,0.6708,0.658,0.6054,0.6451,0.7006,0.7731,0.7329,0.7352,0.7723,0.7364,0.7305,0.7539,0.7197,0.7429,0.802,0.7695,0.7878,0.8332,0.0,0.0,0.0,0.0,0.0,0.0,0.0,0.0,0.0,1.2399,1.2603,1.263,1.3001,1.3071,1.3016,1.3016,1.2589,0.0,0.0,0.0,0.0,0.0,0.0,0.0,0.0,0.0,1.498,1.6113,0.0,0.0,1.7189,1.7899,1.8664,1.9562,2.0162,2.0718,2.1286,2.1075,2.078,2.0509,2.0503,2.0163,1.9311,2.0021,2.0202,1.9481,1.9951,2.0203,2.0079,2.007,1.9913,1.9687,1.9687,1.9547,1.9266,1.9135,2.0105,2.1945,2.2083,2.1882,2.1438,2.0872,2.0315,1.9674,1.8797,1.8569,1.8665,1.8964,1.9073,1.9011,1.8896,1.8619,1.8336,0.0,0.0,0.0,0.0,0.0,0.0,0.0,0.0,0.0,0.0,0.0,0.0,0.0,0.0,0.0,0.0,0.0,0.0,0.0,0.0,0.5222,0.5825,0.5707,0.5994,0.666,0.7144,0.6953,0.6082,0.6978,0.7741,0.8367,0.7968,0.7906,0.8127,0.7471,0.7533,0.8079,0.7525,0.7726,0.8373,0.8085,0.8126,0.8332,0.0,0.0,0.0,0.0,0.0,0.0,0.0,0.0,0.0,1.2373,0.0,0.0,1.2812,1.2865,1.2793,1.2589,0.0,0.0,0.0,0.0,0.0,0.0,0.0,0.0,0.0,0.0,1.4932,1.594,1.6191,0.0,1.7215,1.7707,1.8175,1.8878,1.8984,1.927,1.9809,1.972,1.9534,1.9564,1.959,1.9265,1.854,1.9081,1.9228,1.8742,1.9091,1.9301,1.9301,1.9301,1.9301,1.9301,1.9146,1.8871,1.8476,1.8311,1.8656,1.9511,2.0141,2.0297,1.9961,1.9438,1.8974,1.8535,1.8131,1.8011,1.8114,1.8366,1.8378,1.8291,1.8144,1.7987,1.7717,0.0,0.0,0.0,0.0,0.0,0.0,0.0,0.0,0.0,0.0,0.0,0.0,0.0,0.0,0.0,0.0,0.0,0.0,0.0,0.0,0.5605,0.6169,0.6243,0.6277,0.6277,0.6698,0.6897,0.6833,0.7487,0.8186,0.8902,0.8107,0.7961,0.8399,0.7484,0.7581,0.8319,0.7733,0.7861,0.8455,0.8373,0.8373,0.8414,0.7961,0.0,0.0,0.0,0.0,0.0,0.0,0.0,0.0,1.2839,1.2748,1.2464,1.2897,1.2745,1.2421,0.0,0.0,0.0,0.0,0.0,0.0,0.0,0.0,0.0,0.0,0.0,1.5565,1.6009,1.6394,1.6803,1.7344,1.7794,1.8106,1.8317,1.8206,1.8128,1.8128,1.8128,1.8128,1.8128,1.8128,1.8109,1.8073,1.844,1.866,1.866,1.9036,1.9246,1.9246,1.921,1.9173,1.9136,1.8742,1.8348,1.7954,1.7568,1.7183,1.6826,1.8433,1.9117,1.9117,1.8303,1.7852,1.7694,1.762,1.7582,1.7486,1.7486,1.742,1.7203,1.7238,1.7087,1.6918,0.0,0.0,0.0,0.0,0.0,0.0,0.0,0.0,0.0,0.0,0.0,0.0,0.0,0.0,0.0,0.0,0.0,0.0,0.0,0.0,0.5722,0.6176,0.6593,0.6834,0.6834,0.7025,0.7344,0.774,0.8286,0.877,0.9145,0.8823,0.8665,0.8631,0.8578,0.8383,0.8078,0.8171,0.8431,0.8814,0.8126,0.825,0.8814,0.848,0.8692,0.0,0.0,0.0,0.0,0.0,0.0,0.0,1.2793,1.2773,1.2541,1.2899,1.2745,1.2421,0.0,0.0,0.0,0.0,0.0,0.0,0.0,0.0,0.0,0.0,1.4679,1.5221,1.5877,1.6207,1.6572,1.7207,1.7604,1.7913,1.792,1.8024,1.8128,1.8128,1.8128,1.8128,1.8128,1.8128,1.799,1.766,1.8018,1.8256,1.8256,1.8623,1.8843,1.8843,1.854,1.8219,1.7889,1.7495,1.7101,1.6707,1.6615,1.6358,1.5991,1.732,1.7903,1.7884,1.7213,1.6803,1.659,1.6519,1.6641,1.6858,1.6858,1.7033,1.7238,1.7552,1.7329,1.6918,0.0,0.0,0.0,0.0,0.0,0.0,0.0,0.0,0.0,0.0,0.0,0.0,0.0,0.0,0.0,0.0,0.0,0.0,0.0,0.0,0.0,0.6384,0.6787,0.6979,0.6979,0.737,0.7706,0.8016,0.8746,0.0,0.0,0.0,0.0,0.8846,0.0,0.8488,0.8463,0.8269,0.8417,0.8692,0.8406,0.8488,0.8692,0.8643,0.8926,0.9421,1.0036,0.0,0.0,0.0,0.0,0.0,0.0,0.0,1.2274,1.2403,1.2353,1.2126,0.0,0.0,0.0,0.0,0.0,0.0,0.0,0.0,0.0,1.3879,1.4408,1.5003,1.5543,1.5842,1.6242,1.6838,1.7026,1.7233,1.7615,1.7579,1.7541,1.7541,1.7376,1.733,1.7523,1.7367,1.7248,1.7211,1.7596,1.7825,1.7825,1.821,1.843,1.843,1.8229,1.7917,1.7495,1.7101,1.6606,1.6019,1.6019,1.59,1.5707,1.634,1.6734,1.6908,1.636,1.6053,1.586,1.5724,1.5711,1.5843,1.5956,1.6067,1.6283,1.6681,1.6633,1.6388,0.0,0.0,0.0,0.0,0.0,0.0,0.0,0.0,0.0,0.0,0.0,0.0,0.0,0.0,0.0,0.0,0.0,0.0,0.0,0.0,0.0,0.6567,0.6867,0.7021,0.7105,0.7655,0.8012,0.8221,0.0,0.0,0.0,0.0,0.0,0.8802,0.0,0.846,0.8793,0.8362,0.8291,0.8537,0.8692,0.8651,0.8537,0.8675,0.9039,0.9542,0.9825,1.0458,1.1135,1.1266,0.0,0.0,0.0,0.0,1.1877,1.1877,1.1927,1.1828,0.0,0.0,0.0,0.0,0.0,0.0,0.0,0.0,0.0,1.3533,1.4083,1.463,1.5113,1.5341,1.5753,1.6424,1.6355,1.6441,1.7092,1.6899,1.6725,1.6798,1.6514,1.6477,1.6872,1.6615,1.6523,1.6789,1.7165,1.7394,1.7394,1.7724,1.7908,1.7908,1.7779,1.7541,1.7183,1.6725,1.6193,1.5588,1.5515,1.5524,1.5588,1.5579,1.5808,1.6193,1.5835,1.5569,1.5375,1.5174,1.5045,1.4928,1.499,1.506,1.518,1.5634,1.5762,1.572,0.0,0.0,0.0,0.0,0.0,0.0,0.0,0.0,0.0,0.0,0.0,0.0,0.0,0.0,0.0,0.0,0.0,0.0,0.5277,0.0,0.0,0.6573,0.6867,0.7189,0.7599,0.7855,0.8366,0.9121,0.0,0.0,0.0,0.0,0.0,0.8165,0.0,0.0,0.8182,0.8669,0.889,0.8854,0.816,0.8283,0.8895,0.8829,0.907,0.9618,1.0619,1.0881,1.0822,1.1535,1.1633,0.0,0.0,0.0,1.1877,1.1877,1.1977,0.0,0.0,0.0,0.0,0.0,0.0,0.0,0.0,0.0,0.0,0.0,1.2978,1.3627,1.4851,1.49,1.4928,1.5725,1.5808,1.5808,1.5918,1.5881,1.5991,1.6349,1.6349,1.6477,1.6872,1.6862,1.6707,1.6422,1.6762,1.6991,1.6991,1.7037,1.7073,1.7073,1.6386,1.5982,1.5936,1.5203,1.4946,1.5175,1.4836,1.4845,1.5175,1.4979,1.526,1.5771,1.5716,1.5569,1.5357,1.4871,1.4797,1.4876,1.4414,1.4453,1.4838,1.554,1.5583,1.5386,0.0,0.0,0.0,0.0,0.0,0.0,0.0,0.0,0.0,0.0,0.0,0.0,0.0,0.0,0.0,0.4843,0.511,0.5351,0.5511,0.593,0.6332,0.6567,0.6947,0.7337,0.7675,0.8382,0.8666,0.0,0.0,0.0,0.0,0.958,0.9483,0.0,0.0,0.0,0.0,0.0,0.8529,0.8242,0.8126,0.8332,0.8716,0.9114,0.9399,0.967,1.0588,1.0835,1.0728,1.1335,1.1427,1.1318,1.1528,0.0,0.0,0.0,0.0,0.0,0.0,0.0,0.0,0.0,0.0,0.0,0.0,0.0,1.2186,1.2529,1.2532,1.2795,1.372,1.4063,1.435,1.4814,1.5149,1.5432,1.5661,1.5689,1.5762,1.5945,1.5771,1.5881,1.6514,1.6367,1.6248,1.6312,1.6477,1.6477,1.6239,1.6221,1.6221,1.6221,1.6101,1.5927,1.5689,1.5349,1.5038,1.4772,1.4538,1.4487,1.4641,1.445,1.4727,1.5359,1.5178,1.4989,1.4772,1.4338,1.418,1.4275,1.4139,1.4204,1.4418,1.4975,1.5069,1.4966,0.0,0.0,0.0,0.0,0.0,0.0,0.0,0.0,0.0,0.0,0.0,0.0,0.0,0.0,0.0,0.0,0.5243,0.5499,0.5718,0.601,0.6258,0.6384,0.6965,0.7398,0.7594,0.8728,0.0,0.0,0.0,0.0,0.8566,0.9403,0.9522,0.0,0.9128,0.0,0.0,0.0,0.0,0.0,0.826,0.8466,0.8665,0.9306,0.9579,0.976,1.0433,1.068,1.0779,1.1148,1.1326,1.1326,1.1326,1.1326,0.0,0.0,0.0,0.0,0.0,0.0,0.0,0.0,0.0,0.0,0.0,0.0,1.2208,0.0,1.2328,1.2259,1.2697,1.3241,1.3708,1.4014,1.4392,1.4781,1.5175,1.523,1.5304,1.5515,1.5276,1.5386,1.6092,1.5872,1.5735,1.5854,1.5955,1.578,1.5258,1.5331,1.5386,1.5386,1.5698,1.5808,1.5689,1.5689,1.534,1.4662,1.4441,1.4267,1.4276,1.4116,1.4328,1.4823,1.4586,1.4364,1.4198,1.389,1.383,1.3795,1.3898,1.3947,1.399,1.4393,1.4538,1.4547,0.0,0.0,0.0,0.0,0.0,0.0,0.0,0.0,0.0,0.0,0.0,0.0,0.5149,0.5163,0.5201,0.5257,0.5585,0.5787,0.5802,0.6054,0.6067,0.5758,0.6736,0.0,0.7328,0.863,0.0,0.0,0.0,0.0,0.8958,0.8665,0.8692,0.9016,0.939,0.927,0.8716,0.0,0.0,0.0,0.0,0.0,0.0,0.0,0.9565,0.986,1.0488,1.068,1.0779,1.1148,1.1326,1.1326,1.1326,1.1326,1.1326,0.0,0.0,0.0,0.0,0.0,0.0,0.0,0.0,0.0,0.0,0.0,1.2135,1.2153,1.2094,1.2094,1.2131,1.2461,1.2865,1.3286,1.3378,1.3525,1.3919,1.3974,1.4268,1.5038,1.5111,1.5267,1.568,1.5698,1.5386,1.4662,1.4955,1.4818,1.402,1.4359,1.457,1.457,1.4598,1.4955,1.568,1.5689,1.5478,1.5065,1.4569,1.4267,1.4285,1.4285,1.4188,1.4045,1.4045,1.4028,1.401,1.389,1.383,1.3769,1.3597,1.3536,1.3588,1.3982,1.4127,1.4179,0.0,0.0,0.0,0.0,0.0,0.0,0.0,0.0,0.0,0.0,0.0,0.0,0.0,0.5207,0.5239,0.5277,0.5592,0.5718,0.5498,0.5762,0.588,0.5705,0.6572,0.7135,0.7356,0.8681,0.0,0.0,0.0,0.9687,0.9018,0.941,0.94,0.8973,0.8712,0.8621,0.8675,0.8316,0.0,0.0,0.0,0.0,0.0,0.0,0.0,0.0,0.0,0.0,1.1096,1.1225,1.1326,1.1326,1.1326,1.1326,1.1326,1.1427,0.0,0.0,0.0,0.0,0.0,0.0,0.0,0.0,0.0,1.2076,1.2076,1.2076,1.2076,1.2076,1.2076,1.2448,1.2761,1.2865,1.3112,1.3341,1.3488,1.3506,1.3616,1.391,1.4167,1.4378,1.4515,1.4772,1.4698,1.4148,1.424,1.4185,1.3901,1.4029,1.4231,1.4506,1.4753,1.5148,1.568,1.5689,1.5423,1.4969,1.4387,1.383,1.3338,1.321,1.2878,1.2381,1.2381,1.2948,1.389,1.37,1.3631,1.358,1.3511,1.3511,1.3528,1.3665,1.3462,1.3099,0.0,0.0,0.0,0.0,0.0,0.0,0.0,0.0,0.0,0.0,0.0,0.0,0.0,0.0,0.5458,0.5724,0.5937,0.5963,0.5738,0.597,0.6029,0.5887,0.6757,0.7217,0.7213,0.8635,0.0,0.0,0.0,0.0,0.0,0.9548,0.9534,0.9156,0.8366,0.8231,0.0,0.0,0.0,0.9028,0.0,0.0,0.9864,0.0,0.0,0.0,0.0,0.0,0.0,1.1065,1.1015,1.1015,1.1015,1.1175,1.1368,0.0,0.0,0.0,0.0,0.0,0.0,0.0,0.0,0.0,1.2076,0.0,1.2076,1.2076,1.2076,1.2076,1.2076,1.2337,1.2521,1.2521,1.27,1.2929,1.3066,1.3085,1.314,1.3277,1.3525,1.3681,1.3681,1.3937,1.3928,1.3506,1.3479,1.3415,1.3286,1.3396,1.3614,1.3924,1.4259,1.4582,1.4959,1.4836,1.4641,1.4319,1.3627,1.2948,1.2458,1.2258,1.2012,1.1826,1.1578,1.2197,1.3329,1.3199,1.313,1.3199,1.339,1.3199,1.2887,1.307,1.2757,1.2135,0.0,0.0,0.0,0.0,0.0,0.0,0.0,0.0,0.0,0.0,0.0,0.0,0.0,0.0,0.0,0.6521,0.6586,0.6586,0.6586,0.6666,0.6556,0.6226,0.7281,0.7522,0.6833,0.8442,0.8737,0.0,0.0,0.0,0.0,0.0,0.8976,0.9442,0.8548,0.8227,0.8438,0.0,0.9055,0.9363,0.0,1.0189,1.0473,0.0,0.0,0.0,1.1267,1.1276,0.0,1.0557,0.0,0.0,0.0,0.0,0.0,0.0,0.0,0.0,0.0,0.0,0.0,0.0,0.0,0.0,1.2076,0.0,1.2076,1.2076,1.2076,1.2076,1.2076,1.2076,1.2076,1.2076,1.2076,1.2264,1.265,1.2696,1.2853,1.3213,1.3268,1.3277,1.3259,1.3268,1.3103,1.2733,1.2696,1.2531,1.2162,1.2521,1.278,1.2937,1.305,1.3276,1.3651,1.317,1.304,1.3294,1.2284,1.1772,1.1772,1.1578,1.1826,1.2389,1.1703,1.1826,1.2451,1.2451,1.2443,1.2512,1.3199,1.2634,1.1578,1.2258,1.2074,1.1447,0.0,0.0,0.0,0.0,0.0,0.0,0.0,0.0,0.0,0.0,0.0,0.0,0.6035,0.6068,0.6138,0.6293,0.63,0.63,0.63,0.6336,0.63,0.6196,0.6775,0.7032,0.6876,0.7927,0.8236,0.7657,0.0,0.0,0.0,0.0,0.0,0.0,0.8793,0.87,0.8627,0.9037,0.0,0.9891,0.9946,1.0434,0.0,0.0,0.0,0.0,0.0,1.0395,1.0028,0.0,1.0087,1.0454,0.0,0.0,0.0,0.0,0.0,0.0,1.2076,0.0,0.0,0.0,0.0,0.0,0.0,0.0,1.2076,1.2076,1.2076,1.2076,1.2076,1.2076,1.2076,1.2076,1.2076,1.2162,1.2223,1.2291,1.2337,1.2397,1.2663,1.2727,1.2443,1.2724,1.2724,1.2319,1.2291,1.2314,1.254,1.2892,1.3296,1.3636,1.3912,1.4178,1.4296,1.3872,1.3486,1.3161,1.2221,1.1461,1.085,1.0787,1.0604,1.0351,1.0104,1.0415,1.1101,1.1586,1.1764,1.1826,1.195,1.1826,1.1509,1.1703,1.1337,1.0787,0.0,0.0,0.0,0.0,0.0,0.0,0.0,0.0,0.0,0.0,0.0,0.0,0.6344,0.653,0.6605,0.6605,0.6605,0.6605,0.6605,0.6559,0.6559,0.6605,0.7025,0.7211,0.7172,0.7827,0.803,0.7707,0.0,0.0,0.0,0.0,0.0,0.0,0.0,0.0,0.0,0.0,0.0,0.0,1.0439,0.0,0.0,1.0863,1.0557,0.0,0.0,0.0,0.9562,0.9354,0.9458,0.0,0.0,0.0,0.0,0.0,0.0,0.0,0.0,0.0,0.0,0.0,0.0,0.0,1.2076,1.2076,1.2076,1.2076,1.2076,1.2076,1.2076,1.2076,1.2076,1.2076,1.2076,1.2076,1.2076,1.2076,1.2076,1.2076,1.2328,1.2383,1.2094,1.2337,1.2374,1.2144,1.2076,1.2177,1.2457,1.2599,1.2752,1.2974,1.2997,1.3066,1.3244,1.2671,1.23,1.2033,1.1269,1.0667,1.011,1.011,1.0047,0.9926,0.9606,0.9862,1.0485,1.0598,1.0843,1.1087,1.1392,1.1142,1.0717,1.0968,1.0661,1.011,0.0,0.0,0.0,0.0,0.0,0.0,0.0,0.0,0.0,0.0,0.0,0.6391,0.6653,0.7004,0.7216,0.7216,0.7216,0.7216,0.7167,0.7076,0.707,0.7216,0.7621,0.7739,0.7523,0.7912,0.801,0.7712,0.0,0.0,0.0,0.0,0.0,0.0,0.0,0.0,0.0,0.0,0.0,1.0119,1.0887,1.1217,0.0,0.0,1.0241,1.0138,0.9666,0.9458,0.9354,0.8935,0.8778,0.0,0.0,0.0,0.0,0.0,1.1191,0.0,0.0,0.0,0.0,0.0,1.2026,0.0,1.2076,1.2076,1.2076,1.2076,1.2076,1.2076,1.2076,1.2076,1.2076,1.2076,1.2076,1.2076,1.2076,1.2076,1.2076,1.2076,1.2076,1.2076,1.2076,1.2076,1.2076,1.2076,1.2076,1.2026,1.1918,1.1739,1.1676,1.1604,1.1161,1.1054,1.1356,1.0683,1.0399,1.0422,0.998,0.9676,0.9484,0.9484,0.981,1.041,0.9746,0.9881,1.0404,0.9746,0.9862,1.0421,1.1031,1.0534,0.9548,1.0174,0.9983,0.9484,0.3749,0.0,0.0,0.0,0.0,0.0,0.0,0.0,0.0,0.0,0.0,0.6922,0.0,0.714,0.7216,0.7216,0.7216,0.7167,0.7027,0.7118,0.7167,0.7216,0.7447,0.7565,0.7523,0.7704,0.7753,0.7712,0.0,0.0,0.0,0.0,0.0,0.0,0.0,0.0,0.0,0.0,0.0,0.9955,1.038,0.0,1.0506,0.9976,0.951,0.9093,0.8988,0.8626,0.8268,0.8672,0.8778,0.8876,0.0,0.0,0.0,1.0123,0.0,0.0,0.0,0.0,0.0,0.0,1.1477,0.0,1.1977,1.2076,1.2076,1.2076,1.2076,1.2076,1.2076,1.2076,1.2076,1.2076,1.2076,1.2076,1.2076,1.2076,1.2076,1.2076,1.2076,1.2076,1.2076,1.2076,1.2076,1.2076,1.2076,1.171,1.0779,1.1124,1.1309,1.1116,1.1036,1.102,1.1158,1.0842,1.0506,1.0129,0.9887,0.9676,0.9484,0.9484,0.9657,0.9976,0.9639,0.9669,0.9976,0.9633,0.9548,0.9734,0.9856,0.9734,0.9548,0.967,0.9612,0.9484,0.426,0.0,0.0,0.0,0.0,0.0,0.0,0.0,0.0,0.0,0.0,0.0,0.0,0.0,0.0,0.7601,0.7704,0.7674,0.7515,0.766,0.7788,0.7832,0.7959,0.8047,0.8099,0.799,0.796,0.796,0.0,0.0,0.0,0.0,0.0,0.0,0.0,0.0,0.0,0.0,1.0559,1.0302,1.0362,0.0,0.9925,0.9406,0.9033,0.8778,0.8468,0.8162,0.7955,0.8262,0.8368,0.0,0.904,0.904,0.8988,0.0,0.9703,0.9703,0.0,0.0,0.0,1.0685,1.0787,0.0,0.0,1.1242,1.1351,1.1619,1.1728,1.1778,1.2076,1.2076,1.2076,1.2076,1.2076,1.2076,1.2076,1.2076,1.2076,1.2076,1.2076,1.1977,1.1728,1.1927,1.1977,1.1728,1.1401,1.0981,1.0415,1.0685,1.0818,1.0685,1.0601,1.0589,1.0587,1.0481,1.0235,0.9781,0.9857,0.9734,0.9484,0.9484,0.9628,0.9856,0.9598,0.9634,0.985,0.9592,0.9484,0.9484,0.9484,0.9484,0.9484,0.9484,0.9484,0.9484,0.4673,0.0,0.0,0.0,0.0,0.0,0.0,0.0,0.0,0.0,0.0,0.0,0.0,0.0,0.0,0.0,0.0,0.7896,0.7878,0.7962,0.807,0.821,0.8282,0.8303,0.827,0.8146,0.8037,0.7973,0.0,0.0,0.0,0.0,0.0,0.0,0.0,0.0,0.0,0.0,0.0,1.0458,0.0,0.9984,0.951,0.8883,0.862,0.8573,0.8055,0.7901,0.7901,0.7901,0.7901,0.8002,0.8468,0.8315,0.0,0.0,0.0,0.0,0.0,0.0,0.0,1.0012,1.0115,1.0269,0.0,0.0,0.0,1.1006,1.1116,1.1259,1.171,1.176,1.1792,1.1818,1.1814,1.1841,1.1975,1.1972,1.1977,1.2076,1.2076,1.1927,1.1528,1.1828,1.1828,1.1158,1.0787,1.0423,1.0115,1.0167,1.0218,1.0115,0.9916,0.9854,0.9854,0.9904,0.98,0.9557,0.9837,0.9812,0.9548,0.9548,0.9628,0.9856,0.9598,0.9634,0.985,0.9592,0.9484,0.9484,0.9484,0.9484,0.9484,0.9484,0.9484,0.9484,0.4173,0.4519,0.0,0.0,0.0,0.0,0.0,0.0,0.0,0.0,0.0,0.0,0.0,0.0,0.0,0.0,0.0,0.0,0.7329,0.0,0.0,0.7152,0.7405,0.7263,0.6747,0.7244,0.7357,0.716,0.0,0.0,0.0,0.0,0.0,0.0,0.852,0.0,0.0,0.0,0.934,0.0,0.9703,0.9666,0.0,0.8421,0.8002,0.8008,0.7901,0.7901,0.7901,0.7901,0.7901,0.7901,0.8002,0.7955,0.7955,0.8055,0.0,0.0,0.0,0.8527,0.8732,0.9354,0.951,0.9666,1.0261,0.0,1.0415,1.0474,0.0,1.0525,1.0576,0.0,0.0,1.0853,1.0723,1.0822,1.1456,1.1465,1.1578,1.2026,1.2076,1.2076,1.2026,1.2076,1.166,1.0576,1.0947,1.0549,0.9061,0.9413,0.9458,0.9008,0.8944,0.8957,0.8957,0.9178,0.9359,0.9441,0.9551,0.9693,0.974,0.9612,0.9628,0.9856,0.9598,0.9634,0.985,0.9592,0.9484,0.9484,0.9484,0.9484,0.9484,0.9484,0.9484,0.9484,0.3987,0.4589,0.0,0.0,0.0,0.0,0.0,0.0,0.0,0.0,0.0,0.0,0.0,0.0,0.0,0.0,0.0,0.7437,0.0,0.0,0.0,0.7795,0.7927,0.7847,0.7585,0.7675,0.7615,0.7502,0.7452,0.0,0.0,0.0,0.0,0.0,0.8489,0.0,0.8643,0.0,0.932,0.0,0.0,0.9138,0.0,0.8215,0.7901,0.7901,0.7901,0.7901,0.7901,0.7901,0.7901,0.7901,0.7901,0.7901,0.7901,0.7901,0.0,0.0,0.0,0.8168,0.8374,0.8738,0.889,0.9047,0.9413,0.9458,0.9562,0.9865,0.0,0.0,0.0,0.0,0.0,0.0,1.0471,1.0519,1.083,1.0797,1.1099,1.1977,1.1828,1.1628,1.1628,1.1301,1.0931,1.0415,1.0328,0.988,0.8857,0.9008,0.9008,0.8811,0.8804,0.8804,0.8804,0.9044,0.9131,0.9079,0.9246,0.9405,0.9363,0.9301,0.9472,0.9856,0.9598,0.9634,0.985,0.9592,0.9484,0.9484,0.9484,0.9484,0.9484,0.9484,0.9484,0.9484,0.3793,0.0,0.0,0.0,0.0,0.0,0.0,0.0,0.0,0.0,0.0,0.0,0.7401,0.7303,0.0,0.0,0.7353,0.7488,0.0,0.0,0.7899,0.7833,0.7986,0.7945,0.7674,0.7692,0.7668,0.7595,0.0,0.0,0.0,0.0,0.0,0.0,0.0,0.8484,0.8044,0.0,0.9119,0.9347,0.8935,0.8725,0.8521,0.8055,0.7901,0.7901,0.7901,0.7901,0.7901,0.7901,0.7901,0.7901,0.7901,0.7901,0.7901,0.7901,0.0,0.0,0.7901,0.8008,0.8168,0.8374,0.8474,0.858,0.8752,0.8804,0.8903,0.9309,0.9361,0.0,0.0,0.0,0.9982,0.9992,0.0,1.0033,1.0187,1.0207,1.0525,1.1501,1.1309,1.1057,1.1057,1.0677,1.0364,1.021,0.9814,0.9361,0.8804,0.8804,0.8804,0.8804,0.8804,0.8804,0.8804,0.8957,0.8993,0.885,0.8991,0.9057,0.9078,0.9017,0.9214,0.964,0.9454,0.952,0.9754,0.9562,0.9484,0.9484,0.9484,0.9484,0.9484,0.9484,0.9484,0.9484,0.3567,0.3995,0.0,0.0,0.0,0.0,0.0,0.0,0.0,0.0,0.0,0.0,0.0,0.0,0.0,0.0,0.0,0.6273,0.7224,0.0,0.6669,0.6458,0.6923,0.6762,0.0,0.0,0.7014,0.6735,0.0,0.0,0.0,0.0,0.0,0.0,0.0,0.8058,0.8528,0.7997,0.8187,0.883,0.883,0.8468,0.7901,0.7901,0.7901,0.7901,0.7901,0.7901,0.7901,0.7901,0.7901,0.7901,0.7901,0.7901,0.7901,0.7901,0.7901,0.7901,0.7901,0.7901,0.8008,0.8315,0.8421,0.848,0.8752,0.8804,0.8811,0.8804,0.8804,0.8857,0.8857,0.8857,0.8919,0.9012,0.892,0.0,0.0,0.9713,0.9814,1.0364,1.0415,1.0415,1.0415,1.0415,1.0167,0.9666,0.9614,0.9361,0.8804,0.8804,0.8804,0.8804,0.8804,0.8804,0.8804,0.8699,0.8736,0.8968,0.8751,0.8783,0.898,0.881,0.8837,0.9156,0.9144,0.9238,0.9496,0.9484,0.9484,0.9484,0.9484,0.9484,0.9484,0.9484,0.9484,0.9484,0.0,0.0,0.0,0.0,0.0,0.0,0.0,0.5439,0.0,0.0,0.6132,0.0,0.0,0.6338,0.6327,0.0,0.0,0.6707,0.6918,0.6918,0.0,0.6632,0.6903,0.6866,0.0,0.0,0.0,0.0,0.0,0.0,0.0,0.0,0.0,0.0,0.0,0.7689,0.0,0.0,0.0,0.0,0.0,0.8162,0.8062,0.7955,0.7901,0.7901,0.7901,0.7901,0.7901,0.7901,0.7901,0.7901,0.7901,0.7901,0.7901,0.7901,0.7901,0.7901,0.7901,0.7901,0.7955,0.8221,0.8321,0.8421,0.8633,0.8745,0.8804,0.8804,0.8804,0.8804,0.8804,0.8804,0.8823,0.8878,0.8842,0.8876,0.0,0.9096,0.9159,0.9309,0.9969,1.0261,0.9917,1.021,1.0167,0.9666,0.9614,0.9361,0.8804,0.8804,0.8804,0.8804,0.8804,0.8804,0.8804,0.8685,0.8625,0.8629,0.8413,0.8392,0.8531,0.848,0.8657,0.9126,0.9126,0.9226,0.9484,0.9484,0.9484,0.9484,0.9484,0.9484,0.9484,0.9484,0.9484,0.9484,0.3895,0.0,0.0,0.0,0.0,0.0,0.0,0.0,0.0,0.0,0.6146,0.0,0.6086,0.0,0.61,0.0,0.6317,0.6593,0.6534,0.6864,0.0,0.6539,0.6701,0.6701,0.0,0.0,0.0,0.0,0.0,0.7085,0.0,0.0,0.0,0.0,0.0,0.7628,0.7901,0.7788,0.7735,0.0,0.0,0.7568,0.7515,0.7574,0.7794,0.8008,0.7901,0.7794,0.7628,0.7628,0.7461,0.73,0.73,0.73,0.73,0.73,0.73,0.73,0.73,0.73,0.7354,0.7509,0.761,0.7771,0.8137,0.8256,0.8421,0.8593,0.8646,0.8646,0.8646,0.8699,0.8745,0.8745,0.8752,0.8804,0.0,0.8804,0.8804,0.8804,0.9413,0.971,0.9361,0.9614,0.9666,0.9361,0.9309,0.9159,0.8804,0.8804,0.8804,0.8804,0.8804,0.8804,0.8804,0.8685,0.8521,0.8421,0.8275,0.8207,0.8153,0.8153,0.8387,0.8795,0.889,0.9082,0.934,0.9442,0.9484,0.9484,0.9484,0.9484,0.9484,0.9484,0.9478,0.9414,0.3697,0.0,0.0,0.0,0.4706,0.0,0.0,0.0,0.5962,0.0,0.6285,0.6372,0.5773,0.5445,0.5277,0.5277,0.5609,0.5882,0.6154,0.6701,0.0,0.0,0.6154,0.6154,0.6154,0.0,0.0,0.0,0.0,0.0,0.0,0.0,0.0,0.0,0.7616,0.0,0.7847,0.783,0.7574,0.7031,0.7031,0.6701,0.6263,0.6864,0.7515,0.8062,0.7901,0.7467,0.7031,0.7031,0.6696,0.6209,0.6209,0.6209,0.6209,0.6209,0.6209,0.6209,0.6209,0.6209,0.6204,0.6362,0.6411,0.6573,0.7278,0.7439,0.7605,0.8203,0.8315,0.8315,0.8368,0.8474,0.8573,0.8573,0.8692,0.8804,0.8804,0.8804,0.8804,0.8804,0.8804,0.8804,0.8804,0.8804,0.8804,0.8804,0.8804,0.8804,0.8804,0.8804,0.8804,0.8804,0.8804,0.8804,0.8804,0.8685,0.8527,0.8421,0.8268,0.8062,0.7901,0.7901,0.8045,0.8303,0.8549,0.8807,0.9132,0.9346,0.9466,0.9466,0.9478,0.9484,0.9484,0.9484,0.9408,0.9274,0.3609,0.4207,0.4775,0.0,0.5285,0.5437,0.0,0.0,0.0,0.0,0.5333,0.4952,0.4618,0.4783,0.4893,0.5007,0.5281,0.0,0.0,0.0,0.0,0.5226,0.5332,0.5328,0.5226,0.5882,0.6263,0.6426,0.0,0.0,0.7085,0.0,0.0,0.0,0.0,0.0,0.7008,0.7223,0.6972,0.6426,0.6426,0.6421,0.6362,0.6421,0.6588,0.6853,0.6696,0.6534,0.6426,0.6426,0.6317,0.6209,0.6209,0.6209,0.6209,0.6209,0.6209,0.6209,0.6209,0.6209,0.6209,0.6258,0.6308,0.647,0.6627,0.674,0.6853,0.702,0.7074,0.7182,0.7658,0.7824,0.8096,0.8521,0.8692,0.8804,0.8804,0.8804,0.8804,0.8804,0.8692,0.8692,0.8804,0.8804,0.8804,0.8804,0.8804,0.8804,0.8804,0.8804,0.8804,0.8804,0.8804,0.8804,0.8804,0.8586,0.8421,0.8421,0.8109,0.7955,0.7901,0.7901,0.8045,0.8291,0.8363,0.8537,0.8795,0.9064,0.9172,0.9196,0.9406,0.9414,0.9344,0.9344,0.9151,0.8894,0.3257,0.4004,0.0,0.4952,0.0,0.5377,0.5609,0.565,0.0,0.5436,0.4961,0.0,0.4512,0.4457,0.4405,0.4353,0.4736,0.0,0.4952,0.0,0.0,0.4897,0.4783,0.4783,0.4897,0.5281,0.0,0.6209,0.0,0.0,0.7085,0.0,0.0,0.0,0.0,0.7534,0.7211,0.6855,0.6372,0.5828,0.5828,0.5714,0.0,0.5769,0.5714,0.5546,0.5496,0.5609,0.5828,0.5828,0.5664,0.5445,0.5445,0.5445,0.5445,0.5445,0.5445,0.5445,0.5445,0.5445,0.5445,0.5445,0.5496,0.5655,0.5873,0.5987,0.6095,0.6372,0.6426,0.6534,0.6853,0.7283,0.7818,0.8521,0.8685,0.8692,0.8639,0.8692,0.8692,0.8692,0.8692,0.8692,0.8804,0.8699,0.8699,0.8804,0.8745,0.8745,0.8804,0.8804,0.8804,0.8804,0.8804,0.8752,0.8692,0.858,0.8421,0.8321,0.8115,0.8008,0.7901,0.7901,0.7979,0.8129,0.8243,0.8375,0.8531,0.8789,0.9023,0.9094,0.9307,0.9344,0.9145,0.9087,0.9022,0.8894,0.2848,0.0,0.0,0.0,0.0,0.0,0.5019,0.5288,0.5441,0.5068,0.4807,0.4622,0.4677,0.4239,0.3858,0.3638,0.4079,0.4408,0.4408,0.4673,0.4838,0.4736,0.4346,0.4291,0.4736,0.457,0.5011,0.5991,0.0,0.0,0.0,0.0,0.0,0.0,0.0,0.0,0.0,0.6445,0.5649,0.5171,0.5171,0.4901,0.4574,0.5007,0.4897,0.4519,0.4519,0.4791,0.5171,0.5171,0.4897,0.4519,0.4519,0.4519,0.4519,0.4519,0.4519,0.4519,0.4519,0.4519,0.4519,0.4519,0.4519,0.4625,0.5117,0.5171,0.5332,0.5882,0.5991,0.5991,0.6046,0.6794,0.7599,0.8355,0.8461,0.8415,0.8203,0.8309,0.0,0.0,0.8527,0.0,0.8752,0.8586,0.8533,0.8804,0.8692,0.8685,0.8752,0.8752,0.8752,0.8752,0.8752,0.8692,0.8573,0.8573,0.8421,0.8221,0.8168,0.8062,0.7901,0.7901,0.7901,0.7913,0.8141,0.8237,0.8261,0.8519,0.8801,0.9094,0.9231,0.9145,0.8952,0.8835,0.8835,0.8888,0.3007,0.0,0.0,0.0,0.0,0.4453,0.4094,0.411,0.4116,0.4039,0.3564,0.3302,0.3408,0.3466,0.3527,0.3585,0.3694,0.3749,0.3749,0.3744,0.3747,0.3805,0.3635,0.3635,0.3805,0.4242,0.4574,0.4791,0.5719,0.0,0.0,0.0,0.0,0.0,0.0,0.0,0.6392,0.5069,0.4532,0.4625,0.4625,0.457,0.4519,0.4625,0.457,0.4519,0.4519,0.457,0.4625,0.4625,0.457,0.4519,0.4519,0.4519,0.4519,0.4519,0.4519,0.4519,0.4519,0.4519,0.4519,0.4519,0.4519,0.4515,0.4625,0.4625,0.468,0.4791,0.4791,0.4956,0.5391,0.6091,0.6843,0.7599,0.7706,0.7498,0.6966,0.7391,0.0,0.0,0.761,0.7824,0.8573,0.8692,0.8752,0.8804,0.8752,0.8745,0.8633,0.8633,0.858,0.848,0.848,0.8474,0.8421,0.8321,0.8221,0.8221,0.8008,0.7955,0.7901,0.7901,0.7901,0.7907,0.7949,0.7967,0.7991,0.8249,0.8639,0.9094,0.9047,0.9017,0.8952,0.8641,0.8582,0.8576,0.3145,0.0,0.0,0.0,0.0,0.3744,0.3299,0.3244,0.3355,0.3741,0.3413,0.3302,0.3627,0.3577,0.3527,0.3585,0.3585,0.3585,0.3585,0.3471,0.3471,0.3585,0.3471,0.3471,0.3585,0.386,0.419,0.4519,0.5062,0.5445,0.5714,0.615,0.0,0.0,0.0,0.6362,0.0,0.4904,0.4527,0.4356,0.4463,0.4519,0.4519,0.4519,0.4519,0.4519,0.4519,0.4519,0.4519,0.4519,0.4519,0.4519,0.4519,0.4519,0.4519,0.4519,0.4519,0.4519,0.4519,0.4519,0.4519,0.4519,0.4519,0.4519,0.4519,0.4519,0.4519,0.4519,0.4519,0.468,0.5273,0.5706,0.614,0.6843,0.695,0.6794,0.6421,0.6686,0.695,0.695,0.0,0.0,0.7978,0.809,0.8309,0.8692,0.8639,0.8586,0.8527,0.8474,0.8474,0.8421,0.8421,0.8374,0.8321,0.8215,0.8168,0.8062,0.7955,0.7901,0.7901,0.7901,0.7901,0.7901,0.7901,0.7901,0.7919,0.8183,0.8384,0.8581,0.8598,0.8657,0.8645,0.845,0.8404,0.8517,0.0,0.3021,0.0,0.0,0.2852,0.274,0.2352,0.2296,0.2631,0.3466,0.3411,0.3522,0.3901,0.3747,0.3585,0.3585,0.3585,0.3585,0.3585,0.3527,0.3471,0.3585,0.3527,0.3471,0.3585,0.3585,0.386,0.4298,0.4463,0.4736,0.5171,0.5386,0.0,0.0,0.5819,0.5542,0.5054,0.4944,0.4625,0.4193,0.4408,0.4519,0.4519,0.4519,0.4519,0.4519,0.4519,0.4519,0.4519,0.4519,0.4519,0.4519,0.4519,0.4519,0.4519,0.4519,0.4519,0.4519,0.4519,0.4519,0.4519,0.4519,0.4519,0.4519,0.4519,0.4519,0.4519,0.4519,0.4519,0.4677,0.5328,0.5378,0.5487,0.6091,0.614,0.6091,0.5878,0.615,0.6308,0.6199,0.0,0.6853,0.7224,0.7492,0.7818,0.8302,0.8362,0.8374,0.8374,0.8374,0.8321,0.8321,0.8321,0.8268,0.8115,0.8115,0.8062,0.7901,0.7901,0.7901,0.7901,0.7901,0.7901,0.7842,0.7842,0.7848,0.7812,0.8128,0.8179,0.8096,0.8183,0.8286,0.8332,0.8198,0.8226,0.8436,0.0,0.0,0.0,0.1061,0.1061,0.1117,0.1062,0.1062,0.151,0.2633,0.2965,0.3132,0.3186,0.3469,0.3585,0.3585,0.3585,0.3585,0.3585,0.3583,0.3583,0.3585,0.3583,0.3583,0.3585,0.3585,0.3638,0.3694,0.4242,0.4574,0.4743,0.5344,0.5668,0.5773,0.5382,0.5109,0.4897,0.4463,0.4249,0.4193,0.4408,0.4519,0.4519,0.4519,0.4519,0.4519,0.4519,0.4519,0.4519,0.4519,0.4519,0.4519,0.4519,0.4519,0.4519,0.4519,0.4519,0.4519,0.4519,0.4519,0.4519,0.4519,0.4519,0.4519,0.4519,0.4519,0.4519,0.4519,0.4519,0.468,0.5226,0.4897,0.4791,0.5332,0.5386,0.5226,0.4736,0.5555,0.5991,0.5441,0.6372,0.6918,0.6524,0.7503,0.7943,0.745,0.8043,0.8321,0.8221,0.8221,0.8115,0.7955,0.7955,0.7955,0.7955,0.7955,0.7901,0.7901,0.7901,0.7901,0.7901,0.7901,0.7842,0.7723,0.7723,0.7676,0.7591,0.7967,0.8066,0.7915,0.8055,0.8108,0.8131,0.7893,0.7984,0.8245,0.1062,0.1118,0.1062,0.0838,0.0838,0.0894,0.0894,0.0894,0.1062,0.1566,0.1789,0.2012,0.2293,0.2683,0.313,0.3583,0.3585,0.3585,0.3585,0.3585,0.3585,0.3585,0.3585,0.3585,0.3585,0.3585,0.3585,0.3585,0.386,0.3968,0.4027,0.4301,0.446,0.4563,0.4398,0.4288,0.4236,0.4021,0.3965,0.3965,0.4245,0.4301,0.4356,0.4463,0.4519,0.4519,0.4519,0.4519,0.4519,0.4519,0.4519,0.4519,0.4519,0.4519,0.4519,0.4519,0.4519,0.4519,0.4519,0.4519,0.4519,0.4519,0.4519,0.4519,0.4519,0.4519,0.4519,0.4519,0.4519,0.457,0.4791,0.4625,0.457,0.4791,0.4846,0.4736,0.4515,0.4901,0.5062,0.4842,0.5226,0.5609,0.5714,0.6529,0.7025,0.7187,0.7889,0.8221,0.8008,0.8008,0.8008,0.7901,0.7901,0.7901,0.7901,0.7901,0.7901,0.7901,0.7901,0.7901,0.7901,0.7901,0.7842,0.7723,0.7622,0.7574,0.7526,0.7683,0.7675,0.7516,0.7616,0.7637,0.7649,0.7591,0.7828,0.8207,0.0336,0.0391,0.0391,0.0335,0.0335,0.0391,0.0391,0.0391,0.0391,0.0391,0.0447,0.0838,0.1734,0.2124,0.2627,0.3527,0.3585,0.3585,0.3585,0.3585,0.3585,0.3585,0.3585,0.3585,0.3585,0.3585,0.3585,0.3585,0.3585,0.3641,0.3697,0.3697,0.3747,0.3796,0.3796,0.3796,0.3744,0.3796,0.3796,0.3796,0.4079,0.4193,0.4249,0.4411,0.4519,0.4519,0.4519,0.4519,0.4519,0.4519,0.4519,0.4519,0.4519,0.4519,0.4519,0.4519,0.4519,0.4519,0.4519,0.4519,0.4519,0.4519,0.4519,0.4519,0.4519,0.4519,0.4519,0.4519,0.4519,0.4519,0.4519,0.4519,0.4519,0.4519,0.4519,0.4519,0.4519,0.4625,0.4736,0.4736,0.5062,0.5281,0.5277,0.6154,0.6756,0.681,0.7622,0.8062,0.7901,0.7901,0.7901,0.7901,0.7901,0.7901,0.7901,0.7901,0.7901,0.7901,0.7901,0.7901,0.7901,0.7794,0.7735,0.7616,0.7521,0.7413,0.7413,0.7413,0.7365,0.7257,0.7257,0.7253,0.7287,0.7287,0.7639,0.811,-0.0336,-0.028,-0.0393,-0.0954,-0.0954,-0.0898,-0.0898,-0.0898,-0.0898,-0.0898,-0.0898,-0.0168,0.1623,0.179,0.2293,0.3471,0.3585,0.3585,0.3585,0.3585,0.3585,0.3585,0.3585,0.3585,0.3585,0.3585,0.3585,0.3585,0.3585,0.3697,0.3869,0.3869,0.386,0.3796,0.3796,0.3744,0.3638,0.3744,0.3796,0.3796,0.4079,0.4193,0.4249,0.4411,0.4519,0.4519,0.4519,0.4519,0.4519,0.4519,0.4519,0.4519,0.4519,0.4519,0.4519,0.4519,0.4519,0.4519,0.4519,0.4519,0.4519,0.4519,0.4519,0.4519,0.4519,0.4519,0.4519,0.4519,0.4519,0.4519,0.4519,0.4519,0.4519,0.4519,0.4519,0.4519,0.4519,0.4952,0.5277,0.5277,0.6317,0.6588,0.5441,0.6864,0.7408,0.6317,0.7246,0.7901,0.7901,0.7901,0.7901,0.7901,0.7901,0.7901,0.7901,0.7901,0.7901,0.7901,0.7901,0.7901,0.7901,0.7628,0.7521,0.7521,0.7365,0.7203,0.7139,0.7257,0.7203,0.7085,0.7085,0.7085,0.709,0.709,0.7392,0.7801,-0.101,-0.0898,-0.0842,-0.0954,-0.0954,-0.0898,-0.0898,-0.0898,-0.0898,-0.0898,-0.0898,-0.0617,0.0224,0.028,0.0504,0.1119,0.2633,0.3593,0.3593,0.3593,0.3593,0.3593,0.3593,0.3593,0.3593,0.3593,0.3593,0.3593,0.3593,0.3195,0.2462,0.3309,0.3705,0.3646,0.3646,0.3646,0.3593,0.3646,0.3646,0.3646,0.3307,0.3249,0.3363,0.3294,0.3514,0.3904,0.3904,0.4128,0.4519,0.4519,0.4519,0.4519,0.4519,0.4519,0.4519,0.4519,0.4519,0.4519,0.4519,0.4519,0.4519,0.4519,0.4519,0.4519,0.4519,0.4519,0.4519,0.4519,0.4519,0.4519,0.4519,0.4519,0.4519,0.4519,0.4519,0.4519,0.4519,0.4625,0.4736,0.4736,0.5117,0.5171,0.4791,0.5609,0.6154,0.6209,0.6918,0.7521,0.7901,0.7901,0.7901,0.7901,0.7901,0.7901,0.7901,0.7901,0.7901,0.7901,0.7788,0.7729,0.7628,0.7419,0.7365,0.7365,0.7198,0.7139,0.7085,0.7144,0.7139,0.7085,0.7085,0.7085,0.7085,0.7085,0.7386,0.7801,-0.129,-0.1178,-0.1066,-0.0898,-0.0898,-0.0898,-0.0898,-0.0898,-0.0898,-0.0898,-0.0898,-0.0842,-0.0617,-0.0393,-0.0168,-0.0,0.1401,0.2467,0.2916,0.2916,0.2916,0.2916,0.2916,0.2916,0.2916,0.2916,0.2916,0.2916,0.3375,0.2977,0.179,0.213,0.2467,0.2916,0.2916,0.2916,0.2916,0.2916,0.2916,0.2916,0.2521,0.2521,0.2689,0.2516,0.2732,0.3067,0.3181,0.3624,0.4184,0.4184,0.4294,0.4519,0.4519,0.4519,0.4519,0.4519,0.4519,0.4519,0.4519,0.4519,0.4519,0.4519,0.4519,0.4519,0.4519,0.4519,0.4519,0.4519,0.4519,0.4519,0.4519,0.4519,0.4519,0.4519,0.4519,0.4519,0.4519,0.4519,0.457,0.4791,0.4787,0.4787,0.4787,0.55,0.6046,0.6209,0.6972,0.7521,0.7901,0.7842,0.7842,0.7842,0.7788,0.7741,0.7741,0.7788,0.7788,0.7741,0.7676,0.7568,0.7521,0.7365,0.7317,0.7317,0.7144,0.7085,0.7085,0.7085,0.7085,0.7085,0.7085,0.7085,0.7085,0.7085,0.7332,0.7672,-0.1178,-0.1066,-0.1066,-0.0898,-0.0898,-0.0898,-0.0898,-0.0898,-0.0898,-0.0898,-0.0898,-0.0898,-0.0898,-0.0393,-0.0056,-0.0,-0.0,0.0504,0.1623,0.1679,0.1679,0.1679,0.1679,0.1679,0.1679,0.1679,0.1679,0.1679,0.2811,0.2755,0.1623,0.0504,0.0616,0.1679,0.1679,0.1679,0.1679,0.1679,0.1679,0.1679,0.1679,0.1847,0.2015,0.2011,0.2007,0.2063,0.2456,0.3014,0.3572,0.3569,0.3959,0.4463,0.4463,0.4519,0.4519,0.4519,0.4519,0.4519,0.4519,0.4519,0.4519,0.4519,0.4519,0.4519,0.4519,0.4519,0.4519,0.4519,0.4519,0.4519,0.4519,0.4519,0.4519,0.4519,0.4519,0.4519,0.4519,0.4519,0.468,0.5171,0.5222,0.5222,0.5222,0.6263,0.6701,0.6263,0.7187,0.7788,0.7901,0.7783,0.7723,0.7723,0.7568,0.7521,0.7521,0.7622,0.7622,0.7467,0.7467,0.7467,0.7467,0.7365,0.7263,0.7257,0.7144,0.7085,0.7085,0.7085,0.7085,0.7085,0.7085,0.7085,0.7085,0.7085,0.7241,0.7394,-0.1122,-0.101,-0.0954,-0.0898,-0.0898,-0.0898,-0.0898,-0.0898,-0.0898,-0.0898,-0.0898,-0.0898,-0.0898,-0.0785,-0.0505,-0.0056,-0.0,0.0112,0.0392,0.0448,0.0448,0.0448,0.0448,0.0448,0.0448,0.0448,0.0448,0.0448,0.0729,0.0729,0.0392,0.0112,0.0168,0.0448,0.0448,0.0448,0.0448,0.0448,0.0448,0.0448,0.0448,0.0448,0.056,0.0728,0.0951,0.1173,0.1284,0.2009,0.2959,0.3458,0.3683,0.3904,0.4349,0.4519,0.4519,0.4519,0.4519,0.4519,0.4519,0.4519,0.4519,0.4519,0.4519,0.4519,0.4519,0.4519,0.4519,0.4519,0.4519,0.4519,0.4519,0.4519,0.4519,0.4519,0.4519,0.4519,0.4519,0.4519,0.4574,0.468,0.468,0.468,0.468,0.4794,0.523,0.6154,0.6367,0.6853,0.7723,0.7723,0.7723,0.7723,0.767,0.7622,0.7521,0.7515,0.7467,0.7365,0.7365,0.7311,0.7192,0.7139,0.7144,0.7144,0.7139,0.7085,0.7085,0.7085,0.7085,0.7085,0.7085,0.7085,0.7085,0.7085,0.7241,0.7451,-0.1569,-0.14,-0.1232,-0.0953,-0.0898,-0.0898,-0.0898,-0.0898,-0.0898,-0.0898,-0.0898,-0.0898,-0.0898,-0.0898,-0.0729,-0.0224,-0.0056,-0.0,-0.0,-0.0,-0.0,-0.0,-0.0,-0.0,-0.0,-0.0,-0.0,-0.0,-0.0,-0.0,-0.0,-0.0,-0.0,-0.0,-0.0,-0.0,-0.0,-0.0,-0.0,-0.0,-0.0,-0.0,-0.0,0.0168,0.0392,0.0672,0.084,0.151,0.2402,0.2959,0.3347,0.3683,0.4294,0.4519,0.4519,0.4519,0.4519,0.4519,0.4519,0.4519,0.4519,0.4519,0.4519,0.4519,0.4519,0.4519,0.4519,0.4519,0.4519,0.4519,0.4519,0.4519,0.4519,0.4519,0.4519,0.4519,0.4519,0.4519,0.4519,0.4519,0.4519,0.4463,0.4356,0.4519,0.5007,0.5937,0.6204,0.6691,0.767,0.7616,0.7568,0.7521,0.7521,0.7467,0.7306,0.7306,0.7306,0.7317,0.7257,0.7144,0.7085,0.7085,0.7085,0.7085,0.7085,0.7085,0.7085,0.7085,0.7085,0.7139,0.7295,0.7348,0.7348,0.7348,0.7438,0.7555,-0.2237,-0.2014,-0.179,-0.1288,-0.1177,-0.1121,-0.1065,-0.1009,-0.1009,-0.0898,-0.0898,-0.0898,-0.0898,-0.0898,-0.0785,-0.0505,-0.0224,-0.0056,-0.0,-0.0,-0.0,-0.0,-0.0,-0.0,-0.0,-0.0,-0.0,-0.0,-0.0,-0.0,-0.0,-0.0,-0.0,-0.0,-0.0,-0.0,-0.0,-0.0,-0.0,-0.0,-0.0,-0.0,-0.0,-0.0,0.0168,0.0393,0.0785,0.1232,0.1734,0.2347,0.2903,0.3458,0.4015,0.4294,0.4349,0.4349,0.4408,0.4519,0.4519,0.4519,0.4519,0.4519,0.4519,0.4519,0.4519,0.4519,0.4519,0.4519,0.4519,0.4519,0.4519,0.4519,0.4519,0.4519,0.4519,0.4519,0.4519,0.4519,0.4519,0.4519,0.4519,0.4411,0.4193,0.4622,0.5109,0.5609,0.6154,0.6745,0.745,0.7515,0.7413,0.7257,0.7317,0.7257,0.7085,0.7085,0.7144,0.7257,0.7144,0.7085,0.7085,0.7085,0.7085,0.7085,0.7085,0.7085,0.7085,0.7085,0.7085,0.7139,0.7563,0.7723,0.7723,0.7777,0.783,0.7777,-0.2625,-0.2569,-0.2514,-0.2458,-0.2402,-0.2235,-0.1734,-0.1679,-0.1456,-0.0953,-0.0898,-0.0898,-0.0898,-0.0898,-0.0898,-0.0842,-0.0505,-0.0224,-0.0,-0.0,-0.0,-0.0,-0.0,-0.0,-0.0,-0.0,-0.0,-0.0,-0.0,-0.0,-0.0,-0.0,-0.0,-0.0,-0.0,-0.0,-0.0,-0.0,-0.0,-0.0,-0.0,-0.0,-0.0,-0.0,-0.0,0.0112,0.0673,0.0953,0.1121,0.1734,0.2014,0.2179,0.2792,0.3347,0.3735,0.3735,0.4125,0.4519,0.4519,0.4519,0.4519,0.4519,0.4519,0.4519,0.4519,0.4519,0.4519,0.4519,0.4519,0.4519,0.4519,0.4519,0.4519,0.4519,0.4519,0.4519,0.4519,0.4519,0.4519,0.4519,0.4519,0.4411,0.4193,0.4187,0.4405,0.5007,0.5437,0.5923,0.6578,0.7187,0.7413,0.7139,0.7257,0.7257,0.7085,0.7085,0.7085,0.7139,0.7085,0.7085,0.7085,0.7085,0.7085,0.7085,0.7085,0.7085,0.7085,0.7085,0.7085,0.7139,0.7563,0.7723,0.7723,0.8156,0.8315,0.8315,-0.3456,-0.3289,-0.307,-0.2736,-0.2681,-0.2625,-0.2347,-0.2291,-0.2179,-0.1902,-0.1846,-0.1734,-0.14,-0.14,-0.1232,-0.0954,-0.0785,-0.0617,-0.0505,-0.0168,-0.0,-0.0,-0.0,-0.0,-0.0,-0.0,-0.0,-0.0,-0.0,-0.0,-0.0,-0.0,-0.0,-0.0,-0.0,-0.0,-0.0,-0.0,-0.0,-0.0,-0.0,-0.0,-0.0,-0.0,-0.0,0.0056,0.0336,0.0617,0.0953,0.123,0.1341,0.1453,0.2176,0.2734,0.3125,0.3125,0.3793,0.4519,0.4519,0.4519,0.4519,0.4519,0.4519,0.4519,0.4519,0.4519,0.4519,0.4519,0.4519,0.4519,0.4519,0.4519,0.4519,0.4519,0.4519,0.4519,0.4519,0.4519,0.4519,0.4519,0.4408,0.4301,0.4079,0.3965,0.4128,0.4625,0.5113,0.571,0.6357,0.6966,0.7252,0.7198,0.7198,0.7144,0.7085,0.7085,0.7085,0.7085,0.7085,0.7085,0.7085,0.7085,0.7085,0.7085,0.7085,0.7085,0.7085,0.7085,0.7085,0.7192,0.783,0.8096,0.8156,0.858,0.8745,0.8712,-0.4284,-0.4012,-0.3683,-0.3236,-0.3125,-0.307,-0.2959,-0.2903,-0.2847,-0.2736,-0.2681,-0.2514,-0.2068,-0.2014,-0.179,-0.1177,-0.1121,-0.1065,-0.0898,-0.0449,-0.0168,-0.0,-0.0,-0.0,-0.0,-0.0112,-0.0168,-0.0,-0.0,-0.0056,-0.0224,-0.0056,-0.0,-0.0,-0.0,-0.0,-0.0,-0.0,-0.0,-0.0,-0.0,-0.0,-0.0,-0.0,-0.0,-0.0,-0.0,0.0336,0.0785,0.0783,0.0838,0.1006,0.1619,0.2011,0.2289,0.2458,0.3347,0.4294,0.4294,0.4405,0.4519,0.4519,0.4519,0.4519,0.4519,0.4519,0.4519,0.4519,0.4519,0.4519,0.4519,0.4519,0.4519,0.4519,0.4463,0.4408,0.4408,0.4408,0.4408,0.4408,0.4245,0.4079,0.3965,0.3852,0.3907,0.4242,0.4897,0.555,0.6091,0.675,0.7144,0.7257,0.7144,0.7085,0.7085,0.7085,0.7085,0.7085,0.7085,0.7085,0.7085,0.7085,0.7085,0.7085,0.7085,0.7085,0.7085,0.7085,0.7085,0.7198,0.8009,0.8318,0.8321,0.8871,0.9111,0.9092,-0.4846,-0.4625,-0.4463,-0.4522,-0.4463,-0.4184,-0.3627,-0.3516,-0.3347,-0.2792,-0.2681,-0.2681,-0.2625,-0.2625,-0.2402,-0.179,-0.1734,-0.1511,-0.0954,-0.0842,-0.0561,-0.0,-0.0,-0.0,-0.0,-0.0561,-0.0561,-0.0,-0.0,-0.028,-0.0842,-0.028,-0.0,-0.0,-0.0,-0.0,-0.0,-0.0,-0.0,-0.0,-0.0,-0.0,-0.0,-0.0,-0.0,-0.0,-0.0,0.0168,0.0449,0.0449,0.0617,0.0897,0.0953,0.1008,0.1118,0.1677,0.2736,0.368,0.368,0.4073,0.4519,0.4519,0.4519,0.4519,0.4519,0.4519,0.4519,0.4519,0.4519,0.4519,0.4519,0.4519,0.4519,0.4519,0.4356,0.4249,0.4249,0.4135,0.4021,0.4021,0.4024,0.3965,0.3852,0.3796,0.3744,0.3694,0.468,0.5332,0.5386,0.648,0.7085,0.7139,0.7085,0.7085,0.7085,0.7085,0.7085,0.7085,0.7085,0.7085,0.7085,0.7085,0.7085,0.7085,0.7085,0.7085,0.7085,0.7085,0.7085,0.716,0.7871,0.7984,0.786,0.8982,0.9425,0.9542,-0.4794,-0.4739,-0.4736,-0.4574,-0.4577,-0.4519,-0.4184,-0.4184,-0.4073,-0.3849,-0.3793,-0.3683,-0.3292,-0.3236,-0.3014,-0.2402,-0.2347,-0.2235,-0.2012,-0.2014,-0.151,-0.028,-0.0112,-0.0056,-0.0224,-0.0673,-0.0785,-0.0561,-0.0336,-0.028,-0.0336,-0.0505,-0.0336,-0.0,-0.0,-0.0,-0.0,-0.0,-0.0,-0.0,-0.0,-0.0,-0.0,-0.0,-0.0,-0.0,-0.0,0.0056,0.0224,0.0561,0.0785,0.0898,0.0898,0.0897,0.0952,0.1176,0.1846,0.2458,0.2458,0.3458,0.4519,0.4519,0.4519,0.4519,0.4519,0.4519,0.4519,0.4519,0.4519,0.4519,0.4519,0.4519,0.4463,0.4356,0.4249,0.4193,0.4079,0.4024,0.4024,0.4024,0.391,0.3852,0.3796,0.3744,0.3635,0.3585,0.468,0.5277,0.5277,0.6426,0.7085,0.7085,0.7085,0.7085,0.7085,0.7085,0.7085,0.7085,0.7085,0.7085,0.7085,0.7085,0.7085,0.7085,0.7085,0.7085,0.7085,0.7085,0.7085,0.7149,0.7666,0.7805,0.786,0.9015,0.9343,0.9315,-0.4794,-0.4794,-0.4736,-0.4574,-0.4632,-0.4632,-0.4519,-0.4519,-0.4519,-0.4519,-0.4519,-0.4349,-0.3904,-0.3904,-0.3627,-0.3014,-0.2959,-0.2903,-0.2736,-0.2514,-0.1956,-0.0951,-0.0504,-0.0336,-0.0392,-0.0729,-0.0898,-0.0898,-0.0673,-0.0449,-0.028,-0.0505,-0.0505,-0.028,-0.0112,-0.0,-0.0,-0.0,-0.0,-0.0,-0.0,-0.0,-0.0,-0.0,-0.0,-0.0,-0.0,0.0112,0.0336,0.0785,0.0898,0.0898,0.0898,0.0898,0.0898,0.0898,0.1176,0.1566,0.1734,0.2959,0.4239,0.4239,0.4349,0.4519,0.4519,0.4519,0.4519,0.4519,0.4519,0.4519,0.4519,0.4519,0.4408,0.4249,0.4138,0.4079,0.3965,0.3913,0.3858,0.3858,0.3799,0.3744,0.3744,0.3635,0.3585,0.3585,0.4515,0.5226,0.555,0.6534,0.7085,0.7085,0.7085,0.7085,0.7085,0.7085,0.7085,0.7085,0.7085,0.7085,0.7085,0.7085,0.7085,0.7085,0.7085,0.7085,0.7085,0.7085,0.7085,0.7144,0.7492,0.7583,0.7657,0.8726,0.9075,0.9099,-0.4846,-0.468,-0.4519,-0.4688,-0.4574,-0.4519,-0.4519,-0.4519,-0.4519,-0.4519,-0.4519,-0.4519,-0.4519,-0.4519,-0.4239,-0.368,-0.3627,-0.3347,-0.2736,-0.2179,-0.19,-0.2119,-0.1339,-0.0726,-0.0391,-0.0728,-0.0898,-0.0898,-0.0898,-0.0898,-0.0898,-0.028,-0.0336,-0.0842,-0.028,-0.0,-0.0,-0.0,-0.0,-0.0,-0.0,-0.0,-0.0,-0.0,-0.0,-0.0,-0.0,0.0393,0.0898,0.0898,0.0898,0.0898,0.0898,0.0898,0.0898,0.0898,0.0896,0.1006,0.1621,0.2681,0.3569,0.3569,0.407,0.4519,0.4519,0.4519,0.4519,0.4519,0.4519,0.4519,0.4519,0.4519,0.4408,0.4249,0.4079,0.3965,0.3796,0.3691,0.3585,0.3585,0.3585,0.3585,0.3585,0.3585,0.3585,0.3585,0.4187,0.5007,0.6154,0.6756,0.7085,0.7085,0.7085,0.7085,0.7085,0.7085,0.7085,0.7085,0.7085,0.7085,0.7085,0.7085,0.7085,0.7085,0.7085,0.7085,0.7085,0.7085,0.7085,0.7112,0.7298,0.73,0.7198,0.808,0.857,0.892,-0.4625,-0.468,-0.4736,-0.4574,-0.4632,-0.4632,-0.4519,-0.4519,-0.4519,-0.4519,-0.4519,-0.4519,-0.4519,-0.4519,-0.4408,-0.4239,-0.4239,-0.4128,-0.3959,-0.3685,-0.3519,-0.3574,-0.2406,-0.1625,-0.1398,-0.1064,-0.0898,-0.0898,-0.0898,-0.0898,-0.0898,-0.0561,-0.0393,-0.028,-0.0056,-0.0,-0.0,-0.0,-0.0,-0.0,-0.0,-0.0,-0.0,-0.0,-0.0,-0.0,-0.0,0.0112,0.0336,0.0785,0.0898,0.0898,0.0898,0.0617,0.028,0.0505,0.0729,0.0952,0.1121,0.1454,0.2009,0.3289,0.407,0.4519,0.4519,0.4519,0.4519,0.4519,0.4519,0.4519,0.4519,0.4519,0.4408,0.4249,0.4079,0.3965,0.3796,0.3691,0.3585,0.3585,0.3585,0.3585,0.3585,0.3585,0.3585,0.3585,0.4515,0.5386,0.6154,0.6756,0.7085,0.7085,0.7085,0.7085,0.7085,0.7085,0.7085,0.7085,0.7085,0.7085,0.7085,0.7085,0.7085,0.7085,0.7085,0.7085,0.7095,0.7268,0.7241,0.7112,0.7298,0.7351,0.7432,0.8259,0.8795,0.9208,-0.4515,-0.4625,-0.468,-0.4515,-0.4574,-0.4577,-0.4519,-0.4519,-0.4519,-0.4519,-0.4519,-0.4519,-0.4519,-0.4519,-0.4519,-0.4519,-0.4519,-0.4463,-0.4411,-0.4132,-0.4024,-0.4193,-0.297,-0.2298,-0.2293,-0.1625,-0.1234,-0.1176,-0.1009,-0.0898,-0.0898,-0.0785,-0.0617,-0.0336,-0.0112,-0.0,-0.0,-0.0,-0.0,-0.0,-0.0,-0.0,-0.0,-0.0,-0.0,-0.0,-0.0,-0.0,0.0056,0.0449,0.0617,0.0729,0.0842,0.0673,0.0336,0.028,0.0393,0.0561,0.0673,0.0784,0.1173,0.2287,0.3345,0.4184,0.4463,0.4519,0.4519,0.4519,0.4519,0.4519,0.4519,0.4519,0.4408,0.4249,0.4138,0.4024,0.391,0.3744,0.3691,0.3691,0.3677,0.3634,0.3588,0.3626,0.3632,0.3588,0.4737,0.5571,0.5828,0.6733,0.7187,0.7085,0.7085,0.7085,0.7085,0.7085,0.7085,0.7085,0.7085,0.7085,0.7085,0.7085,0.7139,0.7225,0.7128,0.7139,0.7235,0.7284,0.7219,0.7112,0.7298,0.7394,0.7488,0.8162,0.8759,0.9336,-0.4519,-0.4519,-0.4519,-0.4519,-0.4519,-0.4519,-0.4519,-0.4519,-0.4519,-0.4519,-0.4519,-0.4519,-0.4519,-0.4519,-0.4519,-0.4519,-0.4519,-0.4411,-0.4249,-0.3852,-0.3796,-0.4193,-0.319,-0.2798,-0.3186,-0.2298,-0.1794,-0.1677,-0.1232,-0.1009,-0.0954,-0.0953,-0.0953,-0.0898,-0.0336,-0.0056,-0.0,-0.0,-0.0,-0.0,-0.0,-0.0,-0.0,-0.0,-0.0,-0.0,-0.0,-0.0,-0.0,-0.0,0.0168,0.0393,0.0729,0.0842,0.0729,0.0168,-0.0,0.0056,0.0336,0.0672,0.0894,0.0894,0.2174,0.3624,0.4294,0.446,0.4519,0.4519,0.4519,0.4519,0.4519,0.4519,0.4463,0.4249,0.4193,0.4141,0.4039,0.3925,0.3814,0.3814,0.3803,0.3771,0.361,0.376,0.3785,0.3623,0.4848,0.5551,0.5389,0.6619,0.7268,0.7155,0.7128,0.7117,0.7117,0.7117,0.7106,0.7085,0.7085,0.7095,0.7117,0.7117,0.7252,0.741,0.7246,0.7273,0.741,0.7262,0.7165,0.7171,0.7419,0.7453,0.7506,0.7989,0.8624,0.9282,-0.4519,-0.4519,-0.4519,-0.4519,-0.4519,-0.4519,-0.4519,-0.4519,-0.4519,-0.4519,-0.4519,-0.4519,-0.4519,-0.4519,-0.4519,-0.4519,-0.4519,-0.4463,-0.4463,-0.419,-0.4135,-0.4193,-0.3858,-0.3688,-0.3799,-0.2685,-0.2073,-0.2071,-0.1959,-0.1794,-0.1628,-0.1513,-0.1232,-0.0898,-0.0785,-0.0449,-0.0,-0.0,-0.0,-0.0,-0.0,-0.0,-0.0,-0.0,-0.0,-0.0,-0.0,-0.0,-0.0,-0.0,0.0056,0.0112,0.0168,0.0168,0.0168,0.0056,-0.0,0.0056,0.0336,0.0673,0.0896,0.0894,0.1673,0.2676,0.3569,0.4184,0.4519,0.4519,0.4519,0.4519,0.4519,0.4519,0.4463,0.4463,0.4301,0.4231,0.4394,0.4237,0.4068,0.3949,0.3972,0.392,0.3776,0.3825,0.3884,0.386,0.4537,0.5195,0.5754,0.6438,0.7096,0.7645,0.7467,0.7314,0.7314,0.7314,0.7279,0.7085,0.7085,0.7187,0.7314,0.7314,0.7442,0.772,0.7666,0.7677,0.7731,0.7865,0.7812,0.7666,0.7903,0.7995,0.8072,0.8169,0.8669,0.9436,-0.4519,-0.4519,-0.4519,-0.4519,-0.4519,-0.4519,-0.4519,-0.4519,-0.4519,-0.4519,-0.4519,-0.4519,-0.4519,-0.4519,-0.4519,-0.4519,-0.4519,-0.4519,-0.4519,-0.4408,-0.4356,-0.4356,-0.419,-0.4079,-0.4079,-0.3411,-0.2907,-0.2629,-0.2575,-0.2354,-0.2018,-0.2017,-0.1903,-0.1625,-0.112,-0.0728,-0.0392,-0.0112,-0.0,-0.0,-0.0,-0.0,-0.0,-0.0,-0.0,-0.0,-0.0,-0.0,-0.0,-0.0,-0.0,-0.0,-0.0,-0.0,-0.0,-0.0,-0.0,0.0056,0.0168,0.0336,0.0561,0.084,0.1454,0.2233,0.3347,0.4073,0.4463,0.4356,0.4408,0.4484,0.4389,0.4515,0.4539,0.4487,0.4387,0.4394,0.4536,0.4324,0.425,0.4314,0.4315,0.4232,0.4114,0.3994,0.3872,0.3872,0.4603,0.5102,0.5389,0.6315,0.6997,0.7255,0.7502,0.7618,0.7618,0.7618,0.7553,0.7424,0.7537,0.7608,0.7618,0.7676,0.78,0.7957,0.7849,0.7865,0.7968,0.7978,0.7969,0.7941,0.8115,0.8275,0.8415,0.8343,0.8775,0.9588,-0.4519,-0.4519,-0.4519,-0.4519,-0.4519,-0.4519,-0.4519,-0.4519,-0.4519,-0.4519,-0.4519,-0.4519,-0.4519,-0.4519,-0.4519,-0.4519,-0.4519,-0.4519,-0.4519,-0.4519,-0.4519,-0.4519,-0.4356,-0.4249,-0.4249,-0.4135,-0.3799,-0.3241,-0.3137,-0.2914,-0.2464,-0.2519,-0.2521,-0.2411,-0.1455,-0.1118,-0.1174,-0.0448,-0.0112,-0.0,-0.0,-0.0,-0.0,-0.0,-0.0,-0.0,-0.0,-0.0,-0.0,-0.0,-0.0,-0.0,-0.0,-0.0,-0.0,-0.0,-0.0,-0.0,-0.0,-0.0,0.0111,0.0612,0.1272,0.2093,0.3097,0.3944,0.4408,0.4249,0.4356,0.4389,0.4228,0.4442,0.4552,0.4426,0.443,0.4539,0.4562,0.4426,0.4395,0.4629,0.4621,0.4562,0.444,0.4296,0.4179,0.4179,0.4971,0.5364,0.529,0.6479,0.7121,0.7002,0.7571,0.786,0.786,0.786,0.786,0.786,0.8078,0.8078,0.786,0.8039,0.8171,0.8261,0.8005,0.8032,0.8256,0.8,0.804,0.8182,0.8258,0.8465,0.8686,0.8634,0.8958,0.9582,-0.4519,-0.4519,-0.4519,-0.4519,-0.4519,-0.4519,-0.4519,-0.4519,-0.4519,-0.4519,-0.4519,-0.4519,-0.4519,-0.4519,-0.4519,-0.4519,-0.4519,-0.4519,-0.4519,-0.4519,-0.4519,-0.4519,-0.4463,-0.4463,-0.4463,-0.4463,-0.4187,-0.3685,-0.3685,-0.3577,-0.3416,-0.3019,-0.2633,-0.2247,-0.1853,-0.1962,-0.2408,-0.1233,-0.0504,-0.0,-0.0,-0.0,-0.0,-0.0,-0.0,-0.0,-0.0,-0.0,-0.0,-0.0,-0.0,-0.0,-0.0,-0.0,-0.0,-0.0,-0.0,-0.0,-0.0,-0.0,-0.0,0.0107,0.0943,0.191,0.2285,0.3338,0.4249,0.4193,0.4249,0.4255,0.4219,0.4263,0.429,0.4361,0.4386,0.4439,0.4577,0.4583,0.4577,0.4595,0.4614,0.4623,0.4562,0.5036,0.5356,0.5356,0.5894,0.6485,0.7113,0.7335,0.7663,0.8222,0.821,0.8164,0.8164,0.8164,0.8164,0.8164,0.8502,0.8491,0.8164,0.8292,0.8368,0.8463,0.8431,0.8436,0.8463,0.8431,0.842,0.8484,0.8645,0.872,0.879,0.8882,0.9017,0.9145,-0.4721,-0.4684,-0.4632,-0.4632,-0.4574,-0.4519,-0.4519,-0.4519,-0.4519,-0.4519,-0.4519,-0.4519,-0.4519,-0.4519,-0.4519,-0.4519,-0.4519,-0.4519,-0.4519,-0.4519,-0.4519,-0.4519,-0.4519,-0.4519,-0.4519,-0.4519,-0.4353,-0.4024,-0.4024,-0.3968,-0.3802,-0.3633,-0.3411,-0.3193,-0.2691,-0.2579,-0.2629,-0.1908,-0.1009,-0.0,-0.0,-0.0,-0.0,-0.0,-0.0,-0.0,-0.0,-0.0,-0.0,-0.0,-0.0,-0.0,-0.0,-0.0,-0.0,-0.0,-0.0,-0.0,-0.0,-0.0,-0.0,-0.0,0.0421,0.0997,0.1791,0.2802,0.3713,0.4274,0.4366,0.435,0.4226,0.4299,0.4387,0.435,0.4361,0.446,0.4587,0.4546,0.4592,0.4857,0.4866,0.4866,0.4866,0.5443,0.5741,0.5741,0.6334,0.6793,0.7125,0.7582,0.7842,0.8042,0.834,0.8477,0.8355,0.8355,0.842,0.8614,0.8849,0.8842,0.854,0.8667,0.8728,0.8765,0.8765,0.877,0.8641,0.8641,0.8641,0.8641,0.8641,0.8705,0.8835,0.9157,0.9215,0.9274]},{"header":{"parameterUnit":"m.s-1","parameterCategory":1,"la1":30.6,"la2":28.766,"lo1":-90.7593,"lo2":-88.6598,"dy":0.0162,"dx":0.0183,"nx":116,"ny":114,"refTime":"2023-07-31T00:00:00:Z","depth":0,"parameterNumber":3,"parameterNumberName":"V-component_of_WINDS"},"data":[0.0,0.0,0.0,0.0,0.0,0.0,0.0,0.0,0.0,0.0,0.0,0.0,0.0,0.0,0.0,0.0,0.0,0.0,0.0,0.0,0.0,0.0,0.0,0.0,0.0,0.0,0.0,0.0,0.0,0.0,0.0,0.0,0.0,0.0,0.0,0.0,0.0,0.0,0.0,0.0,0.0,0.0,0.0,0.0,0.0,0.0,0.0,0.0,0.0,0.0,0.0,0.0,0.0,0.0,0.0,0.0,0.0,0.0,0.0,0.0,0.0,0.0,0.0,0.0,0.0,0.0,0.0,0.0,0.0,0.0,0.0,0.0,0.0,0.0,0.0,0.0,0.0,0.0,0.0,0.0,0.0,0.0,0.0,0.0,0.0,0.0,0.0,0.0,0.0,0.0,0.0,0.0,0.0,0.0,0.0,0.0,0.0,0.0,0.0,0.0,0.0,0.0,0.0,0.0,0.0,0.0,0.0,0.0,0.0,0.0,0.0,0.0,0.0,0.0,0.0,0.0,0.0,0.0,0.0,0.0,0.0,0.0,0.0,0.0,0.0,0.0,0.0,0.0,0.0,0.0,0.0,0.0,0.0,0.0,0.0,0.0,0.0,0.0,0.0,0.0,0.0,0.0,0.0,0.0,0.0,0.0,0.0,0.0,0.0,0.0,0.0,0.0,0.0,0.0,0.0,0.0,0.0,0.0,0.0,0.0,0.0,0.0,0.0,0.0,0.0,0.0,0.0,0.0,0.0,0.0,0.0,0.0,0.0,0.0,0.0,0.0,0.0,0.0,0.0,0.0,0.0,0.0,0.0,0.0,0.0,0.0,0.0,0.0,0.0,0.0,0.0,0.0,0.0,0.0,0.0,0.0,0.0,0.0,0.0,0.0,0.0,0.0,0.0,0.0,0.0,0.0,0.0,0.0,0.0,0.0,0.0,0.0,0.0,0.0,0.0,0.0,0.0,0.0,0.0,0.0,0.0,0.0,0.0,0.0,0.0,0.0,0.0,0.0,0.0,0.0,0.0,0.0,0.0,0.0,0.0,0.0,0.0,0.0,0.0,0.0,0.0,0.0,0.0,0.0,0.0,0.0,0.0,0.0,0.0,0.0,0.0,0.0,0.0,0.0,0.0,0.0,0.0,0.0,0.0,0.0,0.0,0.0,0.0,0.0,0.0,0.0,0.0,0.0,0.0,0.0,0.0,0.0,0.0,0.0,0.0,0.0,0.0,0.0,0.0,0.0,0.0,0.0,0.0,0.0,0.0,0.0,0.0,0.0,0.0,0.0,0.0,0.0,0.0,0.0,0.0,0.0,0.0,0.0,0.0,0.0,0.0,0.0,0.0,0.0,0.0,0.0,0.0,0.0,0.0,0.0,0.0,0.0,0.0,0.0,0.0,0.0,0.0,0.0,0.0,0.0,0.0,0.0,0.0,0.0,0.0,0.0,0.0,0.0,0.0,0.0,0.0,0.0,0.0,0.0,0.0,0.0,0.0,0.0,0.0,0.0,0.0,0.0,0.0,0.0,0.0,0.0,0.0,0.0,0.0,0.0,0.0,0.0,0.0,0.0,0.0,0.0,0.0,0.0,0.0,0.0,0.0,0.0,0.0,0.0,0.0,0.0,0.0,0.0,0.0,0.0,0.0,0.0,0.0,0.0,0.0,0.0,0.0,0.0,0.0,0.0,0.0,0.0,0.0,0.0,0.0,0.0,0.0,0.0,0.0,0.0,0.0,0.0,0.0,0.0,0.0,0.0,0.0,0.0,0.0,0.0,0.0,0.0,0.0,0.0,0.0,0.0,0.0,0.0,0.0,0.0,0.0,0.0,0.0,0.0,0.0,0.0,0.0,0.0,0.0,0.0,0.0,0.0,0.0,0.0,0.0,0.0,0.0,0.0,0.0,0.0,0.0,0.0,0.0,0.0,0.0,0.0,0.0,0.0,0.0,0.0,0.0,0.0,0.0,0.0,0.0,0.0,0.0,0.0,0.0,0.0,0.0,0.0,0.0,0.0,0.0,0.0,0.0,0.0,0.0,0.0,0.0,0.0,0.0,0.0,0.0,0.0,0.0,0.0,0.0,0.0,0.0,0.0,0.0,0.0,0.0,0.0,0.0,0.0,0.0,0.0,0.0,0.0,0.0,0.0,0.0,0.0,0.0,0.0,0.0,0.0,0.0,0.0,0.0,0.0,0.0,0.0,0.0,0.0,0.0,0.0,0.0,0.0,0.0,0.0,0.0,0.0,0.0,0.0,0.0,0.0,0.0,0.0,0.0,0.0,0.0,0.0,0.0,0.0,0.0,0.0,0.0,0.0,0.0,0.0,0.0,0.0,0.0,0.0,0.0,0.0,0.0,0.0,0.0,0.0,0.0,0.0,0.0,0.0,0.0,0.0,0.0,0.0,0.0,0.0,0.0,0.0,0.0,0.0,0.0,0.0,0.0,0.0,0.0,0.0,0.0,0.0,0.0,0.0,0.0,0.0,0.0,0.0,0.0,0.0,0.0,0.0,0.0,0.0,0.0,0.0,0.0,0.0,0.0,0.0,0.0,0.0,0.0,0.0,0.0,0.0,0.0,0.0,0.0,0.0,0.0,0.0,0.0,0.0,0.0,0.0,0.0,0.0,0.0,0.0,0.0,0.0,0.0,0.0,0.0,0.0,0.0,0.0,0.0,0.0,0.0,0.0,0.0,0.0,0.0,0.0,0.0,0.0,0.0,0.0,0.0,0.0,0.0,0.0,0.0,0.0,0.0,0.0,0.0,0.0,0.0,0.0,0.0,0.0,0.0,0.0,0.0,0.0,0.0,0.0,0.0,0.0,0.0,0.0,0.0,0.0,0.0,0.0,0.0,0.0,0.0,0.0,0.0,0.0,0.0,0.0,0.0,0.0,0.0,0.0,0.0,0.0,0.0,0.0,0.0,0.0,0.0,0.0,0.0,0.0,0.0,0.0,0.0,0.0,0.0,0.0,0.0,0.0,0.0,0.0,0.0,0.0,0.0,0.0,0.0,0.0,0.0,0.0,0.0,0.0,0.0,0.0,0.0,0.0,0.0,0.0,0.0,0.0,0.0,0.0,0.0,0.0,0.0,0.0,0.0,0.0,0.0,0.0,0.0,0.0,0.0,0.0,0.0,0.0,0.0,0.0,0.0,0.0,0.0,0.0,0.0,0.0,0.0,0.0,0.0,0.0,0.0,0.0,0.0,0.0,0.0,0.0,0.0,0.0,0.0,0.0,0.0,0.0,0.0,0.0,0.0,0.0,0.0,0.0,0.0,0.0,0.0,0.0,0.0,0.0,0.0,0.0,0.0,0.0,0.0,0.0,0.0,0.0,0.0,0.0,0.0,0.0,0.0,0.0,0.0,0.0,0.0,0.0,0.0,0.0,0.0,0.0,0.0,0.0,0.0,0.0,0.0,0.0,0.0,0.0,0.0,0.0,0.0,0.0,0.0,0.0,0.0,0.0,0.0,0.0,0.0,0.0,0.0,0.0,0.0,0.0,0.0,0.0,0.0,0.0,0.0,0.0,0.0,0.0,0.0,0.0,0.0,0.0,0.0,0.0,0.0,0.0,0.0,0.0,0.0,0.0,0.0,0.0,0.0,0.0,0.0,0.0,0.0,0.0,0.0,0.0,0.0,0.0,0.0,0.0,0.0,0.0,0.0,0.0,0.0,0.0,0.0,0.0,0.0,0.0,0.0,0.0,0.0,0.0,0.0,0.0,0.0,0.0,0.0,0.0,0.0,0.0,0.0,0.0,0.0,0.0,0.0,0.0,0.0,0.0,0.0,0.0,0.0,0.0,0.0,0.0,0.0,0.0,0.0,0.0,0.0,0.0,0.0,0.0,0.0,0.0,0.0,0.0,0.0,0.0,0.0,0.0,0.0,0.0,0.0,0.0,0.0,0.0,0.0,0.0,0.0,0.0,0.0,0.0,0.0,0.0,0.0,0.0,0.0,0.0,0.0,0.0,0.0,0.0,0.0,0.0,0.0,0.0,0.0,0.0,0.0,0.0,0.0,0.0,0.0,0.0,0.0,0.0,0.0,0.0,0.0,0.0,0.0,0.0,0.0,0.0,0.0,0.0,0.0,0.0,0.0,0.0,0.0,0.0,0.0,0.0,0.0,0.0,0.0,0.0,0.0,0.0,0.0,0.0,0.0,0.0,0.0,0.0,0.0,0.0,0.0,0.0,0.0,0.0,0.0,0.0,0.0,0.0,0.0,0.0,0.0,0.0,0.0,0.0,0.0,0.0,0.0,0.0,0.0,0.0,0.0,0.0,0.0,0.0,0.0,0.0,0.0,0.0,0.0,0.0,0.0,0.0,0.0,0.0,0.0,0.0,0.0,0.0,0.0,0.0,0.0,0.0,0.0,0.0,0.0,0.0,0.0,0.0,0.0,0.0,0.0,0.0,0.0,0.0,0.0,0.0,0.0,0.0,0.0,0.0,0.0,0.0,0.0,0.0,0.0,0.0,0.0,0.0,0.0,0.0,0.0,0.0,0.0,0.0,0.0,0.0,0.0,0.0,0.0,0.0,0.0,0.0,0.0,0.0,0.0,0.0,0.0,0.0,0.0,0.0,0.0,0.0,0.0,0.0,0.0,0.0,0.0,0.0,0.0,0.0,0.0,0.0,0.0,0.0,0.0,0.0,0.0,0.0,0.0,0.0,0.0,0.0,0.0,0.0,0.0,0.0,0.0,0.0,0.0,0.0,0.0,0.0,0.0,0.0,0.0,0.0,0.0,0.0,0.0,0.0,0.0,0.0,0.0,0.0,0.0,0.0,0.0,0.0,0.0,0.0,0.0,0.0,0.0,0.0,0.0,0.0,0.0,0.0,0.0,0.0,0.0,0.0,0.0,0.0,0.0,0.0,0.0,0.0,0.0,0.0,0.0,0.0,0.0,0.0,0.0,0.0,0.0,0.0,0.0,0.0,0.0,0.0,0.0,0.0,0.0,0.0,0.0,0.0,0.0,0.0,0.0,0.0,0.0,0.0,0.0,0.0,0.0,0.0,0.0,0.0,0.0,0.0,0.0,0.0,0.0,0.0,0.0,0.0,0.0,0.0,0.0,0.0,0.0,0.0,0.0,0.0,0.0,0.0,0.0,0.0,0.0,0.0,0.0,0.0,0.0,0.0,0.0,0.0,0.0,0.0,0.0,0.0,0.0,0.0,0.0,0.0,0.0,0.0,0.0,0.0,0.0,0.0,0.0,0.0,0.0,0.0,0.0,0.0,0.0,0.0,0.0,0.0,0.0,0.0,0.0,0.0,0.0,0.0,0.0,0.0,0.0,0.0,0.0,0.0,0.0,0.0,0.0,0.0,0.0,0.0,0.0,0.0,0.0,0.0,0.0,0.0,0.0,0.0,0.0,0.0,0.0,0.0,0.0,0.0,0.0,0.0,0.0,0.0,0.0,0.0,0.0,0.0,0.0,0.0,0.0,0.0,0.0,0.0,0.0,0.0,0.0,0.0,0.0,0.0,0.0,0.0,0.0,0.0,0.0,0.0,0.0,0.0,0.0,0.0,0.0,0.0,0.0,0.0,0.0,0.0,0.0,0.0,0.0,0.0,0.0,0.0,0.0,0.0,0.0,0.0,0.0,0.0,0.0,0.0,0.0,0.0,0.0,0.0,0.0,0.0,0.0,0.0,0.0,0.0,0.0,0.0,0.0,0.0,0.0,0.0,0.0,0.0,0.0,0.0,0.0,0.0,0.0,0.0,0.0,0.0,0.0,0.0,0.0,0.0,0.0,0.0,0.0,0.0,0.0,0.0,0.0,0.0,0.0,0.0,0.0,0.0,0.0,0.0,0.0,0.0,0.0,0.0,0.0,0.0,0.0,0.0,0.0,0.0,0.0,0.0,0.0,0.0,0.0,0.0,0.0,0.0,0.0,0.0,0.0,0.0,0.0,0.0,0.0,0.0,0.0,0.0,0.0,0.0,0.0,0.0,0.0,0.0,0.0,0.0,0.0,0.0,0.0,0.0,0.0,0.0,0.0,0.0,0.0,0.0,0.0,0.0,0.0,0.0,0.0,0.0,0.0,0.0,0.0,0.0,0.0,0.0,0.0,0.0,0.0,0.0,0.0,0.0,0.0,0.0,0.0,0.0,-1.6647,-1.6928,0.0,0.0,0.0,0.0,0.0,0.0,0.0,0.0,0.0,0.0,0.0,0.0,0.0,0.0,0.0,0.0,0.0,0.0,0.0,0.0,0.0,0.0,0.0,0.0,0.0,0.0,0.0,0.0,0.0,0.0,0.0,0.0,0.0,0.0,0.0,0.0,0.0,0.0,0.0,0.0,0.0,0.0,0.0,0.0,0.0,0.0,0.0,0.0,0.0,0.0,0.0,0.0,0.0,0.0,0.0,0.0,0.0,0.0,0.0,0.0,0.0,0.0,0.0,0.0,0.0,0.0,0.0,0.0,0.0,0.0,0.0,0.0,0.0,0.0,0.0,0.0,0.0,0.0,0.0,0.0,0.0,0.0,0.0,0.0,0.0,0.0,0.0,0.0,0.0,0.0,0.0,0.0,0.0,0.0,0.0,0.0,0.0,0.0,0.0,0.0,0.0,0.0,0.0,0.0,0.0,0.0,0.0,0.0,0.0,0.0,0.0,0.0,0.0,0.0,-1.8383,-1.7977,0.0,0.0,0.0,0.0,0.0,0.0,0.0,0.0,0.0,0.0,0.0,0.0,0.0,0.0,0.0,0.0,0.0,0.0,0.0,0.0,0.0,0.0,0.0,0.0,0.0,0.0,0.0,0.0,0.0,0.0,0.0,0.0,0.0,0.0,0.0,0.0,0.0,0.0,0.0,0.0,0.0,0.0,0.0,0.0,0.0,0.0,0.0,0.0,0.0,0.0,0.0,0.0,0.0,0.0,0.0,0.0,0.0,0.0,0.0,0.0,0.0,0.0,0.0,0.0,0.0,0.0,0.0,0.0,0.0,0.0,0.0,0.0,0.0,0.0,0.0,0.0,0.0,0.0,0.0,0.0,0.0,0.0,0.0,0.0,0.0,0.0,0.0,0.0,0.0,0.0,0.0,0.0,0.0,0.0,0.0,0.0,0.0,0.0,0.0,0.0,0.0,0.0,0.0,0.0,0.0,0.0,0.0,0.0,-2.1164,-2.1356,-2.121,-2.1764,-2.1858,-2.1471,-2.0635,-1.9486,-1.8175,-1.845,0.0,0.0,0.0,0.0,0.0,0.0,0.0,0.0,0.0,0.0,0.0,0.0,0.0,0.0,0.0,0.0,0.0,0.0,0.0,0.0,0.0,0.0,0.0,0.0,0.0,0.0,0.0,0.0,0.0,0.0,0.0,0.0,0.0,0.0,0.0,0.0,0.0,0.0,-1.9818,-2.1482,-2.2695,-2.3445,-2.4023,0.0,0.0,0.0,0.0,0.0,0.0,0.0,0.0,0.0,0.0,0.0,0.0,0.0,0.0,0.0,0.0,0.0,0.0,0.0,0.0,0.0,0.0,0.0,0.0,0.0,0.0,0.0,0.0,0.0,0.0,0.0,0.0,0.0,0.0,0.0,0.0,0.0,0.0,0.0,0.0,0.0,0.0,0.0,-2.0213,-2.0346,0.0,0.0,0.0,0.0,0.0,0.0,0.0,0.0,0.0,0.0,0.0,0.0,0.0,-2.081,-2.0862,-2.1732,-2.2483,-2.3041,-2.3119,-2.3436,-2.3968,-2.406,-2.3969,-2.3679,-2.347,0.0,-1.9523,-1.8945,0.0,0.0,0.0,0.0,0.0,0.0,0.0,0.0,0.0,0.0,0.0,0.0,0.0,0.0,0.0,0.0,0.0,0.0,0.0,0.0,0.0,0.0,0.0,0.0,0.0,0.0,0.0,0.0,0.0,0.0,0.0,0.0,0.0,0.0,0.0,0.0,-1.9257,-1.9957,-2.0502,-2.2149,-2.314,-2.3578,-2.4317,-2.466,-2.4645,-2.4631,0.0,0.0,0.0,0.0,0.0,0.0,0.0,0.0,0.0,0.0,0.0,0.0,0.0,0.0,0.0,0.0,0.0,0.0,0.0,0.0,0.0,0.0,0.0,0.0,0.0,0.0,0.0,0.0,0.0,0.0,0.0,0.0,0.0,0.0,0.0,0.0,0.0,0.0,0.0,-2.0203,-2.0613,-2.0579,-2.0239,-1.9925,0.0,0.0,0.0,0.0,0.0,0.0,0.0,0.0,0.0,-2.1372,-2.2055,-2.2693,-2.3234,-2.3662,-2.4053,-2.4351,-2.4728,-2.4951,-2.5082,-2.5455,-2.5453,-2.5133,-2.4767,-2.39,-2.252,-2.0522,-1.9359,-1.8806,0.0,0.0,0.0,0.0,-1.8329,-1.8244,0.0,0.0,0.0,0.0,0.0,0.0,0.0,0.0,0.0,0.0,0.0,0.0,0.0,0.0,0.0,-1.803,0.0,0.0,0.0,0.0,0.0,0.0,0.0,0.0,0.0,0.0,0.0,0.0,-1.9838,-2.069,-2.162,-2.3008,-2.3824,-2.4114,-2.4714,-2.4882,-2.4692,-2.4645,-2.4647,0.0,0.0,0.0,0.0,0.0,0.0,0.0,0.0,0.0,0.0,0.0,0.0,0.0,0.0,0.0,0.0,0.0,0.0,0.0,0.0,0.0,0.0,0.0,0.0,0.0,0.0,0.0,0.0,0.0,0.0,0.0,0.0,0.0,0.0,0.0,0.0,0.0,0.0,-2.0679,-2.0728,-2.0512,-2.0444,-2.0224,0.0,0.0,0.0,0.0,0.0,0.0,-2.0895,-2.1522,-2.2347,-2.3366,-2.4053,-2.486,-2.5756,-2.5945,-2.6119,-2.635,-2.683,-2.7032,-2.6985,-2.7484,-2.7426,-2.7011,-2.6642,-2.6032,-2.5047,-2.2236,-2.0741,-2.0119,-1.9072,-1.8616,-1.8615,-1.9062,-1.9212,-1.9307,0.0,0.0,0.0,0.0,0.0,0.0,0.0,0.0,0.0,0.0,0.0,0.0,0.0,0.0,-1.8934,-1.8934,-1.9624,-2.0041,0.0,0.0,0.0,0.0,0.0,0.0,0.0,0.0,0.0,-2.087,-2.1552,-2.2325,-2.3207,-2.4046,-2.4883,-2.5682,-2.5719,-2.5358,-2.4707,-2.4692,-2.466,-2.4599,0.0,0.0,0.0,0.0,0.0,0.0,0.0,0.0,0.0,0.0,0.0,0.0,0.0,0.0,0.0,0.0,0.0,0.0,0.0,0.0,0.0,0.0,0.0,0.0,0.0,0.0,0.0,0.0,0.0,0.0,0.0,0.0,0.0,0.0,0.0,0.0,0.0,0.0,0.0,-2.0794,-2.0561,0.0,0.0,0.0,0.0,-2.0892,-2.1516,-2.2325,-2.3282,-2.3965,-2.4786,-2.5778,-2.6519,-2.7273,-2.7936,-2.8584,-2.9264,-2.9927,-2.9959,-3.0306,-3.0905,-3.0937,-3.0557,-2.9829,-3.0026,-2.8662,-2.6173,-2.3877,-2.2773,-2.2312,-2.1202,-2.0603,-2.0359,-2.0386,-2.04,-2.0481,0.0,0.0,0.0,0.0,0.0,0.0,0.0,0.0,0.0,0.0,0.0,0.0,0.0,-2.01,-2.06,-2.06,-2.0845,-2.0992,-2.0992,0.0,0.0,0.0,0.0,0.0,0.0,0.0,-2.0661,-2.1001,-2.2204,-2.2957,-2.3337,-2.4698,-2.5778,-2.6598,-2.7158,-2.755,-2.7736,-2.6652,-2.5869,-2.5383,-2.5332,-2.4927,0.0,0.0,0.0,0.0,0.0,0.0,0.0,0.0,0.0,0.0,0.0,0.0,0.0,0.0,0.0,0.0,0.0,0.0,0.0,0.0,0.0,0.0,0.0,0.0,0.0,0.0,0.0,0.0,0.0,0.0,0.0,0.0,0.0,0.0,0.0,0.0,0.0,-2.1458,-2.1783,0.0,-2.1761,-2.2222,-2.2543,-2.2609,-2.3833,-2.4742,-2.5073,-2.6172,-2.7202,-2.7955,-2.8711,-2.9406,-3.0101,-3.0354,-3.037,-3.018,-3.0638,-3.07,-3.0429,-3.0869,-3.0848,-3.0545,-3.0627,-3.0099,-2.8992,-2.7896,-2.5541,-2.2594,-2.2007,-2.1489,-2.1104,-2.1532,-2.1681,-2.1762,0.0,0.0,0.0,0.0,0.0,0.0,0.0,0.0,0.0,0.0,0.0,-1.9408,-2.0576,-2.118,-2.1622,-2.1919,-2.1669,-2.1496,-2.1504,0.0,0.0,0.0,0.0,0.0,0.0,-2.0496,-2.1264,-2.1807,-2.3042,-2.3793,-2.4143,-2.58,-2.7028,-2.7848,-2.8706,-2.9526,-3.0195,-2.9076,-2.7829,-2.658,-2.6265,-2.5764,-2.5171,0.0,0.0,0.0,0.0,0.0,0.0,0.0,0.0,0.0,0.0,0.0,0.0,0.0,0.0,0.0,0.0,0.0,0.0,0.0,0.0,0.0,0.0,0.0,0.0,0.0,0.0,0.0,0.0,0.0,0.0,0.0,0.0,0.0,0.0,0.0,-2.2359,-2.2833,-2.3307,-2.3743,-2.3998,-2.439,-2.4729,-2.5039,-2.6524,-2.7525,-2.7747,-2.909,-3.0164,-3.0844,-3.1318,-3.1792,-3.225,-3.225,-3.1918,-3.1189,-3.1647,-3.1691,-3.1401,-3.1856,-3.1847,-3.154,-3.1721,-3.1201,-3.0256,-3.0297,-2.8121,-2.4676,-2.4305,-2.378,-2.3279,-2.3678,-2.3601,-2.3282,0.0,0.0,0.0,0.0,0.0,0.0,0.0,0.0,0.0,0.0,-1.8444,-1.9594,-2.132,-2.151,-2.1893,-2.2757,-2.2046,-2.1537,-2.1534,-2.0632,0.0,0.0,0.0,0.0,-2.1145,-2.1136,-2.1882,-2.3442,-2.4213,-2.5,-2.5819,-2.7419,-2.8626,-2.9556,-3.0355,-3.1191,-3.1949,-3.1949,-3.0599,-2.8351,-2.7475,-2.6932,-2.651,0.0,0.0,0.0,0.0,0.0,0.0,0.0,0.0,0.0,0.0,0.0,0.0,0.0,0.0,0.0,0.0,0.0,0.0,0.0,0.0,0.0,0.0,0.0,0.0,0.0,0.0,0.0,0.0,0.0,0.0,0.0,0.0,0.0,-2.2147,-2.26,-2.3565,-2.4942,-2.5132,-2.5645,-2.7036,-2.6562,-2.6735,-2.8079,-2.9501,-3.0607,-3.127,-3.2613,-3.3656,-3.4304,-3.432,-3.432,-3.432,-3.432,-3.3934,-3.3128,-3.325,-3.3597,-3.4085,-3.4077,-3.3678,-3.2959,-3.3504,-3.2195,-2.9831,-3.0937,-3.0407,-2.8747,-2.809,-2.7475,-2.6962,-2.6891,-2.6119,-2.5059,0.0,0.0,0.0,0.0,0.0,0.0,0.0,0.0,0.0,0.0,-1.9339,-2.0271,-2.1385,-2.2066,-2.2767,-2.3592,-2.292,-2.243,-2.2374,0.0,0.0,0.0,0.0,0.0,-2.2307,-2.3309,-2.4049,-2.4488,-2.5812,-2.687,-2.7675,-2.8849,-3.0396,-3.2287,-3.3109,-3.4199,-3.5349,-3.5349,-3.463,-3.3273,-3.0652,-2.8847,-2.7581,0.0,0.0,0.0,0.0,0.0,0.0,0.0,0.0,0.0,0.0,0.0,0.0,0.0,0.0,0.0,0.0,0.0,0.0,0.0,0.0,0.0,0.0,0.0,0.0,0.0,0.0,0.0,0.0,0.0,0.0,0.0,0.0,-2.4612,-2.4312,-2.5249,-2.6427,-2.7704,-2.7928,-2.8142,-2.8537,-2.9311,-2.9943,-3.0322,-3.2092,-3.3245,-3.3435,-3.432,-3.4905,-3.5078,-3.5094,-3.5023,-3.4879,-3.4879,-3.4422,-3.3599,-3.4265,-3.4288,-3.3783,-3.4394,-3.4478,-3.4063,-3.3666,-3.3034,-3.2313,-3.2189,-3.1833,-3.1197,-2.9175,-2.8025,-2.7481,-2.7027,-2.6576,-2.6321,0.0,0.0,0.0,0.0,0.0,0.0,0.0,0.0,0.0,0.0,-1.9676,-2.0512,-2.1358,-2.1932,-2.2585,-2.339,-2.269,-2.222,-2.2201,0.0,0.0,0.0,0.0,-2.2921,-2.3745,-2.4922,-2.5834,-2.6494,-2.7724,-2.8766,-2.9614,-3.1231,-3.2711,-3.4015,-3.5222,-3.6374,-3.7368,-3.7368,-3.7243,-3.6835,-3.4922,-3.2544,-3.0018,-2.8886,-2.7877,-2.6962,-2.6074,-2.5513,-2.5111,-2.4756,0.0,0.0,0.0,0.0,0.0,0.0,0.0,0.0,0.0,0.0,0.0,0.0,0.0,0.0,0.0,0.0,0.0,0.0,0.0,0.0,0.0,0.0,0.0,0.0,-2.6789,-2.8087,-2.9214,-2.8985,-2.9086,-3.0215,-3.0641,-3.1112,-3.1697,-3.2203,-3.2629,-3.2945,-3.4352,-3.5189,-3.5189,-3.5796,-3.6117,-3.6117,-3.609,-3.5891,-3.543,-3.543,-3.5029,-3.4188,-3.4763,-3.4847,-3.4523,-3.4984,-3.5171,-3.4994,-3.4519,-3.3952,-3.3367,-3.2982,-3.2644,-3.225,0.0,0.0,0.0,0.0,-2.7467,-2.742,0.0,0.0,0.0,0.0,0.0,0.0,0.0,0.0,0.0,0.0,0.0,-2.0514,-2.1321,-2.1464,-2.1799,-2.2614,-2.1895,-2.1426,0.0,0.0,0.0,-2.1765,-2.3351,-2.4562,-2.5252,-2.63,-2.7477,-2.8863,-2.976,-3.0725,-3.1711,-3.3935,-3.5153,-3.5552,-3.7053,-3.8126,-3.8766,-3.8742,-3.8983,-3.9416,-3.9268,-3.6891,-3.3231,-3.1615,-3.0522,-2.9686,-2.8626,-2.7337,-2.6086,-2.5921,0.0,0.0,0.0,0.0,0.0,0.0,0.0,0.0,0.0,0.0,0.0,0.0,0.0,0.0,0.0,0.0,0.0,0.0,0.0,0.0,0.0,0.0,0.0,0.0,-3.0221,-3.2457,-3.5005,-3.3305,-3.2059,-3.2761,-3.3308,-3.4058,-3.5268,-3.4873,-3.481,-3.5458,-3.6153,-3.6474,-3.6474,-3.6939,0.0,0.0,0.0,-3.6687,-3.5988,-3.5973,-3.5618,-3.4911,-3.5027,-3.5338,-3.5825,-3.5825,-3.5809,-3.5749,-3.5567,-3.4783,-3.3629,-3.3475,-3.2942,-3.2342,-3.2272,-3.1879,-3.1115,-2.9291,-2.8624,-2.8502,0.0,0.0,0.0,0.0,0.0,0.0,0.0,0.0,0.0,-1.8869,-1.9692,-2.054,-2.1387,-2.1445,-2.1742,-2.2545,-2.1866,-2.1426,0.0,0.0,-2.2104,-2.3458,-2.4514,-2.5457,-2.6282,-2.8326,-2.9522,-2.9832,-3.1397,-3.294,-3.4445,-3.509,-3.6725,-3.9185,-3.9509,-4.0383,-4.159,-4.1374,-4.1342,-4.1338,-4.0374,-3.8377,-3.5795,-3.4141,-3.299,-3.2024,-2.9927,-2.9755,-3.0364,-2.9066,-2.879,-2.8741,-2.7435,0.0,0.0,0.0,0.0,0.0,0.0,0.0,0.0,0.0,0.0,0.0,0.0,0.0,0.0,0.0,0.0,0.0,0.0,0.0,0.0,-3.1485,-3.3304,-3.4888,-3.6236,-3.6932,-3.705,-3.6206,-3.5812,-3.5562,-3.5419,-3.5774,-3.6074,-3.6216,-3.6731,-3.7065,-3.7065,-3.7027,-3.706,-3.706,-3.6999,-3.686,-3.6522,-3.6522,-3.6399,-3.6153,-3.6275,0.0,-3.6353,-3.6461,-3.6461,-3.6322,-3.5722,-3.5337,-3.4999,-3.3759,-3.2802,-3.2038,-3.1595,-3.0999,-3.0343,-2.9925,-2.9761,-2.9761,0.0,0.0,0.0,0.0,0.0,0.0,0.0,0.0,0.0,0.0,-1.9723,-2.0376,-2.0802,-2.0813,-2.0967,-2.1359,-2.1024,0.0,0.0,-2.1866,-2.2671,-2.3947,-2.5646,-2.6751,-2.7193,-2.9596,-3.1044,-3.1446,-3.3149,-3.4657,-3.5921,-3.6861,-3.838,-4.0326,-4.0747,-4.1742,-4.3092,-4.2957,-4.3077,-4.3288,-4.2501,-4.1249,-3.9602,-3.7376,-3.5784,-3.4537,-3.3334,-3.2371,-3.1631,-3.1224,-3.1006,-3.077,-2.9955,-2.9292,-2.8492,0.0,0.0,0.0,0.0,0.0,0.0,0.0,0.0,0.0,0.0,0.0,0.0,0.0,0.0,-2.7609,0.0,0.0,-3.211,-3.4766,-3.6104,-3.7247,-3.8508,-3.9265,-3.9158,-3.7632,-3.7551,-3.746,-3.7125,-3.7109,-3.7144,-3.7144,-3.714,-3.7105,-3.7105,-3.6923,-3.6862,-3.6862,-3.68,-3.6677,-3.66,-3.66,-3.6554,-3.6492,-3.6554,-3.6538,-3.6492,-3.6554,-3.6538,-3.6476,-3.6061,-3.5661,-3.5262,-3.4042,-3.3256,-3.2821,-3.2167,-3.1604,-3.1029,-3.0598,-3.0667,-3.0866,0.0,0.0,0.0,0.0,0.0,0.0,0.0,0.0,0.0,0.0,-1.961,-2.0038,-2.0178,-2.0182,-2.0183,0.0,0.0,0.0,0.0,-2.2297,-2.316,-2.4185,-2.6515,-2.78,-2.78,-3.0465,-3.2138,-3.2804,-3.4664,-3.6006,-3.6888,-3.8575,-3.9898,-4.0933,-4.1796,-4.291,-4.41,-4.4056,-4.4317,-4.4745,-4.4186,-4.3639,-4.292,-4.0311,-3.842,-3.6999,-3.6205,-3.4268,-3.2164,-3.2644,-3.2367,-3.1869,-3.2035,-3.2023,-3.1415,-2.856,-2.7591,0.0,0.0,0.0,0.0,0.0,0.0,0.0,0.0,0.0,-2.6713,-2.8092,-2.9455,-3.0817,-3.2159,-3.3675,-3.5397,-3.7533,-3.8425,-3.9243,-4.0477,-4.0583,-3.9983,-3.8534,-3.8825,-3.9044,-3.8805,-3.8343,-3.8059,-3.8059,-3.7492,-3.7105,-3.7105,-3.6846,-3.6662,-3.6662,-3.6554,-3.6492,-3.6492,-3.6492,-3.6492,-3.6492,-3.6492,-3.6492,-3.6492,-3.6492,-3.6414,-3.6414,-3.6211,-3.5766,-3.5034,-3.4349,-3.388,-3.3607,-3.3066,-3.2598,-3.2189,-3.1442,-3.1543,-3.1951,0.0,0.0,0.0,0.0,0.0,0.0,0.0,0.0,0.0,0.0,0.0,0.0,0.0,0.0,0.0,0.0,0.0,0.0,-2.245,-2.2642,-2.3409,-2.5001,-2.6822,-2.78,-2.78,-3.1002,-3.2708,-3.2804,-3.5258,-3.6907,-3.7789,-3.9476,-4.1106,-4.2659,-4.3521,-4.4384,-4.5208,-4.502,-4.4985,-4.4934,-4.3596,-4.3431,-4.3744,-4.1654,-4.0375,-3.9206,-3.5568,-3.4072,-3.3721,-3.3038,-3.2742,-3.2798,-3.3511,-3.3732,-3.3055,-2.957,0.0,-2.689,-2.4149,-2.4034,-2.5169,-2.713,-2.7522,-2.8255,0.0,0.0,-3.1265,-3.2093,-3.2972,-3.3795,-3.45,-3.5908,-3.7408,-3.8909,-3.9799,-4.0346,-4.05,-4.0534,-4.0402,-4.0069,-3.9732,-3.9348,-3.886,-3.875,-3.8694,-3.8694,-3.7969,-3.7546,-3.7546,-3.6876,-3.6492,-3.6492,-3.6492,-3.6492,-3.6492,-3.6492,-3.6492,-3.6492,-3.6492,-3.6492,-3.6492,-3.6336,-3.6211,-3.6211,-3.6085,-3.5516,-3.4755,-3.468,-3.4179,-3.3484,-3.341,-3.3396,-3.3261,-3.2557,-3.2751,-3.3304,0.0,0.0,0.0,0.0,0.0,0.0,0.0,0.0,0.0,0.0,0.0,0.0,0.0,0.0,0.0,0.0,0.0,0.0,-2.2526,-2.2651,-2.3407,-2.513,-2.6355,-2.7223,-2.772,-3.0571,-3.2273,-3.2752,-3.5755,-3.7419,-3.7821,-3.9543,-4.1246,-4.2852,-4.3216,-4.4096,-4.5339,-4.5256,-4.5087,-4.4868,-4.4081,-4.3594,-4.3032,-4.0627,-3.894,-3.7669,-3.5929,-3.4134,0.0,0.0,-3.2672,-3.282,-3.3629,-3.3556,-3.2629,-2.9716,-2.8649,0.0,-2.679,-2.6982,-2.7833,0.0,-3.0131,-3.1424,-3.2804,-3.3045,-3.3355,-3.4524,-3.5685,-3.6722,-3.7449,-3.8459,-3.9337,0.0,-4.0231,-4.0387,-4.0387,-4.0337,-4.0068,-3.9595,-3.9378,-3.9328,-3.9558,-3.9222,-3.8882,-3.8535,-3.7854,-3.7326,-3.6982,-3.6662,-3.6492,-3.6492,-3.6492,-3.6492,-3.6492,-3.6492,-3.6492,-3.6492,-3.6352,-3.6352,-3.6336,-3.6148,-3.6022,-3.5879,-3.5831,-3.5552,-3.5198,-3.5198,-3.497,-3.4622,-3.4218,-3.4307,-3.4532,-3.3469,-3.3499,-3.4068,0.0,0.0,0.0,0.0,0.0,0.0,0.0,0.0,0.0,0.0,0.0,0.0,0.0,0.0,0.0,0.0,0.0,0.0,0.0,-2.2276,-2.304,-2.4771,-2.5619,-2.6574,-2.7682,-2.9956,-3.1656,-3.2691,-3.5592,-3.7254,-3.7731,-3.9489,-4.1074,-4.245,-4.2698,-4.3463,-4.4609,-4.4609,-4.4465,-4.4227,-4.3945,-4.3069,-4.1624,-3.9155,-3.6878,-3.4972,-3.4715,-3.2797,0.0,0.0,-3.1249,-3.1407,-3.2433,-3.2525,-3.181,-2.9593,-2.8494,-2.8031,-2.8258,0.0,0.0,-3.1057,-3.317,-3.4958,-3.4722,-3.5509,-3.6492,-3.7442,-3.8448,-3.9324,-3.9839,-4.0214,-4.0436,-4.0387,-4.0288,-4.0238,-4.0238,-4.0018,-3.958,-3.9056,-3.8819,-3.8903,-3.9428,-3.9105,-3.8867,-3.8778,-3.7911,-3.7298,-3.6997,-3.6662,-3.6492,-3.6492,-3.6429,-3.6414,-3.6414,-3.6367,-3.6367,-3.6367,-3.6211,-3.6148,-3.6148,-3.5958,-3.5831,-3.5638,-3.5638,-3.5604,-3.5504,-3.5504,-3.5504,-3.5459,-3.4966,-3.507,-3.5385,-3.4412,-3.4352,-3.4756,0.0,0.0,0.0,0.0,0.0,0.0,0.0,0.0,0.0,0.0,0.0,0.0,0.0,0.0,0.0,0.0,0.0,0.0,0.0,-2.1445,-2.219,-2.3881,-2.4771,-2.6013,-2.7663,-2.9363,-3.1045,-3.2691,-3.4426,-3.6107,-3.7731,-3.9489,-4.075,-4.1571,-4.2412,-4.2832,-4.2889,-4.2889,-4.287,-4.2811,-4.25,-4.1363,-3.9671,-3.7694,-3.4843,-3.1714,-3.0722,0.0,0.0,0.0,-2.7826,-2.8054,-2.968,-3.0721,0.0,-2.929,-2.7196,-2.5756,0.0,0.0,-3.0823,-3.3894,-3.6768,-3.8903,-3.9155,-4.071,-4.199,-4.1525,-4.1476,-4.146,-4.1376,-4.0764,-4.0238,-4.0121,-4.0138,-4.0138,-4.0138,-3.9478,-3.9022,-3.8988,-3.8379,-3.7939,0.0,-3.8054,-3.8635,-3.9969,-3.8407,-3.7621,-3.8238,-3.7118,-3.6492,-3.6492,-3.6274,-3.6211,-3.6211,-3.6085,-3.6037,-3.6037,-3.6037,-3.6037,-3.5973,-3.5831,-3.5653,-3.5504,-3.5504,-3.5504,-3.5504,-3.5504,-3.5504,-3.5504,-3.5489,-3.5489,-3.5504,-3.5459,-3.5459,-3.5474,0.0,0.0,0.0,0.0,0.0,0.0,0.0,0.0,0.0,0.0,0.0,0.0,0.0,0.0,0.0,0.0,0.0,0.0,0.0,-2.1417,-2.1885,-2.2983,-2.3861,-2.4874,-2.6032,-2.7682,-2.9363,-3.1045,-3.2726,-3.414,-3.5267,-3.6986,-3.8209,-3.9011,-3.989,-4.0597,-4.1151,-4.1151,-4.1644,-4.2316,-4.0536,-3.9721,-3.9081,-3.5002,-3.2028,-2.9765,0.0,0.0,0.0,0.0,0.0,-2.6202,-2.7301,-2.7465,-2.7242,-2.7228,-2.741,-2.808,-3.0206,0.0,-3.603,-3.7855,-4.0219,-4.2123,-4.214,-4.2579,-4.2725,-4.1698,-4.0237,-3.8967,-3.8458,-3.7682,-3.7343,-3.7851,-3.8717,-3.9529,-4.0003,-3.9868,-3.936,-3.8396,-3.8058,0.0,0.0,0.0,0.0,-3.8772,-3.864,-3.8518,-3.8294,-3.7895,-3.7445,-3.6906,-3.6845,-3.6554,-3.6085,-3.6037,-3.5973,-3.5973,-3.5831,-3.5782,-3.5683,-3.5604,-3.5554,-3.5504,-3.5504,-3.5504,-3.5504,-3.5504,-3.5504,-3.5504,-3.5359,-3.5294,-3.5294,-3.5294,-3.5213,-3.5148,0.0,0.0,0.0,0.0,0.0,0.0,0.0,0.0,0.0,0.0,0.0,0.0,0.0,0.0,0.0,0.0,0.0,0.0,0.0,0.0,-2.134,-2.2152,-2.2715,-2.3556,-2.4713,-2.5791,-2.7154,-2.8802,-3.0228,-3.1488,-3.2638,-3.4353,-3.542,-3.5954,-3.712,-3.7789,-3.8056,-3.8056,-3.8366,-3.8724,-3.7128,-3.6158,-3.5277,-3.1875,-2.951,0.0,0.0,0.0,0.0,0.0,0.0,-2.479,-2.5321,-2.5499,-2.5717,-2.6518,-2.8124,-3.0217,-3.2902,-3.6139,-3.9127,-4.0726,-4.2904,-4.4426,-4.343,-4.3568,-4.336,-4.1341,-3.9308,-3.7601,-3.6552,-3.552,-3.4827,-3.4793,-3.6028,-3.7347,-3.8345,-3.8481,-3.843,-3.8311,-3.8075,-3.7905,0.0,0.0,0.0,-3.8788,-3.8817,-3.8756,-3.8574,-3.8294,-3.7895,-3.737,-3.731,-3.7071,-3.6554,-3.6258,-3.6022,-3.5797,-3.5718,-3.5604,-3.5504,-3.5504,-3.5504,-3.5504,-3.5504,-3.5504,-3.5504,-3.5439,-3.5359,-3.5359,-3.5148,-3.5082,-3.5082,-3.5082,-3.5001,-3.4935,0.0,0.0,0.0,0.0,0.0,0.0,0.0,0.0,0.0,0.0,0.0,0.0,0.0,0.0,0.0,0.0,0.0,0.0,0.0,0.0,0.0,-2.1302,-2.1369,-2.2142,-2.3736,-2.3812,-2.4572,-2.6104,-2.7033,-2.8273,-2.9813,-3.1535,-3.2367,-3.2443,-3.4085,-3.4391,-3.3738,-3.3738,-3.3322,-3.2657,-3.2542,-3.1073,-2.8973,-2.859,0.0,0.0,0.0,0.0,0.0,0.0,0.0,0.0,0.0,-2.5081,-2.6566,-2.7453,-2.9471,-3.2137,-3.5204,-3.7863,-4.0309,-4.2539,-4.4802,-4.5864,-4.3385,-4.3863,-4.393,-4.0661,-3.8717,-3.7161,0.0,0.0,-3.2814,-3.1529,-3.2577,-3.4117,-3.5639,-3.5842,-3.6637,0.0,0.0,0.0,0.0,0.0,0.0,-4.002,-3.892,-3.8439,-3.899,-3.8367,-3.7985,-3.7943,-3.7722,-3.7648,-3.7589,-3.6829,-3.6133,-3.5619,-3.5554,-3.5569,-3.5569,-3.5504,-3.5504,-3.5504,-3.5504,-3.5504,-3.5439,-3.5294,-3.5213,-3.5148,-3.5001,-3.4868,-3.4935,-3.4868,-3.4868,-3.4935,0.0,0.0,0.0,0.0,0.0,0.0,0.0,0.0,0.0,0.0,0.0,0.0,0.0,0.0,0.0,0.0,0.0,0.0,0.0,0.0,0.0,0.0,0.0,0.0,0.0,0.0,0.0,0.0,0.0,-2.4962,-2.5437,-2.7086,-2.7847,-2.7904,-2.8969,-2.9688,-3.0034,-3.0034,-3.0956,-3.2237,0.0,-2.9876,-3.0017,0.0,0.0,0.0,0.0,0.0,0.0,0.0,0.0,0.0,0.0,-2.758,-2.9264,-3.1274,-3.4009,-3.683,-3.8771,-4.194,-4.482,-4.5436,-4.6051,-4.611,-4.4717,-4.3406,-4.1695,-3.9027,-3.5915,-3.3161,0.0,0.0,0.0,-3.2562,-3.453,0.0,-3.8667,-3.8937,0.0,-3.8857,0.0,-3.8538,-3.8421,-3.8539,0.0,0.0,-3.9504,-3.9345,-3.9504,-3.9329,-3.899,-3.8351,-3.8278,-3.7994,-3.7488,-3.7251,-3.7071,-3.6906,-3.643,-3.6196,-3.6133,-3.5748,-3.5504,-3.5504,-3.5504,-3.5439,-3.5294,-3.5213,-3.5213,-3.5148,-3.4898,-3.4817,-3.4868,-3.4817,-3.4683,-3.4549,0.0,0.0,0.0,0.0,0.0,0.0,0.0,0.0,0.0,0.0,0.0,0.0,0.0,0.0,0.0,0.0,0.0,0.0,0.0,0.0,0.0,0.0,0.0,0.0,0.0,0.0,0.0,0.0,0.0,0.0,0.0,-2.3974,-2.4575,-2.4619,-2.5866,-2.6436,-2.6536,-2.6916,0.0,0.0,0.0,0.0,0.0,0.0,0.0,0.0,0.0,0.0,0.0,0.0,0.0,-2.7001,-2.8504,-3.0079,-3.1836,-3.4262,0.0,-3.955,-4.1126,-4.3969,-4.6413,-4.6069,-4.625,-4.5701,-4.2644,-4.1209,-3.946,-3.562,-3.285,0.0,-2.9177,0.0,0.0,0.0,0.0,0.0,-3.73,-3.8096,-3.8738,0.0,-3.9244,0.0,-3.9075,-3.9023,-3.9156,0.0,-3.989,-4.0074,-4.0074,-4.0021,-3.979,-3.9374,-3.8991,-3.8535,-3.7822,-3.7764,-3.7648,-3.7429,-3.7011,-3.6845,-3.6845,-3.6196,-3.591,-3.5846,-3.5619,-3.5619,-3.5703,-3.5638,-3.5816,-3.5991,-3.5608,-3.535,-3.5154,-3.5001,-3.4668,-3.4481,0.0,0.0,0.0,0.0,0.0,0.0,0.0,0.0,0.0,0.0,0.0,0.0,0.0,0.0,0.0,0.0,0.0,0.0,0.0,0.0,0.0,0.0,0.0,0.0,0.0,0.0,0.0,0.0,0.0,0.0,0.0,0.0,0.0,0.0,0.0,0.0,0.0,0.0,0.0,0.0,0.0,0.0,0.0,0.0,0.0,0.0,0.0,0.0,0.0,0.0,-2.8286,-2.8323,-3.084,-3.2741,-3.4516,-3.6906,-3.9224,-4.1343,-4.2936,-4.491,-4.6305,-4.549,-4.554,-4.4417,-3.9133,-3.8081,-3.676,-3.1664,0.0,-2.8934,-2.7559,-2.7838,-2.7968,-2.7,0.0,-3.2589,-3.4438,-3.5833,-3.7446,-3.9597,-3.9729,-3.9677,-3.9625,-3.9537,-3.9501,-3.9501,-4.0184,-4.0513,-4.0413,-4.0342,-4.0233,-4.0233,-3.9603,-3.9023,-3.8463,-3.8407,-3.8181,-3.7663,-3.7546,-3.7546,-3.7488,-3.6829,-3.6538,-3.6492,-3.5973,-3.6022,-3.6477,-3.6305,-3.6538,-3.6995,-3.6508,-3.6072,-3.5642,-3.5415,-3.4986,-3.4668,0.0,0.0,0.0,0.0,0.0,0.0,0.0,0.0,0.0,0.0,-1.5264,0.0,0.0,0.0,0.0,0.0,0.0,0.0,0.0,0.0,0.0,0.0,0.0,0.0,0.0,0.0,0.0,0.0,0.0,0.0,0.0,0.0,0.0,0.0,0.0,0.0,0.0,0.0,0.0,0.0,0.0,0.0,0.0,0.0,0.0,0.0,0.0,0.0,0.0,0.0,-2.9391,-3.0912,-3.4009,-3.6073,-3.783,-4.0202,-4.2122,-4.3824,-4.5436,-4.6178,-4.6305,-4.549,-4.3624,-4.1109,-3.7849,-3.4952,0.0,0.0,-2.7905,-2.663,-2.5763,-2.6214,-2.7231,-2.8848,0.0,0.0,0.0,0.0,-3.7886,0.0,0.0,0.0,0.0,0.0,0.0,0.0,-4.0022,-4.0171,-3.9557,-3.9524,-3.9471,-3.9471,-3.9392,-3.9255,-3.9148,-3.9148,-3.9077,-3.8969,-3.8423,-3.8108,-3.8108,-3.7546,-3.7251,-3.7251,-3.7131,-3.7011,-3.6951,-3.6631,-3.6615,-3.6615,-3.615,-3.6039,-3.6054,-3.5864,-3.5721,-3.5657,0.0,0.0,0.0,0.0,0.0,0.0,0.0,0.0,0.0,0.0,-1.4727,-1.4871,0.0,0.0,0.0,0.0,0.0,0.0,0.0,0.0,0.0,0.0,0.0,0.0,0.0,0.0,0.0,0.0,0.0,0.0,0.0,0.0,0.0,0.0,0.0,0.0,0.0,0.0,0.0,0.0,0.0,0.0,0.0,0.0,0.0,0.0,0.0,0.0,0.0,0.0,-2.9391,-3.1148,-3.5639,-3.8138,-3.9786,-4.1759,-4.3172,-4.4349,-4.5544,-4.5789,-4.5508,-4.4714,-4.24,-3.9128,-3.4776,0.0,0.0,0.0,-2.5944,-2.556,-2.5212,0.0,0.0,0.0,0.0,0.0,0.0,0.0,0.0,0.0,0.0,0.0,0.0,0.0,-3.9272,-3.9272,-3.9603,-3.9818,-3.9852,-3.9852,-3.9669,-3.9288,-3.9272,-3.9272,-3.9272,-3.9272,-3.9272,-3.9272,-3.8952,-3.8827,-3.8772,-3.8181,-3.7879,-3.7822,-3.7546,-3.7429,-3.7504,-3.737,-3.737,-3.7504,-3.7087,-3.6845,-3.6662,-3.6368,-3.6117,-3.5913,0.0,0.0,0.0,0.0,0.0,0.0,0.0,-1.3568,-1.48,-1.3931,-1.3824,-1.4148,-1.504,-1.5057,-1.5105,0.0,0.0,0.0,0.0,0.0,0.0,0.0,0.0,0.0,0.0,0.0,0.0,-1.9996,0.0,0.0,0.0,0.0,0.0,0.0,0.0,0.0,0.0,0.0,0.0,0.0,0.0,0.0,0.0,0.0,0.0,0.0,0.0,0.0,0.0,0.0,-2.863,-3.0133,-3.5064,-3.7923,-3.9822,-4.1361,-4.2734,-4.4017,-4.5116,-4.5047,-4.4492,-4.3683,-4.0945,-3.7091,-3.1847,-2.9472,0.0,0.0,-2.4232,-2.463,-2.463,0.0,0.0,0.0,0.0,0.0,0.0,0.0,0.0,0.0,0.0,0.0,0.0,0.0,0.0,-3.9272,-3.9272,-3.952,-4.0117,-4.0133,-3.9885,-3.9342,-3.9272,-3.9272,-3.9272,-3.9272,-3.9272,-3.9272,-3.9272,-3.9272,-3.9272,-3.8772,-3.8479,-3.8351,-3.7895,-3.7796,-3.8001,-3.7943,-3.8075,-3.8262,-3.796,-3.7578,-3.7147,-3.6952,-3.6569,-3.6305,0.0,0.0,0.0,0.0,0.0,0.0,0.0,-1.294,-1.3905,-1.3037,-1.2929,-1.3245,-1.4125,-1.4155,-1.4438,0.0,0.0,0.0,0.0,0.0,0.0,0.0,0.0,0.0,0.0,0.0,0.0,-2.0001,-1.9915,0.0,0.0,0.0,0.0,0.0,0.0,-1.9807,0.0,0.0,0.0,0.0,0.0,0.0,0.0,0.0,0.0,0.0,0.0,0.0,0.0,0.0,0.0,-2.8062,-3.0676,-3.3665,-3.6479,-3.7862,0.0,0.0,-4.5201,-4.4729,-4.3417,-4.2632,-3.8541,-3.3827,-3.0542,0.0,0.0,-2.3321,-2.3056,-2.3106,-2.3106,-2.3205,-2.3503,0.0,0.0,-2.5955,0.0,0.0,0.0,0.0,0.0,0.0,0.0,-3.9272,-3.9272,-3.9272,-3.9272,-3.9305,-3.9425,-3.9425,-3.9392,-3.9272,-3.9272,-3.9272,-3.9272,-3.9272,-3.9272,-3.9272,-3.9272,-3.9272,-3.9272,-3.9218,-3.9023,-3.8733,-3.8678,-3.8528,-3.8335,-3.8017,-3.7943,-3.7943,-3.7626,-3.7524,-3.7464,-3.7421,-3.7421,-3.7345,0.0,0.0,0.0,0.0,0.0,0.0,0.0,-1.2076,-1.2956,-1.1906,-1.1277,-1.1258,-1.2146,-1.2172,-1.2992,0.0,0.0,0.0,0.0,0.0,0.0,0.0,0.0,0.0,0.0,0.0,0.0,-2.0069,-2.0021,0.0,0.0,0.0,0.0,0.0,0.0,-1.9725,-1.9795,0.0,0.0,0.0,0.0,0.0,0.0,0.0,0.0,0.0,0.0,0.0,0.0,0.0,0.0,0.0,-2.6211,-2.8148,0.0,0.0,-3.729,-3.9142,-4.1375,-4.1463,-4.0764,-4.0429,-3.6479,-3.2038,-2.9744,0.0,0.0,-2.3586,-2.3205,-2.304,-2.3487,-2.3189,-2.299,-2.3288,0.0,0.0,0.0,0.0,0.0,0.0,0.0,0.0,0.0,0.0,-3.9272,-3.9272,-3.9272,-3.9272,-3.9272,-3.9272,-3.9272,-3.9272,-3.9272,-3.9272,-3.9272,-3.9272,-3.9272,-3.9272,-3.9272,-3.9272,-3.9272,-3.9094,-3.8914,-3.8805,-3.8655,-3.8359,-3.8075,-3.7943,-3.7786,-3.7626,-3.7524,-3.748,-3.748,-3.748,-3.748,-3.748,0.0,0.0,0.0,0.0,0.0,0.0,-0.9419,-1.0899,-1.1558,-1.047,-1.0264,-1.0332,-1.0595,-1.131,-1.2612,-1.47,0.0,0.0,0.0,0.0,0.0,0.0,0.0,0.0,0.0,0.0,-2.0088,-2.0088,-2.0041,-2.002,0.0,0.0,-1.9903,-1.9856,0.0,0.0,0.0,0.0,0.0,0.0,0.0,0.0,0.0,0.0,0.0,0.0,0.0,0.0,0.0,0.0,0.0,0.0,0.0,0.0,0.0,0.0,-3.3811,-3.5849,-3.7831,-3.8607,-3.8842,-3.8726,-3.4886,-3.0694,0.0,0.0,0.0,-2.3603,-2.324,-2.301,-2.3586,-2.3223,-2.2845,-2.2891,0.0,-2.41,0.0,0.0,0.0,0.0,0.0,0.0,0.0,-3.8891,-3.9272,-3.9272,-3.9272,-3.9272,-3.9272,-3.9272,-3.9272,-3.9272,-3.9272,-3.9272,-3.9272,-3.9272,-3.9272,-3.9148,-3.9148,-3.911,-3.9002,-3.8766,-3.8639,-3.8511,-3.8303,-3.8091,-3.7786,-3.7786,-3.7685,-3.748,-3.748,-3.748,-3.748,-3.748,-3.748,-3.748,0.0,0.0,0.0,0.0,0.0,0.0,0.0,-0.9357,-0.9592,-0.864,-1.0257,-1.103,-0.9849,-1.2192,-1.387,-1.3913,0.0,0.0,0.0,0.0,0.0,0.0,0.0,0.0,0.0,0.0,-2.0088,-2.0088,-2.0088,-2.0088,-2.0108,-2.0028,-2.0012,-2.0001,0.0,0.0,0.0,0.0,0.0,0.0,0.0,0.0,0.0,0.0,0.0,0.0,0.0,0.0,0.0,0.0,0.0,0.0,0.0,0.0,0.0,0.0,-3.0023,-3.4337,-3.5349,-3.6955,-3.8197,-3.7802,-3.3825,-2.961,0.0,0.0,-2.3785,-2.3056,-2.2798,-2.2734,-2.2892,-2.2798,-2.2734,-2.2876,-2.3503,0.0,0.0,0.0,0.0,0.0,0.0,0.0,-3.5893,-3.7996,-3.9272,-3.9272,-3.9272,-3.9272,-3.9272,-3.9272,-3.9272,-3.9272,-3.9272,-3.9272,-3.9272,-3.9272,-3.9148,-3.8805,-3.8805,-3.8655,-3.8408,-3.8408,-3.8205,-3.7886,-3.7886,-3.7727,-3.748,-3.748,-3.748,-3.748,-3.748,-3.748,-3.748,-3.748,-3.748,-3.748,0.0,0.0,0.0,0.0,0.0,0.0,0.0,-0.8009,-0.7595,-0.7075,-0.8199,-0.8895,-0.8521,-1.0981,-1.3008,-1.3829,0.0,0.0,0.0,0.0,0.0,0.0,0.0,0.0,0.0,0.0,-2.0088,-2.0088,-2.0088,-2.0079,-2.0021,-2.0007,-1.9971,-1.9926,-1.9609,0.0,0.0,0.0,0.0,0.0,0.0,0.0,0.0,0.0,0.0,0.0,0.0,0.0,0.0,0.0,0.0,0.0,0.0,0.0,0.0,0.0,0.0,0.0,-2.9126,-2.9943,-3.0445,-3.083,-2.8558,-2.6202,-2.6016,0.0,-2.3289,-2.3408,-2.3063,-2.285,-2.3342,-2.2916,-2.2688,-2.3358,-2.4048,0.0,0.0,0.0,0.0,0.0,0.0,0.0,0.0,0.0,-3.9272,-3.9272,-3.9272,-3.9272,-3.9272,-3.9094,-3.904,-3.9272,-3.9272,-3.9272,-3.9272,-3.9272,-3.9148,-3.8805,-3.8805,-3.8655,-3.8391,-3.8132,-3.8001,-3.7886,-3.7685,-3.7583,-3.748,-3.748,-3.748,-3.748,-3.748,-3.748,-3.748,-3.748,-3.748,-3.748,0.0,0.0,0.0,0.0,0.0,0.0,0.0,-0.7654,-0.6836,-0.6926,-0.8179,-0.9055,-0.9042,-1.1574,-1.3438,-1.3863,0.0,0.0,0.0,0.0,0.0,0.0,0.0,0.0,0.0,-2.0088,-2.0088,-2.0088,-2.0088,-2.0079,-2.005,-2.0007,-1.9941,-1.9847,-1.9536,0.0,0.0,0.0,0.0,0.0,0.0,0.0,-2.0626,0.0,0.0,0.0,0.0,0.0,0.0,0.0,0.0,0.0,0.0,0.0,0.0,0.0,-2.045,0.0,0.0,-2.5949,-2.6992,-2.7316,-2.605,0.0,0.0,0.0,-2.2992,-2.326,-2.2933,-2.2818,-2.3571,-2.3141,-2.3025,-2.3963,-2.4648,0.0,0.0,0.0,0.0,0.0,0.0,0.0,0.0,-3.8887,-3.9272,-3.9094,-3.9094,-3.9094,-3.9094,-3.8914,-3.8914,-3.9094,-3.9094,-3.9094,-3.9094,-3.9094,-3.8931,-3.8655,-3.8528,-3.8343,-3.8205,-3.7902,-3.7727,-3.7727,-3.7583,-3.748,0.0,-3.748,-3.748,-3.748,-3.748,-3.748,-3.748,-3.748,-3.748,-3.748,0.0,0.0,0.0,0.0,0.0,0.0,0.0,0.0,0.0,0.0,-0.9589,-1.0877,-1.0903,-1.3478,-1.4877,0.0,0.0,0.0,0.0,0.0,0.0,0.0,0.0,0.0,0.0,-2.0088,-2.0088,-2.0088,-2.0088,-2.0108,-2.0079,-2.0017,-1.9911,-1.9767,-1.9518,0.0,0.0,0.0,0.0,0.0,0.0,0.0,0.0,0.0,0.0,0.0,0.0,0.0,0.0,0.0,0.0,0.0,0.0,0.0,0.0,0.0,0.0,0.0,0.0,0.0,0.0,0.0,0.0,0.0,0.0,0.0,0.0,-2.2702,-2.2573,-2.2735,-2.3554,-2.3444,-2.3613,-2.4615,-2.5257,0.0,0.0,0.0,0.0,0.0,0.0,0.0,-3.6495,-3.8203,-3.9148,-3.8805,-3.8805,-3.8805,-3.875,-3.875,-3.875,-3.875,-3.875,-3.875,-3.8805,-3.8805,-3.8711,-3.8335,-3.8075,-3.7886,-3.7886,-3.7626,-3.748,-3.748,-3.748,-3.748,-3.748,-3.748,-3.748,-3.748,-3.748,-3.748,-3.748,-3.748,-3.748,-3.748,0.0,0.0,0.0,0.0,0.0,0.0,0.0,0.0,0.0,0.0,0.0,-0.9947,-1.0813,-1.3427,0.0,0.0,0.0,0.0,0.0,0.0,0.0,0.0,0.0,0.0,0.0,-2.0088,-2.0088,-2.0088,-2.0088,-2.005,-1.995,-1.9885,-1.9774,-1.9632,-1.9419,0.0,0.0,0.0,0.0,0.0,0.0,0.0,0.0,0.0,0.0,0.0,-1.9087,-1.9214,0.0,0.0,0.0,0.0,0.0,0.0,0.0,0.0,-1.7887,-1.7863,-1.8476,0.0,-2.0832,-2.1849,-2.1936,0.0,0.0,0.0,0.0,0.0,0.0,0.0,0.0,-2.3635,-2.392,-2.4499,0.0,-2.6222,0.0,0.0,0.0,0.0,-3.5915,-3.721,-3.592,-3.7679,-3.8821,-3.8504,-3.8694,-3.8694,-3.8504,-3.8246,-3.8246,-3.8504,-3.8246,-3.8343,-3.8805,-3.904,-3.8805,-3.8017,-3.8205,-3.8033,-3.7583,-3.7539,-3.748,-3.748,-3.748,-3.748,-3.748,-3.748,-3.748,-3.748,-3.748,-3.748,-3.748,-3.748,-3.748,-3.748,0.0,0.0,0.0,0.0,0.0,0.0,0.0,0.0,0.0,0.0,0.0,0.0,0.0,0.0,0.0,0.0,0.0,0.0,0.0,0.0,0.0,0.0,0.0,0.0,-2.0088,-2.0088,-2.0069,-2.0001,-2.0001,-1.9939,-1.9809,-1.975,-1.9645,-1.9559,-1.935,0.0,0.0,0.0,0.0,0.0,-1.9008,0.0,0.0,0.0,0.0,0.0,-1.9087,-1.9087,0.0,-1.9087,-1.9036,-1.8896,0.0,0.0,0.0,0.0,-1.7505,-1.7647,-1.8286,-1.875,-1.9187,-2.0009,-2.0704,-2.1301,0.0,0.0,0.0,0.0,0.0,0.0,0.0,0.0,0.0,0.0,-2.5747,0.0,0.0,0.0,0.0,0.0,-3.5525,-3.6728,0.0,-3.7845,-3.8488,-3.8205,-3.8303,-3.8286,-3.8205,-3.8001,-3.8001,-3.8132,-3.8132,-3.8189,-3.8399,-3.8567,-3.8399,-3.7886,-3.7976,-3.7876,-3.7685,-3.7583,-3.748,-3.748,-3.748,-3.748,-3.748,-3.748,-3.748,-3.748,-3.748,-3.748,-3.748,-3.748,-3.748,-3.748,0.0,0.0,0.0,0.0,0.0,0.0,0.0,0.0,0.0,0.0,0.0,0.0,0.0,0.0,0.0,0.0,0.0,0.0,0.0,0.0,0.0,0.0,0.0,-1.9974,-2.0088,-2.0079,-2.0001,-1.9907,-1.9866,-1.9797,-1.9676,-1.9612,-1.9471,-1.9263,-1.9222,-1.9162,0.0,0.0,-1.8661,-1.8298,-1.8738,0.0,0.0,0.0,0.0,0.0,0.0,0.0,0.0,-1.9053,-1.8914,-1.8714,-1.8426,0.0,0.0,0.0,0.0,0.0,-1.8965,-1.9435,-1.965,-1.9882,-2.0886,-2.1768,0.0,0.0,0.0,0.0,0.0,0.0,0.0,0.0,0.0,0.0,0.0,0.0,0.0,0.0,0.0,-3.3743,-3.4711,0.0,-3.7262,-3.7955,-3.8205,-3.7828,-3.7886,-3.7838,-3.7684,-3.778,-3.778,-3.7668,-3.8042,-3.8148,-3.7828,-3.7943,-3.7943,-3.7828,-3.7626,-3.7685,-3.7828,-3.7583,-3.748,-3.748,-3.748,-3.748,-3.748,-3.748,-3.748,-3.748,-3.748,-3.748,-3.748,-3.748,-3.748,-3.748,0.0,0.0,0.0,0.0,0.0,0.0,0.0,0.0,0.0,0.0,0.0,0.0,0.0,0.0,0.0,0.0,0.0,0.0,0.0,0.0,0.0,0.0,-1.8608,-1.9391,-2.0088,-1.9981,-1.9928,-1.9907,-1.9786,-1.9663,-1.9526,-1.9523,-1.9062,-1.8252,-1.8909,-1.8804,-1.8104,-1.8089,-1.8415,-1.8903,-1.8324,0.0,0.0,0.0,0.0,0.0,0.0,0.0,0.0,-1.8843,-1.8714,-1.8485,-1.8149,0.0,0.0,0.0,0.0,0.0,-1.7756,-1.87,-1.9899,-2.1151,-2.1615,-2.1781,0.0,0.0,0.0,0.0,0.0,0.0,0.0,0.0,0.0,0.0,0.0,0.0,0.0,0.0,-3.4127,-3.3694,0.0,-3.6578,-3.5249,-3.6846,-3.7844,-3.7583,-3.7786,-3.7514,-3.6669,-3.7207,-3.7255,-3.6653,-3.7282,-3.7583,-3.7583,-3.8049,-3.8049,-3.7583,-3.7727,-3.7727,-3.7583,-3.7539,-3.748,-3.748,-3.748,-3.748,-3.748,-3.748,-3.748,-3.748,-3.748,-3.748,-3.748,-3.748,-3.748,-3.748,0.0,0.0,0.0,0.0,0.0,0.0,0.0,0.0,0.0,0.0,0.0,0.0,0.0,0.0,0.0,0.0,0.0,0.0,0.0,0.0,0.0,-1.622,-1.743,-1.8726,-2.0069,-1.9907,-1.959,-1.9137,-1.8558,-1.8235,-1.8089,-1.854,-1.8485,-1.8021,-1.8385,-1.8063,-1.7255,-1.7255,-1.7472,-1.7817,0.0,0.0,0.0,0.0,0.0,0.0,0.0,0.0,0.0,0.0,-1.8657,-1.8475,-1.8693,0.0,0.0,0.0,0.0,0.0,-1.8534,-1.9131,-1.9849,-2.0936,-2.1599,-2.194,0.0,0.0,0.0,0.0,0.0,0.0,0.0,0.0,0.0,0.0,0.0,-3.0782,-3.2187,-3.2896,-3.3444,0.0,0.0,-3.5878,-3.6109,-3.707,-3.7626,-3.7539,-3.7234,-3.6869,-3.6437,-3.6738,-3.6579,-3.5884,-3.6548,-3.6722,-3.6358,-3.6628,-3.7011,-3.748,-3.7626,-3.7642,-3.748,-3.748,-3.748,-3.748,-3.748,-3.748,-3.7539,-3.7828,-3.7927,-3.7927,-3.827,-3.8399,-3.8399,-3.8399,-3.8399,-3.8334,0.0,0.0,0.0,0.0,0.0,0.0,0.0,0.0,0.0,0.0,0.0,0.0,0.0,0.0,0.0,0.0,0.0,0.0,0.0,0.0,-1.5117,-1.5609,-1.6563,-1.7814,-1.9431,-1.9401,-1.8989,-1.8165,-1.7231,-1.6817,-1.6886,-1.7512,-1.7771,-1.7727,-1.7915,-1.7412,-1.6421,-1.6421,-1.6639,-1.7019,0.0,0.0,0.0,0.0,0.0,0.0,0.0,0.0,0.0,0.0,0.0,0.0,0.0,0.0,0.0,-1.9445,-1.9204,-1.8873,-1.9452,-1.969,-1.9954,-2.0499,0.0,0.0,-2.2204,0.0,0.0,0.0,0.0,0.0,0.0,0.0,0.0,0.0,-3.1127,-3.2088,-3.2627,-3.2867,-3.3588,-3.5068,-3.522,-3.5928,-3.7742,-3.7918,-3.7918,-3.7918,-3.7233,-3.6731,-3.6397,-3.6384,-3.6026,-3.5157,-3.5821,-3.5973,-3.5586,-3.5586,-3.6109,-3.7227,-3.7227,-3.7227,-3.7243,-3.7401,-3.7385,-3.7227,-3.7404,-3.7446,-3.7488,-3.7818,-3.7958,-3.8013,-3.8463,-3.8639,-3.8709,-3.8874,-3.8877,-3.8609,0.0,0.0,0.0,0.0,0.0,0.0,0.0,0.0,0.0,0.0,0.0,0.0,0.0,0.0,0.0,0.0,0.0,0.0,0.0,0.0,-1.5597,-1.717,-1.6516,-1.6562,-1.7568,-1.8128,-1.8025,-1.7201,-1.6251,-1.6149,-1.6807,-1.6862,-1.6903,-1.6933,-1.7663,-1.7089,-1.5578,-1.5578,-1.6443,-1.7762,-1.7056,0.0,0.0,0.0,0.0,0.0,0.0,0.0,0.0,0.0,0.0,0.0,0.0,0.0,-1.9624,-1.9595,-1.9551,-1.9535,-1.9584,-2.0014,-2.0455,-2.0504,0.0,0.0,-2.2975,0.0,0.0,0.0,0.0,0.0,0.0,0.0,0.0,0.0,-3.1626,-3.3574,-3.5633,0.0,-3.7155,-3.7915,-3.7995,-3.8284,-3.9028,-3.9098,-3.9098,-3.9098,-3.8525,-3.7575,-3.6303,-3.631,-3.5789,-3.4415,-3.5078,-3.5633,-3.6066,-3.6066,-3.6197,-3.65,-3.65,-3.65,-3.6532,-3.718,-3.7117,-3.65,-3.7022,-3.7213,-3.7219,-3.7088,-3.7015,-3.7015,-3.7067,-3.7067,-3.7133,-3.7983,-3.7852,-3.7319,0.0,0.0,0.0,0.0,0.0,0.0,0.0,0.0,0.0,0.0,0.0,0.0,0.0,0.0,0.0,0.0,0.0,0.0,0.0,0.0,-1.454,-1.5789,-1.5422,-1.5817,-1.7116,-1.6849,-1.6053,-1.4786,-1.486,-1.4386,-1.3499,-1.5703,-1.6478,-1.6078,-1.6327,-1.6081,-1.5506,-1.5506,-1.6425,-1.7871,-1.7581,-1.8107,0.0,0.0,0.0,0.0,0.0,0.0,0.0,0.0,-1.8645,-1.8572,-1.9063,-1.9395,-1.9721,-2.0158,-2.0274,-2.0274,-2.0274,-2.0545,-2.0772,-2.0676,0.0,0.0,0.0,0.0,0.0,0.0,0.0,0.0,0.0,0.0,0.0,-3.1182,-3.3457,-3.5542,-3.692,-3.7683,-3.7985,-3.7725,-3.8368,-3.845,-3.7388,-3.8447,-3.8825,-3.7845,-3.7607,-3.7058,-3.6073,-3.6046,-3.5633,-3.4624,-3.5307,-3.5573,-3.53,-3.53,-3.556,-3.6104,-3.6168,-3.6079,-3.5789,-3.6058,-3.6026,-3.5789,-3.6268,-3.6524,-3.6546,-3.7169,-3.7466,-3.7466,-3.7804,-3.7946,-3.8027,-3.841,-3.8389,-3.8162,0.0,0.0,0.0,0.0,0.0,0.0,0.0,0.0,0.0,0.0,0.0,0.0,0.0,0.0,0.0,0.0,0.0,0.0,0.0,-1.4176,-1.4344,-1.5536,-1.5258,-1.5429,-1.6202,-1.538,-1.4384,-1.3197,-1.2627,-1.2152,-1.1823,-1.4381,-1.5851,-1.6337,-1.6022,-1.5882,-1.5882,-1.5882,-1.666,-1.7907,-1.7907,-1.833,0.0,0.0,0.0,0.0,0.0,0.0,0.0,0.0,-1.8875,-1.883,-1.9579,-1.987,-2.0091,-2.082,-2.1076,-2.1133,-2.1133,-2.1273,-2.1356,0.0,0.0,0.0,0.0,0.0,0.0,0.0,0.0,0.0,0.0,0.0,0.0,0.0,-3.4597,-3.656,-3.7263,-3.7881,-3.8037,-3.7505,-3.8212,-3.8267,-3.7018,-3.8153,-3.8556,-3.7533,-3.7302,-3.6936,-3.6202,-3.5975,-3.5546,-3.4849,-3.5265,-3.5378,-3.5068,-3.5052,-3.5318,-3.5819,-3.563,-3.5448,-3.5307,-3.5529,-3.5514,-3.5361,-3.5796,-3.613,-3.6319,-3.7054,-3.7313,-3.7359,-3.772,-3.7914,-3.7992,-3.8339,-3.8356,-3.8156,0.0,0.0,0.0,0.0,0.0,0.0,0.0,0.0,0.0,0.0,0.0,0.0,0.0,0.0,0.0,0.0,0.0,0.0,-1.4697,-1.4685,-1.5407,-1.704,-1.6316,-1.5462,-1.4573,-1.3747,-1.3131,-1.2751,-0.9526,-0.9537,-1.2595,-1.2969,-1.4862,-1.7939,-1.7089,-1.6693,-1.6711,-1.6711,-1.7164,-1.7926,-1.7907,-1.8265,-1.8824,0.0,0.0,0.0,0.0,0.0,0.0,0.0,-2.0206,-2.0221,-2.1387,-2.1267,-2.0865,-2.1566,-2.194,-2.2096,-2.2096,-2.2136,0.0,0.0,0.0,0.0,0.0,0.0,0.0,0.0,0.0,0.0,-2.888,0.0,0.0,-3.2555,-3.4661,-3.6302,-3.6808,-3.7138,-3.7433,-3.7773,-3.7773,-3.801,-3.8515,-3.8577,-3.8577,-3.856,-3.8103,-3.7483,-3.6734,-3.6183,-3.5578,-3.4849,-3.4816,-3.5052,-3.5616,-3.5633,-3.5616,-3.5599,-3.4793,-3.4638,-3.5121,-3.5764,-3.5699,-3.514,-3.5646,-3.6135,-3.654,-3.6362,-3.6284,-3.6284,-3.6301,-3.6402,-3.6589,-3.7443,-3.7376,-3.6933,0.0,0.0,0.0,0.0,0.0,0.0,0.0,0.0,0.0,0.0,0.0,0.0,0.0,0.0,0.0,0.0,0.0,0.0,-1.4641,-1.4087,-1.4722,-1.7003,-1.5697,-1.584,-1.7821,-1.5803,-1.3197,-1.0125,-1.0843,-1.1603,-1.2373,-1.5027,-1.6417,-1.6656,-1.654,-1.6801,-1.7338,-1.7483,-1.7936,-1.8556,-1.8693,-1.8786,-1.8824,0.0,0.0,0.0,0.0,0.0,0.0,0.0,0.0,0.0,-2.0234,-2.0567,-2.0916,-2.101,-2.154,-2.2096,-2.2096,-2.2364,0.0,0.0,0.0,0.0,0.0,0.0,0.0,0.0,0.0,-2.893,-2.9988,0.0,0.0,-3.2844,-3.4567,-3.6238,-3.7378,-3.7524,-3.7376,-3.7055,-3.7826,-3.7877,-3.6621,-3.7762,-3.7922,-3.6318,-3.7067,-3.7014,-3.5694,-3.5993,-3.6076,-3.5854,-3.5837,-3.5924,-3.6071,-3.6071,-3.5814,-3.5299,-3.5059,-3.4648,-3.4118,-3.4331,-3.4019,-3.3329,-3.4397,-3.4661,-3.4423,-3.5352,-3.5671,-3.5665,-3.6236,-3.6444,-3.652,-3.6887,-3.694,-3.6776,0.0,0.0,0.0,0.0,0.0,0.0,0.0,0.0,0.0,0.0,0.0,0.0,0.0,0.0,0.0,0.0,0.0,0.0,0.0,0.0,-1.4747,-1.6916,-1.6005,-1.6358,-1.8298,-1.5675,-1.3357,-1.1498,-1.2209,-1.2757,-1.3196,-1.5471,-1.6764,-1.7135,-1.6299,-1.6722,-1.8039,-1.7514,-1.7874,-1.8806,-1.8932,-1.8914,-1.8824,0.0,0.0,0.0,0.0,0.0,0.0,0.0,0.0,0.0,-2.0592,0.0,0.0,-2.1217,-2.1731,-2.2271,-2.2364,0.0,0.0,0.0,0.0,0.0,0.0,0.0,0.0,0.0,0.0,-3.0114,-3.1116,-3.1777,0.0,-3.3425,-3.438,-3.5479,-3.6655,-3.6468,-3.6052,-3.5736,-3.632,-3.6354,-3.5113,-3.6079,-3.6232,-3.4869,-3.5887,-3.6163,-3.5249,-3.5904,-3.6301,-3.6301,-3.6301,-3.6301,-3.6301,-3.6008,-3.549,-3.4749,-3.4438,-3.383,-3.2959,-3.3355,-3.3284,-3.2894,-3.3838,-3.4055,-3.3785,-3.4644,-3.497,-3.4983,-3.5469,-3.5682,-3.5705,-3.5802,-3.588,-3.5927,0.0,0.0,0.0,0.0,0.0,0.0,0.0,0.0,0.0,0.0,0.0,0.0,0.0,0.0,0.0,0.0,0.0,0.0,0.0,0.0,-1.5294,-1.6835,-1.7037,-1.7128,-1.7128,-1.4612,-1.4064,-1.5622,-1.3647,-1.3424,-1.4816,-1.5089,-1.6413,-1.843,-1.6422,-1.6635,-1.8467,-1.7167,-1.7452,-1.8769,-1.8806,-1.8806,-1.8788,-1.8984,0.0,0.0,0.0,0.0,0.0,0.0,0.0,0.0,-2.1905,-2.1642,-2.1265,-2.1894,-2.2298,-2.2525,0.0,0.0,0.0,0.0,0.0,0.0,0.0,0.0,0.0,0.0,0.0,-3.1218,-3.1935,-3.2002,-3.2451,-3.4039,-3.4181,-3.4414,-3.5186,-3.4604,-3.4093,-3.4093,-3.4093,-3.4093,-3.4093,-3.4093,-3.4059,-3.399,-3.468,-3.5094,-3.5094,-3.5801,-3.6197,-3.6197,-3.6128,-3.6059,-3.599,-3.5249,-3.4507,-3.3766,-3.3041,-3.2317,-3.1645,-3.2747,-3.3279,-3.3279,-3.3711,-3.393,-3.399,-3.4029,-3.4137,-3.4318,-3.4318,-3.4373,-3.4504,-3.4574,-3.4649,-3.4688,0.0,0.0,0.0,0.0,0.0,0.0,0.0,0.0,0.0,0.0,0.0,0.0,0.0,0.0,0.0,0.0,0.0,0.0,0.0,0.0,-1.5937,-1.6853,-1.8115,-1.8775,-1.8775,-1.8182,-1.795,-1.8124,-1.5502,-1.4963,-1.6413,-1.7315,-1.7285,-1.6491,-1.7394,-1.7381,-1.6747,-1.7826,-1.8394,-1.8582,-1.8914,-1.8861,-1.8582,-1.8715,-1.8639,0.0,0.0,0.0,0.0,0.0,0.0,0.0,-2.2158,-2.2124,-2.2167,-2.2119,-2.2298,-2.2525,0.0,0.0,0.0,0.0,0.0,0.0,0.0,0.0,0.0,0.0,-2.9281,-3.0363,-3.0994,-3.1637,-3.235,-3.3231,-3.3817,-3.4229,-3.4424,-3.4259,-3.4093,-3.4093,-3.4093,-3.4093,-3.4093,-3.4093,-3.3835,-3.3214,-3.3886,-3.4335,-3.4335,-3.5025,-3.5439,-3.5439,-3.4869,-3.4266,-3.3645,-3.2904,-3.2162,-3.142,-3.1248,-3.0765,-3.0075,-3.2067,-3.2973,-3.2938,-3.2545,-3.2451,-3.256,-3.2596,-3.3016,-3.3628,-3.3628,-3.3977,-3.4574,-3.5203,-3.5139,-3.4688,0.0,0.0,0.0,0.0,0.0,0.0,0.0,0.0,0.0,0.0,0.0,0.0,0.0,0.0,0.0,0.0,0.0,0.0,0.0,0.0,0.0,-1.7422,-1.8647,-1.9305,-1.9305,-1.92,-1.8836,-1.8217,-1.6982,0.0,0.0,0.0,0.0,-1.7084,0.0,-1.7308,-1.7255,-1.7435,-1.7948,-1.8639,-1.877,-1.8733,-1.8639,-1.8641,-1.8506,-1.8391,-1.8974,0.0,0.0,0.0,0.0,0.0,0.0,0.0,-2.2605,-2.249,-2.2517,-2.2685,0.0,0.0,0.0,0.0,0.0,0.0,0.0,0.0,0.0,-2.6662,-2.8126,-2.9445,-3.0178,-3.0595,-3.1201,-3.2345,-3.2533,-3.2755,-3.3481,-3.3235,-3.299,-3.299,-3.2679,-3.2593,-3.2955,-3.2662,-3.2438,-3.2369,-3.3093,-3.3524,-3.3524,-3.4249,-3.4663,-3.4663,-3.4283,-3.3697,-3.2904,-3.2162,-3.1231,-3.0127,-3.0127,-2.9903,-2.9541,-3.0731,-3.1472,-3.18,-3.1095,-3.0837,-3.0959,-3.1028,-3.1341,-3.1777,-3.2179,-3.2582,-3.302,-3.3825,-3.3914,-3.3599,0.0,0.0,0.0,0.0,0.0,0.0,0.0,0.0,0.0,0.0,0.0,0.0,0.0,0.0,0.0,0.0,0.0,0.0,0.0,0.0,0.0,-1.8041,-1.8867,-1.9289,-1.9259,-1.9067,-1.8538,-1.763,0.0,0.0,0.0,0.0,0.0,-1.8046,0.0,-1.7061,-1.8029,-1.6956,-1.7382,-1.8732,-1.8639,-1.8658,-1.8732,-1.8604,-1.843,-1.8329,-1.9282,-1.9878,-2.0401,-2.1527,0.0,0.0,0.0,0.0,-2.2816,-2.2816,-2.279,-2.2842,0.0,0.0,0.0,0.0,0.0,0.0,0.0,0.0,0.0,-2.5587,-2.6909,-2.8253,-2.9344,-2.9314,-2.9627,-3.1216,-3.0922,-3.092,-3.2145,-3.1783,-3.1455,-3.1593,-3.1058,-3.0989,-3.1731,-3.1248,-3.1076,-3.1576,-3.2283,-3.2714,-3.2714,-3.3335,-3.368,-3.368,-3.3438,-3.299,-3.2317,-3.1455,-3.0455,-2.9317,-2.9179,-2.9196,-2.9317,-2.9299,-2.973,-3.0455,-2.9782,-2.9592,-2.9693,-2.9621,-2.9687,-2.9942,-3.0565,-3.0878,-3.1124,-3.2055,-3.2318,-3.223,0.0,0.0,0.0,0.0,0.0,0.0,0.0,0.0,0.0,0.0,0.0,0.0,0.0,0.0,0.0,0.0,0.0,0.0,-1.4499,0.0,0.0,-1.806,-1.8867,-1.9227,-1.9048,-1.8965,-1.8681,-1.8193,0.0,0.0,0.0,0.0,0.0,-1.6466,0.0,0.0,-1.6501,-1.7676,-1.8329,-1.8563,-1.8878,-1.8825,-1.8544,-1.851,-1.8393,-1.8378,-1.9659,-2.025,-2.0679,-2.2158,-2.2832,0.0,0.0,0.0,-2.2816,-2.2816,-2.2764,0.0,0.0,0.0,0.0,0.0,0.0,0.0,0.0,0.0,0.0,0.0,-2.493,-2.6177,-2.8226,-2.8023,-2.8075,-2.9575,-2.973,-2.973,-2.9937,-2.9868,-3.0075,-3.0748,-3.0748,-3.0989,-3.1731,-3.1714,-3.142,-3.0886,-3.1524,-3.1955,-3.1955,-3.2041,-3.211,-3.211,-3.0817,-3.0058,-2.9972,-2.8592,-2.8109,-2.8541,-2.7902,-2.792,-2.8541,-2.8622,-2.9004,-2.9661,-2.9558,-2.9592,-2.9658,-2.903,-2.9199,-2.9837,-2.939,-2.9632,-3.0422,-3.1861,-3.1949,-3.1545,0.0,0.0,0.0,0.0,0.0,0.0,0.0,0.0,0.0,0.0,0.0,0.0,0.0,0.0,0.0,-1.3306,-1.404,-1.4701,-1.5141,-1.5757,-1.6712,-1.8041,-1.8337,-1.8626,-1.8996,-1.8717,-1.8068,0.0,0.0,0.0,0.0,-1.7645,-1.7742,0.0,0.0,0.0,0.0,0.0,-1.8715,-1.8843,-1.8914,-1.8824,-1.8693,-1.9001,-1.9059,-1.9185,-2.0668,-2.1266,-2.1517,-2.2611,-2.3045,-2.3077,-2.2995,0.0,0.0,0.0,0.0,0.0,0.0,0.0,0.0,0.0,0.0,0.0,0.0,0.0,-2.2919,-2.3688,-2.3819,-2.432,-2.6217,-2.6588,-2.6988,-2.8157,-2.8643,-2.9023,-2.9455,-2.9506,-2.9644,-2.9989,-2.9661,-2.9868,-3.1058,-3.0782,-3.0558,-3.0679,-3.0989,-3.0989,-3.0541,-3.0506,-3.0506,-3.0506,-3.0282,-2.9955,-2.9506,-2.8868,-2.8282,-2.7782,-2.7486,-2.7535,-2.7829,-2.7907,-2.8291,-2.8885,-2.9003,-2.8793,-2.8377,-2.814,-2.8285,-2.8631,-2.8829,-2.9123,-2.9562,-3.0703,-3.0896,-3.0685,0.0,0.0,0.0,0.0,0.0,0.0,0.0,0.0,0.0,0.0,0.0,0.0,0.0,0.0,0.0,0.0,-1.4116,-1.4709,-1.5294,-1.5455,-1.6092,-1.7422,-1.7682,-1.797,-1.8333,-1.8298,0.0,0.0,0.0,0.0,-1.6195,-1.6963,-1.7721,0.0,-1.8408,0.0,0.0,0.0,0.0,0.0,-1.9112,-1.9128,-1.9125,-1.9732,-1.997,-2.0121,-2.151,-2.2019,-2.2101,-2.2856,-2.3095,-2.3095,-2.3095,-2.3095,0.0,0.0,0.0,0.0,0.0,0.0,0.0,0.0,0.0,0.0,0.0,0.0,-2.284,0.0,-2.3064,-2.3057,-2.4261,-2.5034,-2.5781,-2.6636,-2.721,-2.7799,-2.8541,-2.8644,-2.8782,-2.9179,-2.873,-2.8937,-3.0265,-2.9851,-2.9592,-2.9817,-3.0006,-2.9679,-2.8696,-2.8834,-2.8937,-2.8937,-2.9523,-2.973,-2.9506,-2.9506,-2.8851,-2.7575,-2.7448,-2.7407,-2.7425,-2.7705,-2.7969,-2.8174,-2.832,-2.8039,-2.7421,-2.7557,-2.7587,-2.7669,-2.8338,-2.8596,-2.8684,-2.9509,-2.9808,-2.9825,0.0,0.0,0.0,0.0,0.0,0.0,0.0,0.0,0.0,0.0,0.0,0.0,-1.4441,-1.4478,-1.4485,-1.4444,-1.4362,-1.4324,-1.436,-1.508,-1.56,-1.5821,-1.71,0.0,-1.6556,-1.7695,0.0,0.0,0.0,0.0,-1.6937,-1.6297,-1.6877,-1.8485,-1.8232,-1.8293,-1.8585,0.0,0.0,0.0,0.0,0.0,0.0,0.0,-2.0989,-2.1025,-2.1743,-2.2019,-2.2101,-2.2856,-2.3095,-2.3095,-2.3095,-2.3095,-2.3095,0.0,0.0,0.0,0.0,0.0,0.0,0.0,0.0,0.0,0.0,0.0,-2.2703,-2.2737,-2.2746,-2.2746,-2.2815,-2.3436,-2.4195,-2.4988,-2.516,-2.5436,-2.6178,-2.6281,-2.6833,-2.8282,-2.842,-2.8713,-2.9489,-2.9523,-2.8937,-2.7575,-2.8127,-2.7868,-2.6368,-2.7006,-2.7402,-2.7402,-2.7454,-2.8127,-2.9489,-2.9506,-2.911,-2.8334,-2.769,-2.7407,-2.7442,-2.8342,-2.8303,-2.7565,-2.7565,-2.7531,-2.7496,-2.7557,-2.7587,-2.7617,-2.7724,-2.7754,-2.7859,-2.8667,-2.8965,-2.907,0.0,0.0,0.0,0.0,0.0,0.0,0.0,0.0,0.0,0.0,0.0,0.0,0.0,-1.4504,-1.4492,-1.4499,-1.4381,-1.4331,-1.4417,-1.4629,-1.5023,-1.5674,-1.5966,-1.6215,-1.633,-1.7037,0.0,0.0,0.0,-1.7297,-1.6104,-1.6802,-1.7587,-1.8397,-1.7284,-1.7482,-1.8604,-1.8789,0.0,0.0,0.0,0.0,0.0,0.0,0.0,0.0,0.0,0.0,-2.2751,-2.3014,-2.3095,-2.3095,-2.3095,-2.3095,-2.3095,-2.3045,0.0,0.0,0.0,0.0,0.0,0.0,0.0,0.0,0.0,-2.2712,-2.2712,-2.2712,-2.2712,-2.2712,-2.2712,-2.3288,-2.3874,-2.4195,-2.466,-2.5092,-2.5367,-2.5402,-2.5609,-2.6161,-2.6644,-2.704,-2.7299,-2.7782,-2.7644,-2.6609,-2.6782,-2.6678,-2.6143,-2.6385,-2.6764,-2.7282,-2.7747,-2.8489,-2.9489,-2.9506,-2.9161,-2.8451,-2.7785,-2.7587,-2.7806,-2.8169,-2.8258,-2.8139,-2.8139,-2.7926,-2.7557,-2.763,-2.7642,-2.7689,-2.7701,-2.7701,-2.7736,-2.8017,-2.8223,-2.8415,0.0,0.0,0.0,0.0,0.0,0.0,0.0,0.0,0.0,0.0,0.0,0.0,0.0,0.0,-1.4995,-1.5208,-1.5169,-1.5137,-1.5245,-1.5156,-1.5405,-1.6065,-1.6016,-1.6114,-1.6393,-1.7038,0.0,0.0,0.0,0.0,0.0,-1.6791,-1.7559,-1.8263,-1.678,-1.7064,0.0,0.0,0.0,-1.9925,0.0,0.0,-2.1519,0.0,0.0,0.0,0.0,0.0,0.0,-2.3199,-2.3223,-2.3223,-2.3223,-2.3168,-2.3052,0.0,0.0,0.0,0.0,0.0,0.0,0.0,0.0,0.0,-2.2712,0.0,-2.2712,-2.2712,-2.2712,-2.2712,-2.2712,-2.3081,-2.3426,-2.3426,-2.3884,-2.4315,-2.4574,-2.4609,-2.4712,-2.4971,-2.5436,-2.573,-2.573,-2.6212,-2.6195,-2.5402,-2.535,-2.5229,-2.4988,-2.5195,-2.5875,-2.7035,-2.8136,-2.9089,-2.9839,-2.9595,-2.9365,-2.9197,-2.8252,-2.7926,-2.8147,-2.8192,-2.8298,-2.8376,-2.8478,-2.8219,-2.7789,-2.7829,-2.784,-2.7829,-2.776,-2.7829,-2.7954,-2.7869,-2.7992,-2.8246,0.0,0.0,0.0,0.0,0.0,0.0,0.0,0.0,0.0,0.0,0.0,0.0,0.0,0.0,0.0,-1.666,-1.6718,-1.6718,-1.6718,-1.6708,-1.6751,-1.6876,-1.7257,-1.7196,-1.6598,-1.7699,-1.7621,0.0,0.0,0.0,0.0,0.0,-1.6706,-1.8139,-1.6776,-1.7152,-1.8841,0.0,-1.987,-1.9964,0.0,-2.2229,-2.2205,0.0,0.0,0.0,-2.3102,-2.3119,0.0,-2.3435,0.0,0.0,0.0,0.0,0.0,0.0,0.0,0.0,0.0,0.0,0.0,0.0,0.0,0.0,-2.2712,0.0,-2.2712,-2.2712,-2.2712,-2.2712,-2.2712,-2.2712,-2.2712,-2.2712,-2.2712,-2.2944,-2.3667,-2.3753,-2.4046,-2.485,-2.4954,-2.4971,-2.4936,-2.4954,-2.4643,-2.3822,-2.3753,-2.3443,-2.2754,-2.3426,-2.4681,-2.6525,-2.8308,-2.9643,-3.0481,-2.9755,-2.9812,-3.0575,-2.9116,-2.842,-2.842,-2.8478,-2.8376,-2.8156,-2.8428,-2.8376,-2.8129,-2.8129,-2.8112,-2.8102,-2.7829,-2.8047,-2.8478,-2.8192,-2.8272,-2.8511,0.0,0.0,0.0,0.0,0.0,0.0,0.0,0.0,0.0,0.0,0.0,0.0,-1.6468,-1.656,-1.6638,-1.6831,-1.6849,-1.6849,-1.6849,-1.6835,-1.6849,-1.6908,-1.6874,-1.6769,-1.6601,-1.7293,-1.717,-1.6234,0.0,0.0,0.0,0.0,0.0,0.0,-1.8029,-1.8138,-1.8713,-1.9491,0.0,-2.0622,-2.1825,-2.2503,0.0,0.0,0.0,0.0,0.0,-2.3486,-2.3624,0.0,-2.362,-2.3481,0.0,0.0,0.0,0.0,0.0,0.0,-2.2712,0.0,0.0,0.0,0.0,0.0,0.0,0.0,-2.2712,-2.2712,-2.2712,-2.2712,-2.2712,-2.2712,-2.2712,-2.2712,-2.2712,-2.2754,-2.2988,-2.2995,-2.3081,-2.3315,-2.3815,-2.3936,-2.3402,-2.3805,-2.3805,-2.3047,-2.2995,-2.316,-2.346,-2.4247,-2.5138,-2.6194,-2.7304,-2.8592,-3.0141,-2.9412,-2.9591,-3.0632,-2.9143,-2.8547,-2.8827,-2.885,-2.8938,-2.903,-2.9138,-2.9007,-2.8731,-2.8496,-2.8402,-2.8376,-2.8324,-2.8376,-2.8485,-2.8428,-2.8597,-2.885,0.0,0.0,0.0,0.0,0.0,0.0,0.0,0.0,0.0,0.0,0.0,0.0,-1.7312,-1.7701,-1.7903,-1.7903,-1.7903,-1.7903,-1.7903,-1.7899,-1.7899,-1.7903,-1.7721,-1.7625,-1.7641,-1.7894,-1.7826,-1.7413,0.0,0.0,0.0,0.0,0.0,0.0,0.0,0.0,0.0,0.0,0.0,0.0,-2.2134,0.0,0.0,-2.3295,-2.3435,0.0,0.0,0.0,-2.3816,-2.3899,-2.3858,0.0,0.0,0.0,0.0,0.0,0.0,0.0,0.0,0.0,0.0,0.0,0.0,0.0,-2.2712,-2.2712,-2.2712,-2.2712,-2.2712,-2.2712,-2.2712,-2.2712,-2.2712,-2.2712,-2.2712,-2.2712,-2.2712,-2.2712,-2.2712,-2.2712,-2.3064,-2.3168,-2.2746,-2.3081,-2.315,-2.272,-2.2712,-2.2901,-2.3305,-2.4202,-2.4893,-2.5327,-2.6648,-2.8021,-2.9401,-2.9142,-2.9512,-3.0547,-2.9357,-2.8915,-2.9156,-2.9156,-2.9178,-2.924,-2.9347,-2.9262,-2.9003,-2.892,-2.8808,-2.8694,-2.8554,-2.8652,-2.8855,-2.8761,-2.8897,-2.9156,0.0,0.0,0.0,0.0,0.0,0.0,0.0,0.0,0.0,0.0,0.0,-1.744,-1.8155,-1.8858,-1.9301,-1.9301,-1.9301,-1.9301,-1.9298,-1.9311,-1.9292,-1.9301,-1.9102,-1.9034,-1.9099,-1.8984,-1.8985,-1.9087,0.0,0.0,0.0,0.0,0.0,0.0,0.0,0.0,0.0,0.0,0.0,-2.1097,-2.257,-2.3126,0.0,0.0,-2.3553,-2.3598,-2.3774,-2.3858,-2.3899,-2.4058,-2.4116,0.0,0.0,0.0,0.0,0.0,-2.3074,0.0,0.0,0.0,0.0,0.0,-2.2738,0.0,-2.2712,-2.2712,-2.2712,-2.2712,-2.2712,-2.2712,-2.2712,-2.2712,-2.2712,-2.2712,-2.2712,-2.2712,-2.2712,-2.2712,-2.2712,-2.2712,-2.2712,-2.2712,-2.2712,-2.2712,-2.2712,-2.2712,-2.2712,-2.2738,-2.2773,-2.3675,-2.4206,-2.4327,-2.6135,-2.7532,-2.8463,-2.8764,-2.9365,-3.0268,-2.9613,-2.9344,-2.9407,-2.9407,-2.932,-2.9195,-2.9342,-2.9317,-2.9177,-2.9342,-2.9262,-2.9026,-2.8737,-2.8943,-2.9386,-2.9134,-2.92,-2.9407,-1.1206,0.0,0.0,0.0,0.0,0.0,0.0,0.0,0.0,0.0,0.0,-1.8889,0.0,-1.9225,-1.9301,-1.9301,-1.9301,-1.9298,-1.9308,-1.9295,-1.9298,-1.9301,-1.915,-1.9082,-1.9099,-1.9069,-1.907,-1.9087,0.0,0.0,0.0,0.0,0.0,0.0,0.0,0.0,0.0,0.0,0.0,-2.2099,-2.3043,0.0,-2.3458,-2.3646,-2.3837,-2.3999,-2.4039,-2.4192,-2.4358,-2.4154,-2.4116,-2.4059,0.0,0.0,0.0,-2.3562,0.0,0.0,0.0,0.0,0.0,0.0,-2.302,0.0,-2.2764,-2.2712,-2.2712,-2.2712,-2.2712,-2.2712,-2.2712,-2.2712,-2.2712,-2.2712,-2.2712,-2.2712,-2.2712,-2.2712,-2.2712,-2.2712,-2.2712,-2.2712,-2.2712,-2.2712,-2.2712,-2.2712,-2.2712,-2.2859,-2.3248,-2.3323,-2.371,-2.4533,-2.4932,-2.5961,-2.7616,-2.77,-2.8288,-2.9418,-2.9336,-2.9344,-2.9407,-2.9407,-2.972,-3.0253,-2.9665,-2.9758,-3.0253,-2.9646,-2.9386,-2.9304,-2.9243,-2.9304,-2.9386,-2.9326,-2.9365,-2.9407,-1.2641,0.0,0.0,0.0,0.0,0.0,0.0,0.0,0.0,0.0,0.0,0.0,0.0,0.0,0.0,-1.9802,-2.0202,-2.0255,-1.9835,-2.0219,-2.0421,-2.0404,-2.0334,-2.0299,-2.03,-1.9901,-1.9703,-1.9703,0.0,0.0,0.0,0.0,0.0,0.0,0.0,0.0,0.0,0.0,-2.2013,-2.222,-2.3137,0.0,-2.3667,-2.3878,-2.4001,-2.4116,-2.4248,-2.4393,-2.4482,-2.4339,-2.4303,0.0,-2.4019,-2.4019,-2.4039,0.0,-2.3717,-2.3717,0.0,0.0,0.0,-2.3312,-2.3265,0.0,0.0,-2.3049,-2.3017,-2.2927,-2.2893,-2.2868,-2.2712,-2.2712,-2.2712,-2.2712,-2.2712,-2.2712,-2.2712,-2.2712,-2.2712,-2.2712,-2.2712,-2.2764,-2.2893,-2.279,-2.2764,-2.2893,-2.2993,-2.3153,-2.3392,-2.3312,-2.3466,-2.3998,-2.4526,-2.5252,-2.6204,-2.7128,-2.793,-2.8609,-2.9037,-2.9304,-2.9407,-2.9407,-2.9853,-3.0559,-2.976,-2.9872,-3.0541,-2.9741,-2.9407,-2.9407,-2.9407,-2.9407,-2.9407,-2.9407,-2.9407,-2.9407,-1.4171,0.0,0.0,0.0,0.0,0.0,0.0,0.0,0.0,0.0,0.0,0.0,0.0,0.0,0.0,0.0,0.0,-2.1402,-2.0658,-2.1295,-2.1442,-2.0843,-2.1298,-2.1352,-2.0862,-2.068,-2.0534,-2.037,0.0,0.0,0.0,0.0,0.0,0.0,0.0,0.0,0.0,0.0,0.0,-2.2428,0.0,-2.3664,-2.3837,-2.4078,-2.4173,-2.421,-2.4429,-2.45,-2.45,-2.45,-2.45,-2.4446,-2.4248,-2.4321,0.0,0.0,0.0,0.0,0.0,0.0,0.0,-2.3588,-2.3544,-2.3477,0.0,0.0,0.0,-2.3206,-2.3175,-2.3084,-2.2859,-2.2833,-2.2773,-2.2583,-2.2695,-2.2747,-2.2522,-2.2634,-2.2764,-2.2712,-2.2712,-2.279,-2.2995,-2.2842,-2.2842,-2.3133,-2.3265,-2.341,-2.3544,-2.3522,-2.35,-2.3544,-2.4389,-2.4856,-2.4856,-2.649,-2.7485,-2.7756,-2.8569,-2.9114,-2.9386,-2.9386,-2.9853,-3.0559,-2.976,-2.9872,-3.0541,-2.9741,-2.9407,-2.9407,-2.9407,-2.9407,-2.9407,-2.9407,-2.9407,-2.9407,-1.3756,-1.4118,0.0,0.0,0.0,0.0,0.0,0.0,0.0,0.0,0.0,0.0,0.0,0.0,0.0,0.0,0.0,0.0,-2.1747,0.0,0.0,-1.851,-2.0625,-2.0799,-1.8537,-2.0599,-2.1366,-2.0649,0.0,0.0,0.0,0.0,0.0,0.0,-1.8804,0.0,0.0,0.0,-2.0856,0.0,-2.3717,-2.3774,0.0,-2.4284,-2.4446,-2.4465,-2.45,-2.45,-2.45,-2.45,-2.45,-2.45,-2.4446,-2.4482,-2.4482,-2.4429,0.0,0.0,0.0,-2.4247,-2.4154,-2.3899,-2.3837,-2.3774,-2.3459,0.0,-2.3392,-2.3387,0.0,-2.3364,-2.3341,0.0,0.0,-2.213,-2.2735,-2.2947,-2.189,-2.2501,-2.297,-2.2738,-2.2712,-2.2712,-2.2738,-2.2712,-2.2884,-2.3341,-2.3212,-2.3417,-2.4074,-2.3896,-2.3858,-2.4094,-2.4243,-2.4279,-2.4279,-2.5217,-2.6066,-2.6845,-2.7738,-2.8556,-2.9323,-2.9365,-2.9853,-3.0559,-2.976,-2.9872,-3.0541,-2.9741,-2.9407,-2.9407,-2.9407,-2.9407,-2.9407,-2.9407,-2.9407,-2.9407,-1.4501,-1.4895,0.0,0.0,0.0,0.0,0.0,0.0,0.0,0.0,0.0,0.0,0.0,0.0,0.0,0.0,0.0,-2.3233,0.0,0.0,0.0,-2.1709,-2.2699,-2.2788,-2.1721,-2.229,-2.2434,-2.2101,-2.1953,0.0,0.0,0.0,0.0,0.0,-2.0879,0.0,-2.1259,0.0,-2.2501,0.0,0.0,-2.3961,0.0,-2.4375,-2.45,-2.45,-2.45,-2.45,-2.45,-2.45,-2.45,-2.45,-2.45,-2.45,-2.45,-2.45,0.0,0.0,0.0,-2.4412,-2.4321,-2.4172,-2.4096,-2.4037,-2.3896,-2.3858,-2.3816,-2.3671,0.0,0.0,0.0,0.0,0.0,0.0,-2.311,-2.3216,-2.2706,-2.3024,-2.314,-2.2764,-2.2842,-2.2944,-2.2944,-2.3042,-2.3177,-2.3392,-2.3473,-2.3707,-2.417,-2.4094,-2.4094,-2.4208,-2.419,-2.419,-2.419,-2.5017,-2.5608,-2.5999,-2.6851,-2.7705,-2.8604,-2.8625,-2.937,-3.0559,-2.976,-2.9872,-3.0541,-2.9741,-2.9407,-2.9407,-2.9407,-2.9407,-2.9407,-2.9407,-2.9407,-2.9407,-1.5801,0.0,0.0,0.0,0.0,0.0,0.0,0.0,0.0,0.0,0.0,0.0,-2.3122,-2.3521,0.0,0.0,-2.4241,-2.4302,0.0,0.0,-2.4131,-2.3412,-2.404,-2.4095,-2.3444,-2.35,-2.3425,-2.3203,0.0,0.0,0.0,0.0,0.0,0.0,0.0,-2.2392,-2.1514,0.0,-2.3299,-2.3881,-2.4058,-2.4135,-2.4229,-2.4429,-2.45,-2.45,-2.45,-2.45,-2.45,-2.45,-2.45,-2.45,-2.45,-2.45,-2.45,-2.45,0.0,0.0,-2.45,-2.4465,-2.4412,-2.4321,-2.4266,-2.4229,-2.4209,-2.419,-2.4133,-2.3937,-2.3917,0.0,0.0,0.0,-2.3516,-2.3257,0.0,-2.3494,-2.3151,-2.3334,-2.3364,-2.2943,-2.306,-2.3182,-2.3182,-2.3294,-2.3414,-2.3482,-2.3692,-2.3917,-2.419,-2.419,-2.419,-2.419,-2.419,-2.419,-2.419,-2.4778,-2.5222,-2.5521,-2.6113,-2.6874,-2.7732,-2.7751,-2.857,-2.989,-2.9314,-2.9518,-3.0243,-2.9649,-2.9407,-2.9407,-2.9407,-2.9407,-2.9407,-2.9407,-2.9407,-2.9407,-1.7531,-1.7479,0.0,0.0,0.0,0.0,0.0,0.0,0.0,0.0,0.0,0.0,0.0,0.0,0.0,0.0,0.0,-2.4926,-2.4586,0.0,-2.3648,-2.1125,-2.3371,-2.3581,0.0,0.0,-2.426,-2.3487,0.0,0.0,0.0,0.0,0.0,0.0,0.0,-2.1842,-2.3916,-2.1532,-2.1898,-2.4097,-2.4097,-2.4248,-2.45,-2.45,-2.45,-2.45,-2.45,-2.45,-2.45,-2.45,-2.45,-2.45,-2.45,-2.45,-2.45,-2.45,-2.45,-2.45,-2.45,-2.45,-2.4465,-2.4321,-2.4284,-2.4284,-2.4209,-2.419,-2.4208,-2.419,-2.419,-2.417,-2.417,-2.417,-2.3856,-2.2879,-2.3543,0.0,0.0,-2.3163,-2.3692,-2.3414,-2.3392,-2.3392,-2.3392,-2.3392,-2.3522,-2.3774,-2.3795,-2.3917,-2.419,-2.419,-2.419,-2.419,-2.419,-2.419,-2.419,-2.4228,-2.4671,-2.55,-2.5596,-2.606,-2.6838,-2.6915,-2.7399,-2.8179,-2.8142,-2.8645,-2.9444,-2.9407,-2.9407,-2.9407,-2.9407,-2.9407,-2.9407,-2.9407,-2.9407,-2.9407,0.0,0.0,0.0,0.0,0.0,0.0,0.0,-2.0845,0.0,0.0,-2.2884,0.0,0.0,-2.4728,-2.4912,0.0,0.0,-2.4813,-2.4734,-2.4734,0.0,-2.3516,-2.4272,-2.4343,0.0,0.0,0.0,0.0,0.0,0.0,0.0,0.0,0.0,0.0,0.0,-2.3665,0.0,0.0,0.0,0.0,0.0,-2.4393,-2.4447,-2.4482,-2.45,-2.45,-2.45,-2.45,-2.45,-2.45,-2.45,-2.45,-2.45,-2.45,-2.45,-2.45,-2.45,-2.45,-2.45,-2.45,-2.4482,-2.4394,-2.4339,-2.4284,-2.421,-2.419,-2.419,-2.419,-2.419,-2.419,-2.419,-2.419,-2.4079,-2.3746,-2.3968,-2.4059,0.0,-2.3852,-2.4016,-2.3937,-2.3628,-2.3459,-2.3649,-2.3482,-2.3522,-2.3774,-2.3795,-2.3917,-2.419,-2.419,-2.419,-2.419,-2.419,-2.419,-2.419,-2.4191,-2.4358,-2.4709,-2.4783,-2.5264,-2.6061,-2.6098,-2.6842,-2.8086,-2.8086,-2.8608,-2.9407,-2.9407,-2.9407,-2.9407,-2.9407,-2.9407,-2.9407,-2.9407,-2.9407,-2.9407,-1.9358,0.0,0.0,0.0,0.0,0.0,0.0,0.0,0.0,0.0,-2.3345,0.0,-2.4872,0.0,-2.4929,0.0,-2.4874,-2.4823,-2.4818,-2.4749,0.0,-2.4837,-2.4794,-2.4794,0.0,0.0,0.0,0.0,0.0,-2.4707,0.0,0.0,0.0,0.0,0.0,-2.4566,-2.45,-2.4515,-2.4532,0.0,0.0,-2.4564,-2.458,-2.4582,-2.4534,-2.4465,-2.45,-2.4534,-2.4566,-2.4566,-2.4596,-2.4645,-2.4645,-2.4645,-2.4645,-2.4645,-2.4645,-2.4645,-2.4645,-2.4645,-2.4629,-2.4561,-2.451,-2.4459,-2.4319,-2.4321,-2.4284,-2.4266,-2.4247,-2.4247,-2.4247,-2.4228,-2.419,-2.419,-2.4209,-2.419,0.0,-2.419,-2.419,-2.419,-2.3896,-2.3735,-2.3917,-2.3795,-2.3774,-2.3917,-2.3937,-2.4016,-2.419,-2.419,-2.419,-2.419,-2.419,-2.419,-2.419,-2.4191,-2.4229,-2.4284,-2.4376,-2.4708,-2.528,-2.528,-2.6005,-2.7269,-2.7567,-2.8161,-2.8961,-2.9277,-2.9407,-2.9407,-2.9407,-2.9407,-2.9407,-2.9407,-2.9388,-2.9409,-2.0192,0.0,0.0,0.0,-2.2142,0.0,0.0,0.0,-2.3474,0.0,-2.3874,-2.4861,-2.5006,-2.508,-2.5096,-2.5096,-2.5043,-2.4981,-2.4915,-2.4794,0.0,0.0,-2.4915,-2.4915,-2.4915,0.0,0.0,0.0,0.0,0.0,0.0,0.0,0.0,0.0,-2.4528,0.0,-2.4332,-2.4461,-2.4582,-2.4723,-2.4723,-2.4794,-2.4888,-2.4749,-2.458,-2.4447,-2.45,-2.4615,-2.4723,-2.4723,-2.4775,-2.4902,-2.4902,-2.4902,-2.4902,-2.4902,-2.4902,-2.4902,-2.4902,-2.4902,-2.4883,-2.4823,-2.479,-2.4747,-2.457,-2.4522,-2.4491,-2.4338,-2.4321,-2.4321,-2.4303,-2.4266,-2.421,-2.421,-2.4209,-2.419,-2.419,-2.419,-2.419,-2.419,-2.419,-2.419,-2.419,-2.419,-2.419,-2.419,-2.419,-2.419,-2.419,-2.419,-2.419,-2.419,-2.419,-2.419,-2.419,-2.4191,-2.4247,-2.4284,-2.4358,-2.4447,-2.45,-2.45,-2.4946,-2.5745,-2.6507,-2.7306,-2.8104,-2.8979,-2.9351,-2.9351,-2.9388,-2.9407,-2.9407,-2.9407,-2.939,-2.9412,-2.0208,-2.1148,-2.2227,0.0,-2.3355,-2.332,0.0,0.0,0.0,0.0,-2.4824,-2.5182,-2.5225,-2.5194,-2.5173,-2.5171,-2.5115,0.0,0.0,0.0,0.0,-2.5126,-2.5084,-2.5065,-2.5126,-2.4981,-2.4888,-2.4847,0.0,0.0,-2.4707,0.0,0.0,0.0,0.0,0.0,-2.1894,-2.3811,-2.4719,-2.4847,-2.4847,-2.4828,-2.4823,-2.4828,-2.4804,-2.4712,-2.4775,-2.4818,-2.4847,-2.4847,-2.4874,-2.4902,-2.4902,-2.4902,-2.4902,-2.4902,-2.4902,-2.4902,-2.4902,-2.4902,-2.4902,-2.4869,-2.4836,-2.4795,-2.4733,-2.4723,-2.4712,-2.4685,-2.467,-2.4639,-2.4474,-2.4442,-2.4374,-2.4229,-2.4209,-2.419,-2.419,-2.419,-2.419,-2.419,-2.4209,-2.4209,-2.419,-2.419,-2.419,-2.419,-2.419,-2.419,-2.419,-2.419,-2.419,-2.419,-2.419,-2.419,-2.419,-2.4247,-2.4284,-2.4284,-2.4411,-2.4482,-2.45,-2.45,-2.4946,-2.5708,-2.5931,-2.647,-2.7269,-2.8106,-2.844,-2.8515,-2.9165,-2.9409,-2.9411,-2.9411,-2.9471,-2.955,-2.086,-2.2141,0.0,-2.3807,0.0,-2.4255,-2.3821,-2.4473,0.0,-2.4522,-2.4941,0.0,-2.5264,-2.5274,-2.5303,-2.5332,-2.5243,0.0,-2.5182,0.0,0.0,-2.5192,-2.5194,-2.5194,-2.5192,-2.5115,0.0,-2.4902,0.0,0.0,-2.4707,0.0,0.0,0.0,0.0,-2.3715,-2.2526,-2.4103,-2.4861,-2.4994,-2.4994,-2.5,0.0,-2.4987,-2.5,-2.5018,-2.5049,-2.5043,-2.4994,-2.4994,-2.5031,-2.508,-2.508,-2.508,-2.508,-2.508,-2.508,-2.508,-2.508,-2.508,-2.508,-2.508,-2.5049,-2.4993,-2.4943,-2.4936,-2.491,-2.4861,-2.4847,-2.4818,-2.4712,-2.4588,-2.4424,-2.4229,-2.4191,-2.4209,-2.4228,-2.4209,-2.4209,-2.4209,-2.4209,-2.4209,-2.419,-2.4228,-2.4228,-2.419,-2.419,-2.419,-2.419,-2.419,-2.419,-2.419,-2.419,-2.4209,-2.4209,-2.4229,-2.4284,-2.4339,-2.443,-2.4465,-2.45,-2.45,-2.4741,-2.5206,-2.5559,-2.5968,-2.6451,-2.7251,-2.777,-2.8199,-2.9074,-2.9411,-2.9453,-2.9491,-2.9511,-2.955,-2.2004,0.0,0.0,0.0,0.0,0.0,-2.4132,-2.4614,-2.4801,-2.4102,-2.4732,-2.5244,-2.5234,-2.5331,-2.5432,-2.5484,-2.5397,-2.5322,-2.5322,-2.5215,-2.5184,-2.5243,-2.5293,-2.5303,-2.5243,-2.5274,-2.519,-2.4955,0.0,0.0,0.0,0.0,0.0,0.0,0.0,0.0,0.0,-2.4478,-2.4714,-2.5138,-2.5138,-2.5212,-2.5293,-2.5171,-2.5192,-2.5303,-2.5303,-2.5233,-2.5138,-2.5138,-2.5192,-2.5303,-2.5303,-2.5303,-2.5303,-2.5303,-2.5303,-2.5303,-2.5303,-2.5303,-2.5303,-2.5303,-2.5303,-2.5264,-2.5149,-2.5138,-2.5084,-2.4981,-2.4955,-2.4955,-2.4942,-2.4708,-2.4472,-2.4266,-2.4229,-2.4266,-2.4338,-2.4302,0.0,0.0,-2.4247,0.0,-2.4209,-2.4247,-2.4266,-2.419,-2.4209,-2.4191,-2.4209,-2.4209,-2.4209,-2.4209,-2.4209,-2.4209,-2.421,-2.421,-2.4284,-2.4394,-2.4412,-2.4447,-2.45,-2.45,-2.45,-2.4537,-2.5243,-2.554,-2.5615,-2.6414,-2.7288,-2.8199,-2.9057,-2.9453,-2.9512,-2.9588,-2.9588,-2.9531,-2.3638,0.0,0.0,0.0,0.0,-2.5255,-2.5138,-2.5234,-2.5272,-2.5146,-2.5356,-2.551,-2.5456,-2.5468,-2.5499,-2.5511,-2.5476,-2.5468,-2.5468,-2.5429,-2.5448,-2.5459,-2.5464,-2.5464,-2.5459,-2.5351,-2.5293,-2.5233,-2.5019,0.0,0.0,0.0,0.0,0.0,0.0,0.0,-2.4714,-2.2863,-2.3314,-2.5264,-2.5264,-2.5274,-2.5303,-2.5264,-2.5274,-2.5303,-2.5303,-2.5274,-2.5264,-2.5264,-2.5274,-2.5303,-2.5303,-2.5303,-2.5303,-2.5303,-2.5303,-2.5303,-2.5303,-2.5303,-2.5303,-2.5303,-2.5303,-2.5284,-2.5264,-2.5264,-2.5253,-2.5233,-2.5233,-2.5201,-2.5091,-2.4891,-2.4674,-2.4472,-2.4439,-2.4524,-2.47,-2.4556,0.0,0.0,-2.451,-2.4442,-2.421,-2.4209,-2.4209,-2.419,-2.4209,-2.419,-2.421,-2.421,-2.4229,-2.4284,-2.4284,-2.4266,-2.4284,-2.4339,-2.4394,-2.4394,-2.4465,-2.4482,-2.45,-2.45,-2.45,-2.4518,-2.4648,-2.4704,-2.4778,-2.5578,-2.6786,-2.8199,-2.9136,-2.9492,-2.9512,-2.9645,-2.9683,-2.9664,-2.4723,0.0,0.0,0.0,0.0,-2.5429,-2.549,-2.5498,-2.5483,-2.541,-2.5495,-2.551,-2.5406,-2.5453,-2.5499,-2.5511,-2.5511,-2.5511,-2.5511,-2.5507,-2.5507,-2.5511,-2.5507,-2.5507,-2.5511,-2.5451,-2.5379,-2.5303,-2.516,-2.508,-2.5,-2.4896,0.0,0.0,0.0,-2.4823,0.0,-2.3837,-2.413,-2.5351,-2.5313,-2.5303,-2.5303,-2.5303,-2.5303,-2.5303,-2.5303,-2.5303,-2.5303,-2.5303,-2.5303,-2.5303,-2.5303,-2.5303,-2.5303,-2.5303,-2.5303,-2.5303,-2.5303,-2.5303,-2.5303,-2.5303,-2.5303,-2.5303,-2.5303,-2.5303,-2.5303,-2.5303,-2.5303,-2.5253,-2.5077,-2.4962,-2.4858,-2.4674,-2.4644,-2.4708,-2.4828,-2.4737,-2.4644,-2.4644,0.0,0.0,-2.4372,-2.4355,-2.4302,-2.4209,-2.4228,-2.4247,-2.4247,-2.4266,-2.4266,-2.4284,-2.4284,-2.4321,-2.4339,-2.4375,-2.4412,-2.4447,-2.4482,-2.45,-2.45,-2.45,-2.45,-2.45,-2.45,-2.45,-2.4555,-2.5373,-2.6191,-2.7009,-2.7905,-2.854,-2.8952,-2.8989,-2.9307,-2.9701,0.0,-2.5525,0.0,0.0,-2.5525,-2.5537,-2.5595,-2.56,-2.5568,-2.5468,-2.5476,-2.5461,-2.5346,-2.5448,-2.5511,-2.5511,-2.5511,-2.5511,-2.5511,-2.5499,-2.5507,-2.5511,-2.5499,-2.5507,-2.5511,-2.5511,-2.5451,-2.5341,-2.5313,-2.5243,-2.5138,-2.5072,0.0,0.0,-2.4956,-2.4998,-2.5122,-2.5143,-2.5264,-2.5398,-2.5322,-2.5303,-2.5303,-2.5303,-2.5303,-2.5303,-2.5303,-2.5303,-2.5303,-2.5303,-2.5303,-2.5303,-2.5303,-2.5303,-2.5303,-2.5303,-2.5303,-2.5303,-2.5303,-2.5303,-2.5303,-2.5303,-2.5303,-2.5303,-2.5303,-2.5303,-2.5303,-2.5303,-2.5303,-2.5234,-2.5065,-2.5034,-2.501,-2.4891,-2.4858,-2.4891,-2.4962,-2.4896,-2.4836,-2.4864,0.0,-2.4712,-2.4586,-2.4505,-2.4424,-2.4284,-2.4284,-2.4321,-2.4321,-2.4321,-2.4339,-2.4339,-2.4339,-2.4358,-2.443,-2.443,-2.4447,-2.45,-2.45,-2.45,-2.45,-2.45,-2.45,-2.4498,-2.4498,-2.4517,-2.459,-2.5391,-2.5744,-2.5872,-2.6765,-2.753,-2.8128,-2.8126,-2.8688,-2.942,0.0,0.0,0.0,-2.5583,-2.5583,-2.5581,-2.5603,-2.5603,-2.56,-2.5587,-2.5531,-2.5511,-2.5485,-2.5488,-2.5511,-2.5511,-2.5511,-2.5511,-2.5511,-2.5492,-2.5492,-2.5511,-2.5492,-2.5492,-2.5511,-2.5511,-2.5484,-2.5476,-2.5351,-2.5293,-2.5282,-2.5141,-2.505,-2.5006,-2.5053,-2.5111,-2.5192,-2.5313,-2.5389,-2.5398,-2.5322,-2.5303,-2.5303,-2.5303,-2.5303,-2.5303,-2.5303,-2.5303,-2.5303,-2.5303,-2.5303,-2.5303,-2.5303,-2.5303,-2.5303,-2.5303,-2.5303,-2.5303,-2.5303,-2.5303,-2.5303,-2.5303,-2.5303,-2.5303,-2.5303,-2.5303,-2.5303,-2.5303,-2.5303,-2.5253,-2.5126,-2.5192,-2.5233,-2.5084,-2.5072,-2.5126,-2.5243,-2.5056,-2.4955,-2.5061,-2.4861,-2.4734,-2.478,-2.4543,-2.4445,-2.4559,-2.4392,-2.4339,-2.4394,-2.4394,-2.443,-2.4482,-2.4482,-2.4482,-2.4482,-2.4482,-2.45,-2.45,-2.45,-2.45,-2.45,-2.45,-2.4498,-2.4495,-2.4495,-2.453,-2.4638,-2.5462,-2.5779,-2.5887,-2.6763,-2.7155,-2.723,-2.73,-2.7843,-2.8519,-2.5603,-2.5601,-2.5603,-2.5592,-2.5592,-2.5609,-2.5609,-2.5609,-2.5603,-2.5597,-2.5582,-2.5565,-2.5561,-2.5523,-2.5492,-2.5492,-2.5511,-2.5511,-2.5511,-2.5511,-2.5511,-2.5511,-2.5511,-2.5511,-2.5511,-2.5511,-2.5511,-2.5511,-2.5451,-2.5415,-2.5425,-2.5361,-2.5293,-2.5235,-2.5265,-2.5283,-2.5312,-2.5387,-2.5395,-2.5395,-2.537,-2.5361,-2.5351,-2.5313,-2.5303,-2.5303,-2.5303,-2.5303,-2.5303,-2.5303,-2.5303,-2.5303,-2.5303,-2.5303,-2.5303,-2.5303,-2.5303,-2.5303,-2.5303,-2.5303,-2.5303,-2.5303,-2.5303,-2.5303,-2.5303,-2.5303,-2.5303,-2.5303,-2.5303,-2.5274,-2.5233,-2.5264,-2.5274,-2.5233,-2.5222,-2.5243,-2.5284,-2.5212,-2.516,-2.5203,-2.5126,-2.5043,-2.5,-2.4799,-2.4704,-2.4657,-2.4462,-2.4394,-2.4465,-2.4465,-2.4465,-2.45,-2.45,-2.45,-2.45,-2.45,-2.45,-2.45,-2.45,-2.45,-2.45,-2.45,-2.4498,-2.4495,-2.4547,-2.4582,-2.4617,-2.4937,-2.5103,-2.5171,-2.5508,-2.5991,-2.6456,-2.6472,-2.7298,-2.8388,-2.5642,-2.5622,-2.5622,-2.5623,-2.5623,-2.5622,-2.5622,-2.5622,-2.5622,-2.5622,-2.5621,-2.5611,-2.5605,-2.5556,-2.5529,-2.5499,-2.5511,-2.5511,-2.5511,-2.5511,-2.5511,-2.5511,-2.5511,-2.5511,-2.5511,-2.5511,-2.5511,-2.5511,-2.5511,-2.5503,-2.5495,-2.5495,-2.5448,-2.5401,-2.5401,-2.5401,-2.5429,-2.5401,-2.5401,-2.5401,-2.5397,-2.5398,-2.5389,-2.5341,-2.5303,-2.5303,-2.5303,-2.5303,-2.5303,-2.5303,-2.5303,-2.5303,-2.5303,-2.5303,-2.5303,-2.5303,-2.5303,-2.5303,-2.5303,-2.5303,-2.5303,-2.5303,-2.5303,-2.5303,-2.5303,-2.5303,-2.5303,-2.5303,-2.5303,-2.5303,-2.5303,-2.5303,-2.5303,-2.5303,-2.5303,-2.5303,-2.5303,-2.5264,-2.5243,-2.5243,-2.516,-2.5115,-2.5096,-2.4915,-2.4779,-2.4764,-2.4547,-2.4447,-2.45,-2.45,-2.45,-2.45,-2.45,-2.45,-2.45,-2.45,-2.45,-2.45,-2.45,-2.45,-2.45,-2.4534,-2.4532,-2.4528,-2.4599,-2.4631,-2.4631,-2.4631,-2.4666,-2.4698,-2.4698,-2.5086,-2.5625,-2.5625,-2.6641,-2.805,-2.5701,-2.5702,-2.57,-2.5705,-2.5705,-2.5707,-2.5707,-2.5707,-2.5707,-2.5707,-2.5707,-2.5663,-2.5613,-2.5601,-2.5561,-2.5507,-2.5511,-2.5511,-2.5511,-2.5511,-2.5511,-2.5511,-2.5511,-2.5511,-2.5511,-2.5511,-2.5511,-2.5511,-2.5511,-2.5495,-2.5509,-2.5509,-2.5451,-2.5401,-2.5401,-2.5429,-2.5484,-2.5429,-2.5401,-2.5401,-2.5397,-2.5398,-2.5389,-2.5341,-2.5303,-2.5303,-2.5303,-2.5303,-2.5303,-2.5303,-2.5303,-2.5303,-2.5303,-2.5303,-2.5303,-2.5303,-2.5303,-2.5303,-2.5303,-2.5303,-2.5303,-2.5303,-2.5303,-2.5303,-2.5303,-2.5303,-2.5303,-2.5303,-2.5303,-2.5303,-2.5303,-2.5303,-2.5303,-2.5303,-2.5303,-2.5303,-2.5303,-2.5182,-2.5096,-2.5096,-2.4874,-2.4804,-2.5061,-2.4749,-2.4613,-2.4874,-2.466,-2.45,-2.45,-2.45,-2.45,-2.45,-2.45,-2.45,-2.45,-2.45,-2.45,-2.45,-2.45,-2.45,-2.45,-2.4566,-2.4599,-2.4599,-2.4666,-2.4714,-2.4692,-2.4698,-2.4714,-2.4707,-2.4707,-2.4707,-2.4726,-2.4726,-2.5778,-2.7204,-2.5703,-2.5707,-2.5709,-2.5705,-2.5705,-2.5707,-2.5707,-2.5707,-2.5707,-2.5707,-2.5707,-2.5696,-2.5663,-2.5662,-2.5659,-2.564,-2.5587,-2.5569,-2.5569,-2.5569,-2.5569,-2.5569,-2.5569,-2.5569,-2.5569,-2.5569,-2.5569,-2.5569,-2.5569,-2.5563,-2.5565,-2.5568,-2.5553,-2.5542,-2.5542,-2.5542,-2.5569,-2.5542,-2.5542,-2.5542,-2.5549,-2.5536,-2.5541,-2.5452,-2.5403,-2.5365,-2.5365,-2.535,-2.5303,-2.5303,-2.5303,-2.5303,-2.5303,-2.5303,-2.5303,-2.5303,-2.5303,-2.5303,-2.5303,-2.5303,-2.5303,-2.5303,-2.5303,-2.5303,-2.5303,-2.5303,-2.5303,-2.5303,-2.5303,-2.5303,-2.5303,-2.5303,-2.5303,-2.5303,-2.5303,-2.5303,-2.5303,-2.5264,-2.5243,-2.5243,-2.5149,-2.5138,-2.5233,-2.5043,-2.4915,-2.4902,-2.4734,-2.4599,-2.45,-2.45,-2.45,-2.45,-2.45,-2.45,-2.45,-2.45,-2.45,-2.45,-2.4515,-2.4513,-2.4566,-2.465,-2.4666,-2.4666,-2.4695,-2.4692,-2.4707,-2.4711,-2.4692,-2.4707,-2.4707,-2.4707,-2.4707,-2.4707,-2.5759,-2.7204,-2.569,-2.5696,-2.5701,-2.5707,-2.5707,-2.5707,-2.5707,-2.5707,-2.5707,-2.5707,-2.5707,-2.5709,-2.5696,-2.57,-2.5703,-2.5703,-2.5665,-2.5624,-2.5596,-2.5596,-2.5596,-2.5596,-2.5596,-2.5596,-2.5596,-2.5596,-2.5596,-2.5596,-2.5638,-2.5628,-2.5601,-2.5634,-2.5624,-2.5596,-2.5596,-2.5596,-2.5596,-2.5596,-2.5596,-2.5596,-2.5599,-2.5599,-2.5582,-2.554,-2.5459,-2.5441,-2.5446,-2.5387,-2.534,-2.534,-2.5322,-2.5303,-2.5303,-2.5303,-2.5303,-2.5303,-2.5303,-2.5303,-2.5303,-2.5303,-2.5303,-2.5303,-2.5303,-2.5303,-2.5303,-2.5303,-2.5303,-2.5303,-2.5303,-2.5303,-2.5303,-2.5303,-2.5303,-2.5303,-2.5303,-2.5303,-2.5303,-2.5303,-2.5274,-2.5233,-2.5214,-2.5214,-2.5214,-2.5068,-2.4942,-2.4902,-2.4719,-2.4599,-2.45,-2.4498,-2.4498,-2.4498,-2.4515,-2.4551,-2.4551,-2.4515,-2.4515,-2.4551,-2.453,-2.4564,-2.4599,-2.4666,-2.4701,-2.4701,-2.4711,-2.4707,-2.4707,-2.4707,-2.4707,-2.4707,-2.4707,-2.4707,-2.4707,-2.4707,-2.5571,-2.6754,-2.5696,-2.5701,-2.5701,-2.5707,-2.5707,-2.5707,-2.5707,-2.5707,-2.5707,-2.5707,-2.5707,-2.5707,-2.5707,-2.57,-2.5703,-2.5703,-2.5703,-2.5679,-2.5613,-2.5609,-2.5609,-2.5609,-2.5609,-2.5609,-2.5609,-2.5609,-2.5609,-2.5609,-2.5667,-2.5673,-2.5613,-2.5679,-2.5676,-2.5609,-2.5609,-2.5609,-2.5609,-2.5609,-2.5609,-2.5609,-2.5609,-2.5617,-2.5604,-2.5546,-2.5507,-2.5503,-2.5507,-2.5467,-2.5414,-2.5395,-2.5357,-2.5313,-2.5313,-2.5303,-2.5303,-2.5303,-2.5303,-2.5303,-2.5303,-2.5303,-2.5303,-2.5303,-2.5303,-2.5303,-2.5303,-2.5303,-2.5303,-2.5303,-2.5303,-2.5303,-2.5303,-2.5303,-2.5303,-2.5303,-2.5303,-2.5303,-2.5303,-2.5303,-2.5253,-2.5138,-2.5107,-2.5107,-2.5107,-2.4888,-2.4794,-2.4888,-2.4657,-2.4515,-2.45,-2.4497,-2.4495,-2.4495,-2.4564,-2.4599,-2.4599,-2.4547,-2.4547,-2.4615,-2.4615,-2.4615,-2.4615,-2.4666,-2.4717,-2.4698,-2.4711,-2.4707,-2.4707,-2.4707,-2.4707,-2.4707,-2.4707,-2.4707,-2.4707,-2.4707,-2.5252,-2.6,-2.5698,-2.5703,-2.5705,-2.5707,-2.5707,-2.5707,-2.5707,-2.5707,-2.5707,-2.5707,-2.5707,-2.5707,-2.5707,-2.5691,-2.5698,-2.5703,-2.5703,-2.5683,-2.5681,-2.568,-2.568,-2.568,-2.568,-2.568,-2.568,-2.568,-2.568,-2.568,-2.5693,-2.5693,-2.5681,-2.5683,-2.5683,-2.568,-2.568,-2.568,-2.568,-2.568,-2.568,-2.568,-2.568,-2.568,-2.5677,-2.5654,-2.5627,-2.5579,-2.5573,-2.5526,-2.5473,-2.541,-2.5398,-2.5365,-2.5313,-2.5303,-2.5303,-2.5303,-2.5303,-2.5303,-2.5303,-2.5303,-2.5303,-2.5303,-2.5303,-2.5303,-2.5303,-2.5303,-2.5303,-2.5303,-2.5303,-2.5303,-2.5303,-2.5303,-2.5303,-2.5303,-2.5303,-2.5303,-2.5303,-2.5303,-2.5293,-2.5253,-2.5253,-2.5253,-2.5253,-2.5252,-2.5145,-2.4915,-2.4842,-2.4712,-2.4495,-2.4495,-2.4495,-2.4495,-2.4512,-2.4547,-2.4599,-2.458,-2.4615,-2.4666,-2.4666,-2.4682,-2.4676,-2.4692,-2.4711,-2.4711,-2.4692,-2.4707,-2.4707,-2.4707,-2.4707,-2.4707,-2.4707,-2.4707,-2.4707,-2.4707,-2.5252,-2.5984,-2.5655,-2.5645,-2.5654,-2.5685,-2.5707,-2.5707,-2.5707,-2.5707,-2.5707,-2.5707,-2.5707,-2.5707,-2.5707,-2.5707,-2.5693,-2.5702,-2.5703,-2.5703,-2.5703,-2.5703,-2.5703,-2.5703,-2.5703,-2.5703,-2.5703,-2.5703,-2.5703,-2.5703,-2.5703,-2.5703,-2.5703,-2.5703,-2.5703,-2.5703,-2.5703,-2.5703,-2.5703,-2.5703,-2.5703,-2.5703,-2.5703,-2.5703,-2.5703,-2.5703,-2.5681,-2.5655,-2.565,-2.56,-2.5532,-2.5473,-2.5425,-2.5398,-2.5322,-2.5303,-2.5303,-2.5303,-2.5303,-2.5303,-2.5303,-2.5303,-2.5303,-2.5303,-2.5303,-2.5303,-2.5303,-2.5303,-2.5303,-2.5303,-2.5303,-2.5303,-2.5303,-2.5303,-2.5303,-2.5303,-2.5303,-2.5303,-2.5303,-2.5303,-2.5303,-2.5303,-2.5303,-2.5313,-2.5351,-2.5303,-2.5171,-2.4968,-2.4883,-2.4756,-2.4512,-2.4528,-2.4564,-2.4599,-2.4599,-2.4615,-2.4663,-2.4663,-2.4663,-2.4701,-2.4698,-2.4711,-2.4707,-2.4707,-2.4707,-2.4707,-2.4707,-2.4707,-2.4707,-2.4707,-2.4707,-2.4692,-2.4626,-2.461,-2.461,-2.461,-2.4909,-2.5302,-2.5566,-2.5585,-2.5601,-2.5651,-2.5676,-2.5679,-2.5681,-2.5683,-2.5683,-2.5707,-2.5707,-2.5707,-2.5707,-2.5707,-2.5691,-2.5698,-2.5702,-2.5703,-2.5703,-2.5703,-2.5703,-2.5703,-2.5703,-2.5703,-2.5703,-2.5703,-2.5703,-2.5703,-2.5703,-2.5703,-2.5703,-2.5703,-2.5703,-2.5703,-2.5703,-2.5703,-2.5703,-2.5703,-2.5703,-2.5703,-2.5703,-2.5703,-2.5703,-2.5703,-2.5703,-2.57,-2.5691,-2.5654,-2.5605,-2.5537,-2.548,-2.541,-2.5348,-2.5322,-2.5313,-2.5313,-2.5322,-2.5303,-2.5303,-2.5303,-2.5303,-2.5303,-2.5303,-2.5303,-2.5303,-2.5303,-2.5303,-2.5303,-2.5303,-2.5303,-2.5303,-2.5303,-2.5303,-2.5303,-2.5303,-2.5303,-2.5303,-2.5303,-2.5303,-2.5303,-2.5303,-2.5341,-2.5398,-2.5244,-2.5111,-2.5043,-2.4915,-2.4741,-2.4559,-2.458,-2.4631,-2.4698,-2.4701,-2.4698,-2.4707,-2.4707,-2.4711,-2.4698,-2.4711,-2.4707,-2.4707,-2.4707,-2.4707,-2.4707,-2.4707,-2.4707,-2.4707,-2.4707,-2.4707,-2.4692,-2.4545,-2.4495,-2.4495,-2.4478,-2.4461,-2.4478,-2.551,-2.5515,-2.5521,-2.5526,-2.5532,-2.5547,-2.5605,-2.5609,-2.5642,-2.5685,-2.5707,-2.5707,-2.5707,-2.5707,-2.5707,-2.5709,-2.5698,-2.5702,-2.5703,-2.5703,-2.5703,-2.5703,-2.5703,-2.5703,-2.5703,-2.5703,-2.5703,-2.5703,-2.5703,-2.5703,-2.5703,-2.5703,-2.5703,-2.5703,-2.5703,-2.5703,-2.5703,-2.5703,-2.5703,-2.5703,-2.5703,-2.5703,-2.5703,-2.5703,-2.5703,-2.5703,-2.5694,-2.5685,-2.5679,-2.5605,-2.5585,-2.5552,-2.5492,-2.5425,-2.5371,-2.5371,-2.533,-2.5303,-2.5303,-2.5303,-2.5303,-2.5303,-2.5303,-2.5303,-2.5303,-2.5303,-2.5303,-2.5303,-2.5303,-2.5303,-2.5303,-2.5303,-2.5303,-2.5303,-2.5303,-2.5303,-2.5303,-2.5303,-2.5303,-2.5303,-2.5303,-2.5341,-2.5398,-2.536,-2.5303,-2.5171,-2.5041,-2.4911,-2.4766,-2.4657,-2.4631,-2.4692,-2.4698,-2.4698,-2.4707,-2.4707,-2.4707,-2.4692,-2.4707,-2.4707,-2.4707,-2.4707,-2.4707,-2.4707,-2.4707,-2.4707,-2.4707,-2.4707,-2.4707,-2.4692,-2.4545,-2.4495,-2.4495,-2.4375,-2.4321,-2.4321,-2.5391,-2.5413,-2.546,-2.5498,-2.5504,-2.551,-2.5537,-2.5542,-2.5552,-2.5593,-2.5598,-2.5605,-2.5645,-2.5645,-2.5654,-2.5705,-2.5691,-2.5696,-2.5698,-2.5703,-2.5703,-2.5703,-2.5703,-2.5703,-2.5703,-2.5703,-2.5703,-2.5703,-2.5703,-2.5703,-2.5703,-2.5703,-2.5703,-2.5703,-2.5703,-2.5703,-2.5703,-2.5703,-2.5703,-2.5703,-2.5703,-2.5703,-2.5703,-2.5703,-2.5703,-2.5703,-2.5701,-2.5696,-2.5685,-2.5615,-2.559,-2.5584,-2.5513,-2.5479,-2.5453,-2.5453,-2.5382,-2.5303,-2.5303,-2.5303,-2.5303,-2.5303,-2.5303,-2.5303,-2.5303,-2.5303,-2.5303,-2.5303,-2.5303,-2.5303,-2.5303,-2.5303,-2.5303,-2.5303,-2.5303,-2.5303,-2.5303,-2.5303,-2.5303,-2.5303,-2.5322,-2.5361,-2.5397,-2.5395,-2.535,-2.5264,-2.513,-2.4981,-2.4804,-2.47,-2.4679,-2.4695,-2.4695,-2.4711,-2.4707,-2.4707,-2.4707,-2.4707,-2.4707,-2.4707,-2.4707,-2.4707,-2.4707,-2.4707,-2.4707,-2.4707,-2.4707,-2.4707,-2.4707,-2.4676,-2.4461,-2.4374,-2.4375,-2.4229,-2.419,-2.4265,-2.5264,-2.5329,-2.5398,-2.5439,-2.5453,-2.546,-2.5473,-2.548,-2.5486,-2.5498,-2.5504,-2.5521,-2.5561,-2.5585,-2.5601,-2.5676,-2.5679,-2.5681,-2.5707,-2.5699,-2.5703,-2.5703,-2.5703,-2.5703,-2.5703,-2.5703,-2.5703,-2.5703,-2.5703,-2.5703,-2.5702,-2.5703,-2.5703,-2.5703,-2.5703,-2.5703,-2.5703,-2.5703,-2.5703,-2.5703,-2.5703,-2.5703,-2.5703,-2.5703,-2.5703,-2.5703,-2.5703,-2.5701,-2.5691,-2.5633,-2.5611,-2.5605,-2.5554,-2.5546,-2.5522,-2.5526,-2.5425,-2.5322,-2.5322,-2.5303,-2.5303,-2.5303,-2.5303,-2.5303,-2.5303,-2.5303,-2.5303,-2.5303,-2.5303,-2.5303,-2.5303,-2.5303,-2.5303,-2.5303,-2.5313,-2.5322,-2.5322,-2.5322,-2.5322,-2.5322,-2.537,-2.5397,-2.5395,-2.5393,-2.5385,-2.5351,-2.5192,-2.5037,-2.4891,-2.476,-2.4711,-2.4698,-2.4711,-2.4707,-2.4707,-2.4707,-2.4707,-2.4707,-2.4707,-2.4707,-2.4707,-2.4707,-2.4707,-2.4707,-2.4707,-2.4707,-2.4707,-2.4707,-2.4707,-2.4695,-2.4649,-2.4505,-2.4339,-2.4373,-2.4368,-2.4479,-2.5222,-2.5264,-2.5313,-2.5322,-2.5313,-2.534,-2.5406,-2.5422,-2.5425,-2.5492,-2.5504,-2.5504,-2.551,-2.551,-2.5532,-2.5601,-2.5605,-2.5619,-2.5705,-2.5709,-2.5697,-2.5703,-2.5703,-2.5703,-2.5703,-2.5697,-2.5697,-2.5703,-2.5703,-2.5702,-2.5709,-2.5702,-2.5703,-2.5703,-2.5703,-2.5703,-2.5703,-2.5703,-2.5703,-2.5703,-2.5703,-2.5703,-2.5703,-2.5703,-2.5703,-2.5703,-2.5703,-2.5703,-2.5699,-2.5699,-2.5696,-2.5687,-2.5685,-2.5644,-2.5601,-2.559,-2.5498,-2.5379,-2.5379,-2.5359,-2.5303,-2.5303,-2.5303,-2.5303,-2.5303,-2.5303,-2.5303,-2.5303,-2.5303,-2.5303,-2.5303,-2.5303,-2.5303,-2.5303,-2.5351,-2.5389,-2.5389,-2.5388,-2.5387,-2.5387,-2.5406,-2.5395,-2.5393,-2.5401,-2.5429,-2.5476,-2.5253,-2.5084,-2.5072,-2.4832,-2.4707,-2.4692,-2.4707,-2.4707,-2.4707,-2.4707,-2.4707,-2.4707,-2.4707,-2.4707,-2.4707,-2.4707,-2.4707,-2.4707,-2.4707,-2.4707,-2.4707,-2.4707,-2.4707,-2.4767,-2.5349,-2.5129,-2.4554,-2.5018,-2.521,-2.5186,-2.5252,-2.5262,-2.5243,-2.5293,-2.5312,-2.5303,-2.534,-2.534,-2.5359,-2.5374,-2.5382,-2.5398,-2.5432,-2.5439,-2.5467,-2.5532,-2.5537,-2.5547,-2.5565,-2.5585,-2.56,-2.5702,-2.5703,-2.5703,-2.5702,-2.5694,-2.5691,-2.5697,-2.5701,-2.5702,-2.5701,-2.5698,-2.5701,-2.5703,-2.5703,-2.5703,-2.5703,-2.5703,-2.5703,-2.5703,-2.5703,-2.5703,-2.5703,-2.5703,-2.5703,-2.5703,-2.5703,-2.5703,-2.5702,-2.5697,-2.5691,-2.5707,-2.5707,-2.5687,-2.5666,-2.5657,-2.5598,-2.5526,-2.5526,-2.541,-2.5303,-2.5303,-2.5303,-2.5303,-2.5303,-2.5303,-2.5303,-2.5303,-2.5303,-2.5303,-2.5303,-2.5303,-2.5313,-2.5351,-2.5389,-2.5398,-2.5397,-2.5406,-2.5406,-2.5406,-2.5404,-2.5393,-2.5401,-2.5429,-2.5464,-2.5511,-2.5253,-2.5096,-2.5096,-2.4847,-2.4707,-2.4707,-2.4707,-2.4707,-2.4707,-2.4707,-2.4707,-2.4707,-2.4707,-2.4707,-2.4707,-2.4707,-2.4707,-2.4707,-2.4707,-2.4707,-2.4707,-2.4707,-2.4707,-2.4729,-2.4881,-2.4756,-2.4554,-2.511,-2.499,-2.475,-2.5252,-2.5252,-2.5243,-2.5293,-2.5302,-2.5302,-2.5303,-2.5303,-2.5303,-2.5303,-2.5303,-2.5313,-2.5365,-2.5365,-2.5406,-2.5467,-2.5473,-2.548,-2.5498,-2.5521,-2.557,-2.5627,-2.5659,-2.5662,-2.5661,-2.5693,-2.5707,-2.5707,-2.5694,-2.5699,-2.5702,-2.5698,-2.5698,-2.5702,-2.5703,-2.5703,-2.5703,-2.5703,-2.5703,-2.5703,-2.5703,-2.5703,-2.5703,-2.5703,-2.5703,-2.5703,-2.5703,-2.5703,-2.5701,-2.5691,-2.5707,-2.5707,-2.5707,-2.5707,-2.5707,-2.5707,-2.5657,-2.5597,-2.5605,-2.5473,-2.5331,-2.5331,-2.5313,-2.5303,-2.5303,-2.5303,-2.5303,-2.5303,-2.5303,-2.5303,-2.5303,-2.5303,-2.5322,-2.5389,-2.5407,-2.5397,-2.5395,-2.5423,-2.5432,-2.5432,-2.5421,-2.5429,-2.5429,-2.5464,-2.5511,-2.5511,-2.5284,-2.5126,-2.5037,-2.4818,-2.4707,-2.4707,-2.4707,-2.4707,-2.4707,-2.4707,-2.4707,-2.4707,-2.4707,-2.4707,-2.4707,-2.4707,-2.4707,-2.4707,-2.4707,-2.4707,-2.4707,-2.4707,-2.4707,-2.4711,-2.4893,-2.4804,-2.4659,-2.5522,-2.5276,-2.4831,-2.5222,-2.5253,-2.5303,-2.5292,-2.5293,-2.5303,-2.5303,-2.5303,-2.5303,-2.5303,-2.5303,-2.5303,-2.5303,-2.5303,-2.5331,-2.5379,-2.5406,-2.5425,-2.5498,-2.5552,-2.5574,-2.5498,-2.5551,-2.5595,-2.5602,-2.5673,-2.5707,-2.5707,-2.5707,-2.5707,-2.5707,-2.5702,-2.5701,-2.5709,-2.5702,-2.5703,-2.5703,-2.5703,-2.5703,-2.5703,-2.5703,-2.5703,-2.5703,-2.5703,-2.5703,-2.5703,-2.5703,-2.57,-2.5707,-2.5707,-2.5707,-2.5707,-2.5707,-2.5707,-2.5707,-2.5707,-2.5648,-2.5605,-2.5593,-2.5504,-2.5395,-2.5395,-2.5339,-2.5303,-2.5303,-2.5303,-2.5303,-2.5303,-2.5303,-2.5303,-2.5303,-2.5303,-2.5322,-2.5389,-2.5397,-2.5395,-2.5401,-2.5456,-2.5511,-2.5511,-2.5511,-2.5511,-2.5511,-2.5511,-2.5511,-2.5511,-2.536,-2.5171,-2.4915,-2.4779,-2.4707,-2.4707,-2.4707,-2.4707,-2.4707,-2.4707,-2.4707,-2.4707,-2.4707,-2.4707,-2.4707,-2.4707,-2.4707,-2.4707,-2.4707,-2.4707,-2.4707,-2.4707,-2.4707,-2.4801,-2.5662,-2.5458,-2.4898,-2.6429,-2.6377,-2.5724,-2.5264,-2.5253,-2.5243,-2.5293,-2.5302,-2.5302,-2.5303,-2.5303,-2.5303,-2.5303,-2.5303,-2.5303,-2.5303,-2.5303,-2.5322,-2.5331,-2.5331,-2.535,-2.5357,-2.5418,-2.5441,-2.5434,-2.5571,-2.5652,-2.5606,-2.5661,-2.5707,-2.5707,-2.5707,-2.5707,-2.5707,-2.5697,-2.57,-2.5702,-2.5703,-2.5703,-2.5703,-2.5703,-2.5703,-2.5703,-2.5703,-2.5703,-2.5703,-2.5703,-2.5703,-2.5703,-2.5703,-2.5703,-2.5701,-2.5691,-2.5707,-2.5707,-2.5707,-2.5696,-2.5702,-2.5698,-2.5693,-2.5666,-2.5679,-2.5603,-2.5526,-2.5413,-2.5339,-2.5303,-2.5303,-2.5303,-2.5303,-2.5303,-2.5303,-2.5303,-2.5303,-2.5303,-2.5322,-2.5389,-2.5397,-2.5395,-2.5401,-2.5456,-2.5511,-2.5511,-2.5511,-2.5511,-2.5511,-2.5511,-2.5511,-2.5511,-2.5284,-2.5072,-2.4915,-2.4779,-2.4707,-2.4707,-2.4707,-2.4707,-2.4707,-2.4707,-2.4707,-2.4707,-2.4707,-2.4707,-2.4707,-2.4707,-2.4707,-2.4707,-2.4707,-2.4707,-2.4745,-2.5346,-2.5252,-2.4801,-2.5662,-2.585,-2.5705,-2.6599,-2.6673,-2.6554,-2.5284,-2.5264,-2.5253,-2.5284,-2.5293,-2.5312,-2.5303,-2.5303,-2.5303,-2.5303,-2.5303,-2.5303,-2.5303,-2.5303,-2.5303,-2.5303,-2.5303,-2.5313,-2.5341,-2.5369,-2.5406,-2.5398,-2.557,-2.562,-2.5561,-2.5652,-2.5693,-2.5657,-2.5683,-2.5707,-2.5707,-2.5691,-2.5696,-2.5701,-2.5703,-2.5703,-2.5703,-2.5703,-2.5703,-2.5703,-2.5703,-2.5703,-2.5703,-2.5703,-2.5703,-2.5703,-2.5703,-2.5703,-2.5703,-2.5699,-2.5696,-2.5693,-2.5709,-2.5694,-2.5701,-2.5702,-2.57,-2.5697,-2.5694,-2.5652,-2.5579,-2.5503,-2.5406,-2.534,-2.5313,-2.5303,-2.5303,-2.5303,-2.5303,-2.5303,-2.5303,-2.5303,-2.5322,-2.5389,-2.5407,-2.5406,-2.5404,-2.5429,-2.5456,-2.5456,-2.5754,-2.5859,-2.553,-2.5801,-2.584,-2.553,-2.5561,-2.5392,-2.4994,-2.5129,-2.5064,-2.4707,-2.4707,-2.4707,-2.4707,-2.4707,-2.4707,-2.4707,-2.4707,-2.4707,-2.4707,-2.4707,-2.4895,-2.5196,-2.4858,-2.4895,-2.5233,-2.5402,-2.5177,-2.4801,-2.5662,-2.6,-2.6115,-2.7119,-2.7158,-2.6923,-2.5303,-2.5303,-2.5303,-2.5303,-2.5303,-2.5303,-2.5303,-2.5303,-2.5303,-2.5303,-2.5303,-2.5303,-2.5303,-2.5303,-2.5303,-2.5303,-2.5303,-2.5341,-2.5389,-2.5393,-2.5401,-2.5398,-2.5524,-2.555,-2.5485,-2.562,-2.566,-2.559,-2.5654,-2.5683,-2.5705,-2.5685,-2.5685,-2.5707,-2.5701,-2.5703,-2.5703,-2.5703,-2.5703,-2.5703,-2.5703,-2.5703,-2.5703,-2.5703,-2.5703,-2.5703,-2.5703,-2.5703,-2.5703,-2.5703,-2.5703,-2.57,-2.5693,-2.5709,-2.5693,-2.5703,-2.5703,-2.5703,-2.5701,-2.5655,-2.5609,-2.5609,-2.5493,-2.5387,-2.5322,-2.5293,-2.5303,-2.5303,-2.5303,-2.5303,-2.5303,-2.5303,-2.5313,-2.5389,-2.5398,-2.5427,-2.5502,-2.55,-2.5517,-2.5517,-2.623,-2.6412,-2.5685,-2.6334,-2.6508,-2.5782,-2.6156,-2.6116,-2.5352,-2.5825,-2.5772,-2.4951,-2.4858,-2.482,-2.482,-2.482,-2.4782,-2.4707,-2.4707,-2.4745,-2.482,-2.482,-2.5289,-2.6057,-2.5271,-2.5364,-2.6057,-2.5327,-2.4989,-2.5008,-2.5871,-2.6207,-2.6395,-2.7862,-2.7774,-2.7149,-2.5303,-2.5303,-2.5303,-2.5303,-2.5303,-2.5303,-2.5303,-2.5303,-2.5303,-2.5303,-2.5303,-2.5303,-2.5303,-2.5303,-2.5303,-2.5303,-2.5303,-2.5313,-2.5313,-2.5379,-2.5388,-2.5398,-2.5432,-2.5437,-2.5421,-2.5543,-2.5619,-2.56,-2.5609,-2.566,-2.5691,-2.5658,-2.5654,-2.5707,-2.5691,-2.5699,-2.5703,-2.5703,-2.5703,-2.5703,-2.5703,-2.5703,-2.5703,-2.5703,-2.5703,-2.5703,-2.5703,-2.5703,-2.5703,-2.5703,-2.5703,-2.5703,-2.5703,-2.5703,-2.5703,-2.5703,-2.5703,-2.5703,-2.5701,-2.5694,-2.5668,-2.5609,-2.5531,-2.5465,-2.5395,-2.534,-2.5303,-2.5303,-2.5303,-2.5303,-2.5303,-2.5303,-2.5313,-2.5313,-2.5361,-2.563,-2.6256,-2.6381,-2.6427,-2.6425,-2.658,-2.6627,-2.645,-2.7213,-2.7638,-2.7464,-2.7479,-2.7363,-2.7071,-2.7077,-2.6953,-2.666,-2.604,-2.5718,-2.5718,-2.5718,-2.5383,-2.4707,-2.4707,-2.5064,-2.5718,-2.5718,-2.6169,-2.6923,-2.6735,-2.6773,-2.696,-2.743,-2.7242,-2.6735,-2.7561,-2.788,-2.7919,-2.8257,-2.8577,-2.8827,-2.5303,-2.5303,-2.5303,-2.5303,-2.5303,-2.5303,-2.5303,-2.5303,-2.5303,-2.5303,-2.5303,-2.5303,-2.5303,-2.5303,-2.5303,-2.5303,-2.5303,-2.5303,-2.5303,-2.5322,-2.5351,-2.5351,-2.5379,-2.5397,-2.5397,-2.5476,-2.5518,-2.5549,-2.5574,-2.5615,-2.5643,-2.5624,-2.5613,-2.5652,-2.5659,-2.5654,-2.5641,-2.5683,-2.5703,-2.5703,-2.5703,-2.5703,-2.5703,-2.5703,-2.5703,-2.5703,-2.5703,-2.5703,-2.5703,-2.5703,-2.5703,-2.5703,-2.5703,-2.5703,-2.5703,-2.5703,-2.5703,-2.5703,-2.5703,-2.5701,-2.5697,-2.565,-2.5603,-2.5527,-2.5425,-2.5359,-2.5313,-2.5351,-2.5322,-2.5428,-2.588,-2.5938,-2.6073,-2.6458,-2.6217,-2.6256,-2.7104,-2.6921,-2.6833,-2.7239,-2.7634,-2.7903,-2.7941,-2.7978,-2.7995,-2.7995,-2.826,-2.8214,-2.7723,-2.7908,-2.7805,-2.7315,-2.6822,-2.6566,-2.6566,-2.6566,-2.6341,-2.589,-2.5858,-2.6101,-2.6566,-2.6549,-2.6981,-2.7749,-2.7373,-2.743,-2.7786,-2.7824,-2.7563,-2.7245,-2.8069,-2.8389,-2.8409,-2.8857,-2.9157,-2.9291,-2.5303,-2.5303,-2.5303,-2.5303,-2.5303,-2.5303,-2.5303,-2.5303,-2.5303,-2.5303,-2.5303,-2.5303,-2.5303,-2.5303,-2.5303,-2.5303,-2.5303,-2.5303,-2.5303,-2.5303,-2.5303,-2.5303,-2.5351,-2.5389,-2.5389,-2.5388,-2.5421,-2.5478,-2.555,-2.5577,-2.5585,-2.5579,-2.5599,-2.5629,-2.5623,-2.5601,-2.5598,-2.568,-2.5683,-2.5684,-2.5703,-2.5703,-2.5703,-2.5703,-2.5703,-2.5703,-2.5703,-2.5703,-2.5703,-2.5703,-2.5703,-2.5703,-2.5703,-2.5703,-2.5703,-2.5703,-2.5703,-2.5703,-2.5703,-2.5586,-2.5488,-2.5481,-2.532,-2.5187,-2.5221,-2.526,-2.5322,-2.5389,-2.5351,-2.5544,-2.6323,-2.6545,-2.6843,-2.7557,-2.72,-2.7123,-2.801,-2.7557,-2.7364,-2.8038,-2.8772,-2.9216,-2.9274,-2.8743,-2.8385,-2.8385,-2.8931,-2.8941,-2.8199,-2.8632,-2.8559,-2.7824,-2.7533,-2.7411,-2.7411,-2.7411,-2.7411,-2.7411,-2.749,-2.749,-2.7411,-2.7359,-2.7809,-2.8576,-2.7918,-2.8012,-2.8557,-2.7899,-2.7583,-2.7622,-2.8333,-2.8577,-2.8633,-2.9383,-2.9531,-2.9272,-2.5303,-2.5303,-2.5303,-2.5303,-2.5303,-2.5303,-2.5303,-2.5303,-2.5303,-2.5303,-2.5303,-2.5303,-2.5303,-2.5303,-2.5303,-2.5303,-2.5303,-2.5303,-2.5303,-2.5303,-2.5303,-2.5303,-2.5313,-2.5313,-2.5313,-2.5313,-2.536,-2.5418,-2.5418,-2.5453,-2.5515,-2.5506,-2.5587,-2.5683,-2.5695,-2.5648,-2.559,-2.5673,-2.5679,-2.5625,-2.5684,-2.5703,-2.5703,-2.5703,-2.5703,-2.5703,-2.5703,-2.5703,-2.5703,-2.5703,-2.5703,-2.5703,-2.5703,-2.5703,-2.5703,-2.5703,-2.5703,-2.5703,-2.5703,-2.5156,-2.457,-2.459,-2.4005,-2.3614,-2.4287,-2.4934,-2.5389,-2.5398,-2.5389,-2.5428,-2.5552,-2.6178,-2.6708,-2.6776,-2.7306,-2.8029,-2.8898,-2.8936,-2.8898,-2.9013,-2.9129,-2.9187,-2.9216,-2.9693,-2.9994,-2.9994,-2.9973,-2.987,-2.9627,-2.9693,-2.9631,-2.9399,-2.8631,-2.8238,-2.8238,-2.8238,-2.8238,-2.8238,-2.8933,-2.8895,-2.8238,-2.8221,-2.8708,-2.9514,-2.9401,-2.942,-2.9514,-2.9401,-2.9363,-2.9345,-2.942,-2.9439,-2.9438,-2.9513,-2.9492,-2.9453,-2.5166,-2.5273,-2.5302,-2.5302,-2.5293,-2.5303,-2.5303,-2.5303,-2.5303,-2.5303,-2.5303,-2.5303,-2.5303,-2.5303,-2.5303,-2.5303,-2.5303,-2.5303,-2.5303,-2.5303,-2.5303,-2.5303,-2.5303,-2.5303,-2.5303,-2.5303,-2.5332,-2.5406,-2.5406,-2.5415,-2.544,-2.5445,-2.5476,-2.5543,-2.5601,-2.5613,-2.5549,-2.5671,-2.5683,-2.5664,-2.5684,-2.5703,-2.5703,-2.5703,-2.5703,-2.5703,-2.5703,-2.5703,-2.5703,-2.5703,-2.5703,-2.5703,-2.5703,-2.5703,-2.5703,-2.5703,-2.5703,-2.5586,-2.5117,-2.4687,-2.4394,-2.4394,-2.4117,-2.4042,-2.4838,-2.5589,-2.6006,-2.5543,-2.5409,-2.5649,-2.6679,-2.7142,-2.7702,-2.8676,-2.8753,-2.8975,-2.9805,-2.9535,-2.9409,-2.9822,-2.988,-2.988,-2.988,-3.0098,-3.0241,-3.0241,-3.0122,-3.0022,-2.9965,-2.9853,-2.9786,-2.9753,-2.9325,-2.9083,-2.9138,-2.9138,-2.9363,-2.9795,-3.0114,-2.9851,-2.9064,-2.9027,-2.9232,-2.9589,-2.9589,-2.9607,-2.9645,-2.9645,-2.9645,-2.9645,-2.9645,-2.9626,-2.9588,-2.949,-2.9451,-2.9412]}]]